<?xml version="1.0" encoding="UTF-8" standalone="no" ?>
<gpx xmlns="http://www.topografix.com/GPX/1/1" xmlns:xsi="http://www.w3.org/2001/XMLSchema-instance" xsi:schemaLocation="http://www.topografix.com/GPX/1/1 http://www.topografix.com/GPX/1/1/gpx.xsd" version="1.1" creator="VisuGPX - https://www.visugpx.com">
  <metadata>
    <name>GaillacAussac</name>
  </metadata>
  <trk>
    <name><![CDATA[GaillacAussac]]></name>
    <trkseg>
      <trkpt lat="43.93271" lon="2.1468">
        <ele>166.417328</ele>
        <time>2018-10-21T06:49:50.000Z</time>
      </trkpt>
      <trkpt lat="43.93138" lon="2.14711">
        <ele>168.519783</ele>
        <time>2018-10-21T06:50:47.742Z</time>
      </trkpt>
      <trkpt lat="43.93135" lon="2.14712">
        <ele>168.631676</ele>
        <time>2018-10-21T06:50:49.002Z</time>
      </trkpt>
      <trkpt lat="43.9313" lon="2.14712">
        <ele>168.858888</ele>
        <time>2018-10-21T06:50:51.206Z</time>
      </trkpt>
      <trkpt lat="43.93104" lon="2.1472">
        <ele>170.106928</ele>
        <time>2018-10-21T06:51:02.963Z</time>
      </trkpt>
      <trkpt lat="43.93092" lon="2.14702">
        <ele>170.9293</ele>
        <time>2018-10-21T06:51:10.858Z</time>
      </trkpt>
      <trkpt lat="43.93076" lon="2.14683">
        <ele>171.890647</ele>
        <time>2018-10-21T06:51:19.477Z</time>
      </trkpt>
      <trkpt lat="43.93036" lon="2.14631">
        <ele>174.41234</ele>
        <time>2018-10-21T06:51:41.336Z</time>
      </trkpt>
      <trkpt lat="43.93" lon="2.14585">
        <ele>175.544532</ele>
        <time>2018-10-21T06:51:59.347Z</time>
      </trkpt>
      <trkpt lat="43.92998" lon="2.14582">
        <ele>175.594304</ele>
        <time>2018-10-21T06:52:00.201Z</time>
      </trkpt>
      <trkpt lat="43.92988" lon="2.14569">
        <ele>175.862244</ele>
        <time>2018-10-21T06:52:04.345Z</time>
      </trkpt>
      <trkpt lat="43.92984" lon="2.14564">
        <ele>175.964216</ele>
        <time>2018-10-21T06:52:06.041Z</time>
      </trkpt>
      <trkpt lat="43.92968" lon="2.14542">
        <ele>176.390451</ele>
        <time>2018-10-21T06:52:12.827Z</time>
      </trkpt>
      <trkpt lat="43.92964" lon="2.14537">
        <ele>176.501169</ele>
        <time>2018-10-21T06:52:14.480Z</time>
      </trkpt>
      <trkpt lat="43.92944" lon="2.14516">
        <ele>176.967753</ele>
        <time>2018-10-21T06:52:21.876Z</time>
      </trkpt>
      <trkpt lat="43.92933" lon="2.14505">
        <ele>177.237226</ele>
        <time>2018-10-21T06:52:25.752Z</time>
      </trkpt>
      <trkpt lat="43.92919" lon="2.14487">
        <ele>177.59125</ele>
        <time>2018-10-21T06:52:31.166Z</time>
      </trkpt>
      <trkpt lat="43.92899" lon="2.14463">
        <ele>178.095951</ele>
        <time>2018-10-21T06:52:37.692Z</time>
      </trkpt>
      <trkpt lat="43.92896" lon="2.14446">
        <ele>178.09794</ele>
        <time>2018-10-21T06:52:41.134Z</time>
      </trkpt>
      <trkpt lat="43.92894" lon="2.14432">
        <ele>178.022116</ele>
        <time>2018-10-21T06:52:43.619Z</time>
      </trkpt>
      <trkpt lat="43.92893" lon="2.14417">
        <ele>177.937506</ele>
        <time>2018-10-21T06:52:46.181Z</time>
      </trkpt>
      <trkpt lat="43.92888" lon="2.14395">
        <ele>177.813736</ele>
        <time>2018-10-21T06:52:50.398Z</time>
      </trkpt>
      <trkpt lat="43.92882" lon="2.14365">
        <ele>177.64656</ele>
        <time>2018-10-21T06:52:55.299Z</time>
      </trkpt>
      <trkpt lat="43.9288" lon="2.14365">
        <ele>177.629263</ele>
        <time>2018-10-21T06:52:55.912Z</time>
      </trkpt>
      <trkpt lat="43.92865" lon="2.14365">
        <ele>177.519463</ele>
        <time>2018-10-21T06:52:59.578Z</time>
      </trkpt>
      <trkpt lat="43.92851" lon="2.14366">
        <ele>177.410368</ele>
        <time>2018-10-21T06:53:02.658Z</time>
      </trkpt>
      <trkpt lat="43.92817" lon="2.14366">
        <ele>177.158432</ele>
        <time>2018-10-21T06:53:09.501Z</time>
      </trkpt>
      <trkpt lat="43.92817" lon="2.14356">
        <ele>177.105872</ele>
        <time>2018-10-21T06:53:10.711Z</time>
      </trkpt>
      <trkpt lat="43.92816" lon="2.14228">
        <ele>174.973942</ele>
        <time>2018-10-21T06:53:27.234Z</time>
      </trkpt>
      <trkpt lat="43.92823" lon="2.14198">
        <ele>174.192444</ele>
        <time>2018-10-21T06:53:31.150Z</time>
      </trkpt>
      <trkpt lat="43.92822" lon="2.14186">
        <ele>173.914475</ele>
        <time>2018-10-21T06:53:32.386Z</time>
      </trkpt>
      <trkpt lat="43.92834" lon="2.14178">
        <ele>173.45106</ele>
        <time>2018-10-21T06:53:34.646Z</time>
      </trkpt>
      <trkpt lat="43.92844" lon="2.14161">
        <ele>172.89342</ele>
        <time>2018-10-21T06:53:37.310Z</time>
      </trkpt>
      <trkpt lat="43.92844" lon="2.14156">
        <ele>172.770216</ele>
        <time>2018-10-21T06:53:37.858Z</time>
      </trkpt>
      <trkpt lat="43.92843" lon="2.14127">
        <ele>172.053013</ele>
        <time>2018-10-21T06:53:41.369Z</time>
      </trkpt>
      <trkpt lat="43.92842" lon="2.14091">
        <ele>171.169744</ele>
        <time>2018-10-21T06:53:45.590Z</time>
      </trkpt>
      <trkpt lat="43.92843" lon="2.14077">
        <ele>170.81114</ele>
        <time>2018-10-21T06:53:47.310Z</time>
      </trkpt>
      <trkpt lat="43.92842" lon="2.14066">
        <ele>170.573788</ele>
        <time>2018-10-21T06:53:48.713Z</time>
      </trkpt>
      <trkpt lat="43.92842" lon="2.14065">
        <ele>170.548944</ele>
        <time>2018-10-21T06:53:48.926Z</time>
      </trkpt>
      <trkpt lat="43.92843" lon="2.14051">
        <ele>170.299902</ele>
        <time>2018-10-21T06:53:50.504Z</time>
      </trkpt>
      <trkpt lat="43.92844" lon="2.1403">
        <ele>169.931371</ele>
        <time>2018-10-21T06:53:52.823Z</time>
      </trkpt>
      <trkpt lat="43.92844" lon="2.14016">
        <ele>169.680559</ele>
        <time>2018-10-21T06:53:54.775Z</time>
      </trkpt>
      <trkpt lat="43.92841" lon="2.14005">
        <ele>169.482039</ele>
        <time>2018-10-21T06:53:56.074Z</time>
      </trkpt>
      <trkpt lat="43.92838" lon="2.13996">
        <ele>169.297792</ele>
        <time>2018-10-21T06:53:57.295Z</time>
      </trkpt>
      <trkpt lat="43.92823" lon="2.13977">
        <ele>168.793286</ele>
        <time>2018-10-21T06:54:00.812Z</time>
      </trkpt>
      <trkpt lat="43.92819" lon="2.13982">
        <ele>168.673931</ele>
        <time>2018-10-21T06:54:01.804Z</time>
      </trkpt>
      <trkpt lat="43.92829" lon="2.14002">
        <ele>168.230357</ele>
        <time>2018-10-21T06:54:04.703Z</time>
      </trkpt>
      <trkpt lat="43.92827" lon="2.14014">
        <ele>168.012764</ele>
        <time>2018-10-21T06:54:06.524Z</time>
      </trkpt>
      <trkpt lat="43.92823" lon="2.14018">
        <ele>167.895309</ele>
        <time>2018-10-21T06:54:07.928Z</time>
      </trkpt>
      <trkpt lat="43.92818" lon="2.14017">
        <ele>167.75885</ele>
        <time>2018-10-21T06:54:09.047Z</time>
      </trkpt>
      <trkpt lat="43.9281" lon="2.14013">
        <ele>167.55104</ele>
        <time>2018-10-21T06:54:10.579Z</time>
      </trkpt>
      <trkpt lat="43.92806" lon="2.14007">
        <ele>167.417229</ele>
        <time>2018-10-21T06:54:11.442Z</time>
      </trkpt>
      <trkpt lat="43.92792" lon="2.13962">
        <ele>166.539466</ele>
        <time>2018-10-21T06:54:18.419Z</time>
      </trkpt>
      <trkpt lat="43.9279" lon="2.1396">
        <ele>166.489437</ele>
        <time>2018-10-21T06:54:18.707Z</time>
      </trkpt>
      <trkpt lat="43.92781" lon="2.13948">
        <ele>166.203565</ele>
        <time>2018-10-21T06:54:22.227Z</time>
      </trkpt>
      <trkpt lat="43.92765" lon="2.13929">
        <ele>166.539168</ele>
        <time>2018-10-21T06:54:26.415Z</time>
      </trkpt>
      <trkpt lat="43.92742" lon="2.13901">
        <ele>167.049503</ele>
        <time>2018-10-21T06:54:34.641Z</time>
      </trkpt>
      <trkpt lat="43.92729" lon="2.13924">
        <ele>167.400099</ele>
        <time>2018-10-21T06:54:40.961Z</time>
      </trkpt>
      <trkpt lat="43.92715" lon="2.13935">
        <ele>167.671644</ele>
        <time>2018-10-21T06:54:45.901Z</time>
      </trkpt>
      <trkpt lat="43.92707" lon="2.13935">
        <ele>167.809065</ele>
        <time>2018-10-21T06:54:47.657Z</time>
      </trkpt>
      <trkpt lat="43.92689" lon="2.13931">
        <ele>168.098874</ele>
        <time>2018-10-21T06:54:53.914Z</time>
      </trkpt>
      <trkpt lat="43.92684" lon="2.13923">
        <ele>168.223955</ele>
        <time>2018-10-21T06:54:56.679Z</time>
      </trkpt>
      <trkpt lat="43.92683" lon="2.13911">
        <ele>168.371559</ele>
        <time>2018-10-21T06:54:59.287Z</time>
      </trkpt>
      <trkpt lat="43.9269" lon="2.13894">
        <ele>168.597919</ele>
        <time>2018-10-21T06:55:04.488Z</time>
      </trkpt>
      <trkpt lat="43.92724" lon="2.1387">
        <ele>169.257146</ele>
        <time>2018-10-21T06:55:19.155Z</time>
      </trkpt>
      <trkpt lat="43.92729" lon="2.13865">
        <ele>169.407056</ele>
        <time>2018-10-21T06:55:21.190Z</time>
      </trkpt>
      <trkpt lat="43.92702" lon="2.13826">
        <ele>170.34887</ele>
        <time>2018-10-21T06:55:35.239Z</time>
      </trkpt>
      <trkpt lat="43.92705" lon="2.13768">
        <ele>171.357786</ele>
        <time>2018-10-21T06:55:49.244Z</time>
      </trkpt>
      <trkpt lat="43.92708" lon="2.13714">
        <ele>172.280428</ele>
        <time>2018-10-21T06:56:01.785Z</time>
      </trkpt>
      <trkpt lat="43.92709" lon="2.13697">
        <ele>172.573115</ele>
        <time>2018-10-21T06:56:06.066Z</time>
      </trkpt>
      <trkpt lat="43.92705" lon="2.13677">
        <ele>172.920627</ele>
        <time>2018-10-21T06:56:10.424Z</time>
      </trkpt>
      <trkpt lat="43.92704" lon="2.13668">
        <ele>173.077857</ele>
        <time>2018-10-21T06:56:12.492Z</time>
      </trkpt>
      <trkpt lat="43.92692" lon="2.13548">
        <ele>173.612303</ele>
        <time>2018-10-21T06:56:36.390Z</time>
      </trkpt>
      <trkpt lat="43.9269" lon="2.13539">
        <ele>173.626695</ele>
        <time>2018-10-21T06:56:37.725Z</time>
      </trkpt>
      <trkpt lat="43.9267" lon="2.13449">
        <ele>173.774077</ele>
        <time>2018-10-21T06:56:51.923Z</time>
      </trkpt>
      <trkpt lat="43.92662" lon="2.13413">
        <ele>173.834111</ele>
        <time>2018-10-21T06:56:57.472Z</time>
      </trkpt>
      <trkpt lat="43.92651" lon="2.13359">
        <ele>173.715316</ele>
        <time>2018-10-21T06:57:05.499Z</time>
      </trkpt>
      <trkpt lat="43.92619" lon="2.1311">
        <ele>173.071216</ele>
        <time>2018-10-21T06:57:44.060Z</time>
      </trkpt>
      <trkpt lat="43.92622" lon="2.13086">
        <ele>173.036403</ele>
        <time>2018-10-21T06:57:47.796Z</time>
      </trkpt>
      <trkpt lat="43.92627" lon="2.13082">
        <ele>173.023304</ele>
        <time>2018-10-21T06:57:49.273Z</time>
      </trkpt>
      <trkpt lat="43.92631" lon="2.13067">
        <ele>173.000321</ele>
        <time>2018-10-21T06:57:51.655Z</time>
      </trkpt>
      <trkpt lat="43.9263" lon="2.13062">
        <ele>172.992211</ele>
        <time>2018-10-21T06:57:52.622Z</time>
      </trkpt>
      <trkpt lat="43.92626" lon="2.13056">
        <ele>172.98116</ele>
        <time>2018-10-21T06:57:53.703Z</time>
      </trkpt>
      <trkpt lat="43.92621" lon="2.13051">
        <ele>172.968973</ele>
        <time>2018-10-21T06:57:55.006Z</time>
      </trkpt>
      <trkpt lat="43.92618" lon="2.13051">
        <ele>172.962517</ele>
        <time>2018-10-21T06:57:55.724Z</time>
      </trkpt>
      <trkpt lat="43.92619" lon="2.13024">
        <ele>172.92282</ele>
        <time>2018-10-21T06:57:59.899Z</time>
      </trkpt>
      <trkpt lat="43.92619" lon="2.1302">
        <ele>172.916451</ele>
        <time>2018-10-21T06:58:00.632Z</time>
      </trkpt>
      <trkpt lat="43.92619" lon="2.13016">
        <ele>172.911697</ele>
        <time>2018-10-21T06:58:01.050Z</time>
      </trkpt>
      <trkpt lat="43.9262" lon="2.12934">
        <ele>172.790458</ele>
        <time>2018-10-21T06:58:13.888Z</time>
      </trkpt>
      <trkpt lat="43.92617" lon="2.12846">
        <ele>172.560096</ele>
        <time>2018-10-21T06:58:27.561Z</time>
      </trkpt>
      <trkpt lat="43.92616" lon="2.12836">
        <ele>172.532457</ele>
        <time>2018-10-21T06:58:29.063Z</time>
      </trkpt>
      <trkpt lat="43.92616" lon="2.12826">
        <ele>172.505655</ele>
        <time>2018-10-21T06:58:30.541Z</time>
      </trkpt>
      <trkpt lat="43.92614" lon="2.12782">
        <ele>172.386345</ele>
        <time>2018-10-21T06:58:36.951Z</time>
      </trkpt>
      <trkpt lat="43.92613" lon="2.12682">
        <ele>172.113055</ele>
        <time>2018-10-21T06:58:51.959Z</time>
      </trkpt>
      <trkpt lat="43.92614" lon="2.12609">
        <ele>171.875881</ele>
        <time>2018-10-21T06:59:03.070Z</time>
      </trkpt>
      <trkpt lat="43.92615" lon="2.12593">
        <ele>171.824229</ele>
        <time>2018-10-21T06:59:05.410Z</time>
      </trkpt>
      <trkpt lat="43.92615" lon="2.12542">
        <ele>171.654872</ele>
        <time>2018-10-21T06:59:13.115Z</time>
      </trkpt>
      <trkpt lat="43.92616" lon="2.12408">
        <ele>171.242753</ele>
        <time>2018-10-21T06:59:32.853Z</time>
      </trkpt>
      <trkpt lat="43.9262" lon="2.12384">
        <ele>171.200514</ele>
        <time>2018-10-21T06:59:36.539Z</time>
      </trkpt>
      <trkpt lat="43.92619" lon="2.12373">
        <ele>171.182153</ele>
        <time>2018-10-21T06:59:38.168Z</time>
      </trkpt>
      <trkpt lat="43.92614" lon="2.12364">
        <ele>171.163948</ele>
        <time>2018-10-21T06:59:39.779Z</time>
      </trkpt>
      <trkpt lat="43.92613" lon="2.12352">
        <ele>171.14284</ele>
        <time>2018-10-21T06:59:41.625Z</time>
      </trkpt>
      <trkpt lat="43.92612" lon="2.12344">
        <ele>171.129151</ele>
        <time>2018-10-21T06:59:42.844Z</time>
      </trkpt>
      <trkpt lat="43.92609" lon="2.123">
        <ele>171.054307</ele>
        <time>2018-10-21T06:59:49.515Z</time>
      </trkpt>
      <trkpt lat="43.92584" lon="2.12053">
        <ele>170.96429</ele>
        <time>2018-10-21T07:00:29.911Z</time>
      </trkpt>
      <trkpt lat="43.92579" lon="2.11923">
        <ele>171.033688</ele>
        <time>2018-10-21T07:00:51.738Z</time>
      </trkpt>
      <trkpt lat="43.9258" lon="2.11802">
        <ele>170.455476</ele>
        <time>2018-10-21T07:01:10.583Z</time>
      </trkpt>
      <trkpt lat="43.92579" lon="2.11756">
        <ele>170.24072</ele>
        <time>2018-10-21T07:01:17.062Z</time>
      </trkpt>
      <trkpt lat="43.92578" lon="2.11732">
        <ele>170.126422</ele>
        <time>2018-10-21T07:01:20.369Z</time>
      </trkpt>
      <trkpt lat="43.92563" lon="2.11591">
        <ele>168.782729</ele>
        <time>2018-10-21T07:01:39.174Z</time>
      </trkpt>
      <trkpt lat="43.9256" lon="2.11558">
        <ele>168.387215</ele>
        <time>2018-10-21T07:01:43.290Z</time>
      </trkpt>
      <trkpt lat="43.92559" lon="2.11541">
        <ele>168.182736</ele>
        <time>2018-10-21T07:01:45.471Z</time>
      </trkpt>
      <trkpt lat="43.92572" lon="2.11451">
        <ele>167.089593</ele>
        <time>2018-10-21T07:01:57.485Z</time>
      </trkpt>
      <trkpt lat="43.92588" lon="2.11363">
        <ele>166.200073</ele>
        <time>2018-10-21T07:02:09.722Z</time>
      </trkpt>
      <trkpt lat="43.92594" lon="2.1133">
        <ele>165.890958</ele>
        <time>2018-10-21T07:02:14.128Z</time>
      </trkpt>
      <trkpt lat="43.92601" lon="2.11291">
        <ele>165.51338</ele>
        <time>2018-10-21T07:02:19.522Z</time>
      </trkpt>
      <trkpt lat="43.92609" lon="2.11247">
        <ele>165.093295</ele>
        <time>2018-10-21T07:02:25.688Z</time>
      </trkpt>
      <trkpt lat="43.92615" lon="2.11216">
        <ele>164.794717</ele>
        <time>2018-10-21T07:02:30.239Z</time>
      </trkpt>
      <trkpt lat="43.92617" lon="2.11191">
        <ele>164.559653</ele>
        <time>2018-10-21T07:02:33.685Z</time>
      </trkpt>
      <trkpt lat="43.92619" lon="2.11144">
        <ele>164.157689</ele>
        <time>2018-10-21T07:02:40.351Z</time>
      </trkpt>
      <trkpt lat="43.92617" lon="2.11096">
        <ele>163.752492</ele>
        <time>2018-10-21T07:02:46.977Z</time>
      </trkpt>
      <trkpt lat="43.92615" lon="2.11035">
        <ele>163.227814</ele>
        <time>2018-10-21T07:02:55.296Z</time>
      </trkpt>
      <trkpt lat="43.92607" lon="2.10867">
        <ele>161.890093</ele>
        <time>2018-10-21T07:03:17.889Z</time>
      </trkpt>
      <trkpt lat="43.92593" lon="2.10648">
        <ele>160.450484</ele>
        <time>2018-10-21T07:03:48.959Z</time>
      </trkpt>
      <trkpt lat="43.92578" lon="2.1034">
        <ele>159.335464</ele>
        <time>2018-10-21T07:04:35.180Z</time>
      </trkpt>
      <trkpt lat="43.92577" lon="2.10213">
        <ele>158.964345</ele>
        <time>2018-10-21T07:04:54.441Z</time>
      </trkpt>
      <trkpt lat="43.92582" lon="2.10069">
        <ele>158.423097</ele>
        <time>2018-10-21T07:05:15.798Z</time>
      </trkpt>
      <trkpt lat="43.92585" lon="2.09989">
        <ele>158.111142</ele>
        <time>2018-10-21T07:05:27.481Z</time>
      </trkpt>
      <trkpt lat="43.92584" lon="2.09837">
        <ele>157.720389</ele>
        <time>2018-10-21T07:05:49.813Z</time>
      </trkpt>
      <trkpt lat="43.92582" lon="2.09799">
        <ele>157.639671</ele>
        <time>2018-10-21T07:05:55.656Z</time>
      </trkpt>
      <trkpt lat="43.92577" lon="2.09724">
        <ele>157.483546</ele>
        <time>2018-10-21T07:06:07.580Z</time>
      </trkpt>
      <trkpt lat="43.92571" lon="2.09661">
        <ele>157.462726</ele>
        <time>2018-10-21T07:06:18.181Z</time>
      </trkpt>
      <trkpt lat="43.92543" lon="2.09431">
        <ele>157.598246</ele>
        <time>2018-10-21T07:06:56.867Z</time>
      </trkpt>
      <trkpt lat="43.9251" lon="2.09151">
        <ele>156.997354</ele>
        <time>2018-10-21T07:07:39.193Z</time>
      </trkpt>
      <trkpt lat="43.92508" lon="2.09084">
        <ele>156.959198</ele>
        <time>2018-10-21T07:07:49.748Z</time>
      </trkpt>
      <trkpt lat="43.92504" lon="2.08951">
        <ele>156.885038</ele>
        <time>2018-10-21T07:08:11.744Z</time>
      </trkpt>
      <trkpt lat="43.92497" lon="2.08722">
        <ele>156.822029</ele>
        <time>2018-10-21T07:08:48.871Z</time>
      </trkpt>
      <trkpt lat="43.92499" lon="2.08708">
        <ele>156.817691</ele>
        <time>2018-10-21T07:08:51.061Z</time>
      </trkpt>
      <trkpt lat="43.92512" lon="2.08577">
        <ele>156.509276</ele>
        <time>2018-10-21T07:09:10.572Z</time>
      </trkpt>
      <trkpt lat="43.92512" lon="2.08529">
        <ele>156.396195</ele>
        <time>2018-10-21T07:09:17.928Z</time>
      </trkpt>
      <trkpt lat="43.92513" lon="2.0851">
        <ele>156.351838</ele>
        <time>2018-10-21T07:09:20.816Z</time>
      </trkpt>
      <trkpt lat="43.92511" lon="2.08441">
        <ele>156.235368</ele>
        <time>2018-10-21T07:09:31.600Z</time>
      </trkpt>
      <trkpt lat="43.92508" lon="2.08349">
        <ele>156.251933</ele>
        <time>2018-10-21T07:09:46.033Z</time>
      </trkpt>
      <trkpt lat="43.92506" lon="2.08297">
        <ele>156.261185</ele>
        <time>2018-10-21T07:09:54.196Z</time>
      </trkpt>
      <trkpt lat="43.92506" lon="2.0829">
        <ele>156.262592</ele>
        <time>2018-10-21T07:09:55.387Z</time>
      </trkpt>
      <trkpt lat="43.92511" lon="2.08237">
        <ele>156.272122</ele>
        <time>2018-10-21T07:10:04.167Z</time>
      </trkpt>
      <trkpt lat="43.92526" lon="2.0816">
        <ele>156.398749</ele>
        <time>2018-10-21T07:10:18.085Z</time>
      </trkpt>
      <trkpt lat="43.9253" lon="2.08111">
        <ele>156.512921</ele>
        <time>2018-10-21T07:10:26.767Z</time>
      </trkpt>
      <trkpt lat="43.92528" lon="2.08059">
        <ele>156.634292</ele>
        <time>2018-10-21T07:10:35.817Z</time>
      </trkpt>
      <trkpt lat="43.92509" lon="2.07933">
        <ele>156.824773</ele>
        <time>2018-10-21T07:10:57.198Z</time>
      </trkpt>
      <trkpt lat="43.92497" lon="2.07854">
        <ele>156.750402</ele>
        <time>2018-10-21T07:11:10.057Z</time>
      </trkpt>
      <trkpt lat="43.92494" lon="2.07827">
        <ele>156.724856</ele>
        <time>2018-10-21T07:11:14.482Z</time>
      </trkpt>
      <trkpt lat="43.92489" lon="2.07766">
        <ele>156.66764</ele>
        <time>2018-10-21T07:11:24.022Z</time>
      </trkpt>
      <trkpt lat="43.92489" lon="2.07758">
        <ele>156.66028</ele>
        <time>2018-10-21T07:11:25.223Z</time>
      </trkpt>
      <trkpt lat="43.92488" lon="2.07751">
        <ele>156.654409</ele>
        <time>2018-10-21T07:11:26.162Z</time>
      </trkpt>
      <trkpt lat="43.92477" lon="2.076">
        <ele>156.304954</ele>
        <time>2018-10-21T07:11:48.678Z</time>
      </trkpt>
      <trkpt lat="43.92477" lon="2.07593">
        <ele>156.286767</ele>
        <time>2018-10-21T07:11:49.732Z</time>
      </trkpt>
      <trkpt lat="43.92476" lon="2.07586">
        <ele>156.269373</ele>
        <time>2018-10-21T07:11:50.737Z</time>
      </trkpt>
      <trkpt lat="43.92475" lon="2.07572">
        <ele>156.231901</ele>
        <time>2018-10-21T07:11:52.897Z</time>
      </trkpt>
      <trkpt lat="43.92472" lon="2.07535">
        <ele>156.132191</ele>
        <time>2018-10-21T07:11:58.809Z</time>
      </trkpt>
      <trkpt lat="43.92468" lon="2.07466">
        <ele>155.950252</ele>
        <time>2018-10-21T07:12:09.452Z</time>
      </trkpt>
      <trkpt lat="43.92463" lon="2.07405">
        <ele>155.809613</ele>
        <time>2018-10-21T07:12:18.837Z</time>
      </trkpt>
      <trkpt lat="43.9246" lon="2.0735">
        <ele>155.684875</ele>
        <time>2018-10-21T07:12:27.157Z</time>
      </trkpt>
      <trkpt lat="43.92459" lon="2.07326">
        <ele>155.630413</ele>
        <time>2018-10-21T07:12:30.721Z</time>
      </trkpt>
      <trkpt lat="43.92457" lon="2.07303">
        <ele>155.578093</ele>
        <time>2018-10-21T07:12:34.242Z</time>
      </trkpt>
      <trkpt lat="43.92456" lon="2.07293">
        <ele>155.556617</ele>
        <time>2018-10-21T07:12:35.702Z</time>
      </trkpt>
      <trkpt lat="43.92455" lon="2.07284">
        <ele>155.534731</ele>
        <time>2018-10-21T07:12:37.058Z</time>
      </trkpt>
      <trkpt lat="43.92447" lon="2.0723">
        <ele>155.410504</ele>
        <time>2018-10-21T07:12:45.444Z</time>
      </trkpt>
      <trkpt lat="43.92424" lon="2.07045">
        <ele>155.495318</ele>
        <time>2018-10-21T07:13:15.679Z</time>
      </trkpt>
      <trkpt lat="43.92418" lon="2.07002">
        <ele>155.519613</ele>
        <time>2018-10-21T07:13:23.157Z</time>
      </trkpt>
      <trkpt lat="43.92406" lon="2.06908">
        <ele>155.447224</ele>
        <time>2018-10-21T07:13:39.466Z</time>
      </trkpt>
      <trkpt lat="43.9238" lon="2.06696">
        <ele>155.011823</ele>
        <time>2018-10-21T07:14:12.363Z</time>
      </trkpt>
      <trkpt lat="43.92373" lon="2.06643">
        <ele>154.68762</ele>
        <time>2018-10-21T07:14:19.908Z</time>
      </trkpt>
      <trkpt lat="43.92378" lon="2.06429">
        <ele>153.463725</ele>
        <time>2018-10-21T07:14:49.621Z</time>
      </trkpt>
      <trkpt lat="43.92378" lon="2.06417">
        <ele>153.406158</ele>
        <time>2018-10-21T07:14:51.289Z</time>
      </trkpt>
      <trkpt lat="43.9238" lon="2.06317">
        <ele>152.922014</ele>
        <time>2018-10-21T07:15:06.163Z</time>
      </trkpt>
      <trkpt lat="43.92392" lon="2.0618">
        <ele>152.353362</ele>
        <time>2018-10-21T07:15:26.496Z</time>
      </trkpt>
      <trkpt lat="43.92388" lon="2.06117">
        <ele>152.165231</ele>
        <time>2018-10-21T07:15:36.239Z</time>
      </trkpt>
      <trkpt lat="43.92388" lon="2.06114">
        <ele>152.157145</ele>
        <time>2018-10-21T07:15:36.595Z</time>
      </trkpt>
      <trkpt lat="43.92384" lon="2.06085">
        <ele>152.069207</ele>
        <time>2018-10-21T07:15:40.969Z</time>
      </trkpt>
      <trkpt lat="43.92334" lon="2.05612">
        <ele>150.928977</ele>
        <time>2018-10-21T07:16:53.919Z</time>
      </trkpt>
      <trkpt lat="43.92323" lon="2.05509">
        <ele>150.712872</ele>
        <time>2018-10-21T07:17:09.907Z</time>
      </trkpt>
      <trkpt lat="43.92322" lon="2.05501">
        <ele>150.695993</ele>
        <time>2018-10-21T07:17:11.174Z</time>
      </trkpt>
      <trkpt lat="43.92311" lon="2.05439">
        <ele>150.552756</ele>
        <time>2018-10-21T07:17:20.798Z</time>
      </trkpt>
      <trkpt lat="43.92253" lon="2.05184">
        <ele>150.042282</ele>
        <time>2018-10-21T07:18:01.439Z</time>
      </trkpt>
      <trkpt lat="43.92248" lon="2.05163">
        <ele>150.024123</ele>
        <time>2018-10-21T07:18:04.736Z</time>
      </trkpt>
      <trkpt lat="43.92231" lon="2.05007">
        <ele>149.89971</ele>
        <time>2018-10-21T07:18:29.960Z</time>
      </trkpt>
      <trkpt lat="43.92227" lon="2.04923">
        <ele>150.049062</ele>
        <time>2018-10-21T07:18:44.401Z</time>
      </trkpt>
      <trkpt lat="43.92216" lon="2.04868">
        <ele>150.150332</ele>
        <time>2018-10-21T07:18:54.330Z</time>
      </trkpt>
      <trkpt lat="43.92198" lon="2.04816">
        <ele>150.251491</ele>
        <time>2018-10-21T07:19:04.007Z</time>
      </trkpt>
      <trkpt lat="43.92161" lon="2.04721">
        <ele>150.19089</ele>
        <time>2018-10-21T07:19:21.758Z</time>
      </trkpt>
      <trkpt lat="43.9211" lon="2.04587">
        <ele>149.827549</ele>
        <time>2018-10-21T07:19:44.454Z</time>
      </trkpt>
      <trkpt lat="43.92081" lon="2.04489">
        <ele>149.505255</ele>
        <time>2018-10-21T07:19:59.509Z</time>
      </trkpt>
      <trkpt lat="43.92061" lon="2.04428">
        <ele>149.277059</ele>
        <time>2018-10-21T07:20:09.145Z</time>
      </trkpt>
      <trkpt lat="43.92027" lon="2.04336">
        <ele>148.921837</ele>
        <time>2018-10-21T07:20:24.564Z</time>
      </trkpt>
      <trkpt lat="43.91997" lon="2.04235">
        <ele>149.337484</ele>
        <time>2018-10-21T07:20:43.507Z</time>
      </trkpt>
      <trkpt lat="43.91989" lon="2.04179">
        <ele>149.601345</ele>
        <time>2018-10-21T07:20:54.056Z</time>
      </trkpt>
      <trkpt lat="43.91989" lon="2.04146">
        <ele>149.755856</ele>
        <time>2018-10-21T07:21:00.385Z</time>
      </trkpt>
      <trkpt lat="43.91981" lon="2.04127">
        <ele>149.855261</ele>
        <time>2018-10-21T07:21:04.339Z</time>
      </trkpt>
      <trkpt lat="43.91958" lon="2.04109">
        <ele>150.026584</ele>
        <time>2018-10-21T07:21:11.386Z</time>
      </trkpt>
      <trkpt lat="43.91934" lon="2.04101">
        <ele>150.172424</ele>
        <time>2018-10-21T07:21:17.921Z</time>
      </trkpt>
      <trkpt lat="43.91909" lon="2.04095">
        <ele>150.323637</ele>
        <time>2018-10-21T07:21:24.570Z</time>
      </trkpt>
      <trkpt lat="43.91896" lon="2.04084">
        <ele>150.41238</ele>
        <time>2018-10-21T07:21:28.593Z</time>
      </trkpt>
      <trkpt lat="43.91893" lon="2.0406">
        <ele>150.517444</ele>
        <time>2018-10-21T07:21:33.035Z</time>
      </trkpt>
      <trkpt lat="43.91906" lon="2.03982">
        <ele>150.859603</ele>
        <time>2018-10-21T07:21:47.593Z</time>
      </trkpt>
      <trkpt lat="43.91914" lon="2.03887">
        <ele>150.993489</ele>
        <time>2018-10-21T07:22:02.733Z</time>
      </trkpt>
      <trkpt lat="43.91925" lon="2.03827">
        <ele>150.813945</ele>
        <time>2018-10-21T07:22:11.923Z</time>
      </trkpt>
      <trkpt lat="43.91931" lon="2.03805">
        <ele>150.745121</ele>
        <time>2018-10-21T07:22:15.387Z</time>
      </trkpt>
      <trkpt lat="43.91941" lon="2.03753">
        <ele>150.588149</ele>
        <time>2018-10-21T07:22:23.293Z</time>
      </trkpt>
      <trkpt lat="43.91943" lon="2.03694">
        <ele>150.416164</ele>
        <time>2018-10-21T07:22:31.934Z</time>
      </trkpt>
      <trkpt lat="43.9194" lon="2.03643">
        <ele>150.320129</ele>
        <time>2018-10-21T07:22:39.371Z</time>
      </trkpt>
      <trkpt lat="43.9193" lon="2.03589">
        <ele>150.236007</ele>
        <time>2018-10-21T07:22:47.813Z</time>
      </trkpt>
      <trkpt lat="43.91915" lon="2.03544">
        <ele>150.161947</ele>
        <time>2018-10-21T07:22:55.424Z</time>
      </trkpt>
      <trkpt lat="43.91854" lon="2.03432">
        <ele>150.055403</ele>
        <time>2018-10-21T07:23:18.318Z</time>
      </trkpt>
      <trkpt lat="43.91843" lon="2.03408">
        <ele>150.101281</ele>
        <time>2018-10-21T07:23:23.159Z</time>
      </trkpt>
      <trkpt lat="43.91839" lon="2.03385">
        <ele>150.138114</ele>
        <time>2018-10-21T07:23:26.966Z</time>
      </trkpt>
      <trkpt lat="43.91845" lon="2.03275">
        <ele>150.313853</ele>
        <time>2018-10-21T07:23:45.436Z</time>
      </trkpt>
      <trkpt lat="43.91848" lon="2.03216">
        <ele>150.400381</ele>
        <time>2018-10-21T07:23:55.400Z</time>
      </trkpt>
      <trkpt lat="43.91849" lon="2.03187">
        <ele>150.408962</ele>
        <time>2018-10-21T07:24:00.337Z</time>
      </trkpt>
      <trkpt lat="43.91849" lon="2.03172">
        <ele>150.413379</ele>
        <time>2018-10-21T07:24:02.993Z</time>
      </trkpt>
      <trkpt lat="43.91849" lon="2.03144">
        <ele>150.421394</ele>
        <time>2018-10-21T07:24:07.661Z</time>
      </trkpt>
      <trkpt lat="43.91847" lon="2.03114">
        <ele>150.43034</ele>
        <time>2018-10-21T07:24:12.639Z</time>
      </trkpt>
      <trkpt lat="43.91838" lon="2.0309">
        <ele>150.438218</ele>
        <time>2018-10-21T07:24:17.023Z</time>
      </trkpt>
      <trkpt lat="43.91819" lon="2.03045">
        <ele>150.453354</ele>
        <time>2018-10-21T07:24:25.163Z</time>
      </trkpt>
      <trkpt lat="43.91785" lon="2.02983">
        <ele>150.388294</ele>
        <time>2018-10-21T07:24:37.456Z</time>
      </trkpt>
      <trkpt lat="43.91782" lon="2.02976">
        <ele>150.336896</ele>
        <time>2018-10-21T07:24:38.916Z</time>
      </trkpt>
      <trkpt lat="43.91778" lon="2.02969">
        <ele>150.285001</ele>
        <time>2018-10-21T07:24:40.364Z</time>
      </trkpt>
      <trkpt lat="43.91781" lon="2.02966">
        <ele>150.252645</ele>
        <time>2018-10-21T07:24:41.172Z</time>
      </trkpt>
      <trkpt lat="43.91783" lon="2.02962">
        <ele>150.222776</ele>
        <time>2018-10-21T07:24:41.963Z</time>
      </trkpt>
      <trkpt lat="43.91787" lon="2.02959">
        <ele>150.18961</ele>
        <time>2018-10-21T07:24:42.739Z</time>
      </trkpt>
      <trkpt lat="43.91793" lon="2.02956">
        <ele>150.134225</ele>
        <time>2018-10-21T07:24:44.264Z</time>
      </trkpt>
      <trkpt lat="43.91874" lon="2.02908">
        <ele>149.429529</ele>
        <time>2018-10-21T07:25:01.862Z</time>
      </trkpt>
      <trkpt lat="43.91914" lon="2.02884">
        <ele>149.076865</ele>
        <time>2018-10-21T07:25:09.854Z</time>
      </trkpt>
      <trkpt lat="43.91922" lon="2.02879">
        <ele>149.00251</ele>
        <time>2018-10-21T07:25:11.439Z</time>
      </trkpt>
      <trkpt lat="43.9196" lon="2.02857">
        <ele>148.676781</ele>
        <time>2018-10-21T07:25:18.787Z</time>
      </trkpt>
      <trkpt lat="43.92055" lon="2.02801">
        <ele>147.843554</ele>
        <time>2018-10-21T07:25:38.222Z</time>
      </trkpt>
      <trkpt lat="43.92068" lon="2.02785">
        <ele>147.703683</ele>
        <time>2018-10-21T07:25:41.967Z</time>
      </trkpt>
      <trkpt lat="43.92071" lon="2.02778">
        <ele>147.653759</ele>
        <time>2018-10-21T07:25:43.035Z</time>
      </trkpt>
      <trkpt lat="43.92073" lon="2.02771">
        <ele>147.61372</ele>
        <time>2018-10-21T07:25:45.051Z</time>
      </trkpt>
      <trkpt lat="43.92076" lon="2.02753">
        <ele>147.781427</ele>
        <time>2018-10-21T07:25:48.783Z</time>
      </trkpt>
      <trkpt lat="43.92074" lon="2.02603">
        <ele>150.302245</ele>
        <time>2018-10-21T07:26:21.451Z</time>
      </trkpt>
      <trkpt lat="43.92093" lon="2.02603">
        <ele>150.753064</ele>
        <time>2018-10-21T07:26:27.505Z</time>
      </trkpt>
      <trkpt lat="43.92099" lon="2.026">
        <ele>150.890209</ele>
        <time>2018-10-21T07:26:30.352Z</time>
      </trkpt>
      <trkpt lat="43.92101" lon="2.02596">
        <ele>150.969563</ele>
        <time>2018-10-21T07:26:32.042Z</time>
      </trkpt>
      <trkpt lat="43.92101" lon="2.02521">
        <ele>152.451994</ele>
        <time>2018-10-21T07:26:52.025Z</time>
      </trkpt>
      <trkpt lat="43.92148" lon="2.024">
        <ele>155.887458</ele>
        <time>2018-10-21T07:27:30.686Z</time>
      </trkpt>
      <trkpt lat="43.92185" lon="2.02302">
        <ele>158.422911</ele>
        <time>2018-10-21T07:27:56.333Z</time>
      </trkpt>
      <trkpt lat="43.92196" lon="2.02274">
        <ele>158.930909</ele>
        <time>2018-10-21T07:28:03.483Z</time>
      </trkpt>
      <trkpt lat="43.92235" lon="2.02176">
        <ele>160.717369</ele>
        <time>2018-10-21T07:28:29.058Z</time>
      </trkpt>
      <trkpt lat="43.92243" lon="2.02158">
        <ele>161.059327</ele>
        <time>2018-10-21T07:28:33.996Z</time>
      </trkpt>
      <trkpt lat="43.92246" lon="2.0215">
        <ele>161.213345</ele>
        <time>2018-10-21T07:28:36.034Z</time>
      </trkpt>
      <trkpt lat="43.92272" lon="2.02108">
        <ele>162.054214</ele>
        <time>2018-10-21T07:28:47.396Z</time>
      </trkpt>
      <trkpt lat="43.92278" lon="2.02101">
        <ele>162.171166</ele>
        <time>2018-10-21T07:28:49.739Z</time>
      </trkpt>
      <trkpt lat="43.92281" lon="2.02099">
        <ele>162.211753</ele>
        <time>2018-10-21T07:28:50.543Z</time>
      </trkpt>
      <trkpt lat="43.92286" lon="2.02094">
        <ele>162.290625</ele>
        <time>2018-10-21T07:28:52.571Z</time>
      </trkpt>
      <trkpt lat="43.92309" lon="2.02076">
        <ele>162.663233</ele>
        <time>2018-10-21T07:28:59.940Z</time>
      </trkpt>
      <trkpt lat="43.92336" lon="2.02034">
        <ele>163.214106</ele>
        <time>2018-10-21T07:29:11.558Z</time>
      </trkpt>
      <trkpt lat="43.92463" lon="2.01758">
        <ele>165.768585</ele>
        <time>2018-10-21T07:30:14.437Z</time>
      </trkpt>
      <trkpt lat="43.92475" lon="2.01726">
        <ele>166.002966</ele>
        <time>2018-10-21T07:30:20.814Z</time>
      </trkpt>
      <trkpt lat="43.92476" lon="2.01724">
        <ele>166.020096</ele>
        <time>2018-10-21T07:30:21.258Z</time>
      </trkpt>
      <trkpt lat="43.92504" lon="2.01633">
        <ele>165.771785</ele>
        <time>2018-10-21T07:30:37.963Z</time>
      </trkpt>
      <trkpt lat="43.92526" lon="2.01576">
        <ele>165.535269</ele>
        <time>2018-10-21T07:30:47.062Z</time>
      </trkpt>
      <trkpt lat="43.92559" lon="2.01542">
        <ele>165.327515</ele>
        <time>2018-10-21T07:30:54.879Z</time>
      </trkpt>
      <trkpt lat="43.9257" lon="2.01537">
        <ele>165.268769</ele>
        <time>2018-10-21T07:30:57.685Z</time>
      </trkpt>
      <trkpt lat="43.9256" lon="2.01456">
        <ele>164.415459</ele>
        <time>2018-10-21T07:31:09.083Z</time>
      </trkpt>
      <trkpt lat="43.92544" lon="2.01372">
        <ele>163.278411</ele>
        <time>2018-10-21T07:31:20.760Z</time>
      </trkpt>
      <trkpt lat="43.9252" lon="2.01302">
        <ele>162.247427</ele>
        <time>2018-10-21T07:31:30.952Z</time>
      </trkpt>
      <trkpt lat="43.92518" lon="2.013">
        <ele>162.204188</ele>
        <time>2018-10-21T07:31:31.312Z</time>
      </trkpt>
      <trkpt lat="43.9252" lon="2.01293">
        <ele>162.098092</ele>
        <time>2018-10-21T07:31:32.374Z</time>
      </trkpt>
      <trkpt lat="43.92522" lon="2.01277">
        <ele>161.888696</ele>
        <time>2018-10-21T07:31:34.503Z</time>
      </trkpt>
      <trkpt lat="43.9252" lon="2.01259">
        <ele>161.626468</ele>
        <time>2018-10-21T07:31:36.981Z</time>
      </trkpt>
      <trkpt lat="43.9252" lon="2.0125">
        <ele>161.490584</ele>
        <time>2018-10-21T07:31:38.081Z</time>
      </trkpt>
      <trkpt lat="43.9251" lon="2.01134">
        <ele>159.762647</ele>
        <time>2018-10-21T07:31:53.586Z</time>
      </trkpt>
      <trkpt lat="43.9251" lon="2.01035">
        <ele>158.30256</ele>
        <time>2018-10-21T07:32:06.670Z</time>
      </trkpt>
      <trkpt lat="43.92512" lon="2.00999">
        <ele>157.916036</ele>
        <time>2018-10-21T07:32:11.516Z</time>
      </trkpt>
      <trkpt lat="43.92514" lon="2.00965">
        <ele>157.579047</ele>
        <time>2018-10-21T07:32:16.295Z</time>
      </trkpt>
      <trkpt lat="43.92527" lon="2.00856">
        <ele>156.50507</ele>
        <time>2018-10-21T07:32:31.950Z</time>
      </trkpt>
      <trkpt lat="43.92534" lon="2.00767">
        <ele>155.724077</ele>
        <time>2018-10-21T07:32:44.624Z</time>
      </trkpt>
      <trkpt lat="43.92544" lon="2.00677">
        <ele>155.478834</ele>
        <time>2018-10-21T07:32:58.893Z</time>
      </trkpt>
      <trkpt lat="43.92467" lon="2.0063">
        <ele>155.167118</ele>
        <time>2018-10-21T07:33:16.647Z</time>
      </trkpt>
      <trkpt lat="43.92472" lon="2.00599">
        <ele>155.100413</ele>
        <time>2018-10-21T07:33:22.224Z</time>
      </trkpt>
      <trkpt lat="43.92514" lon="2.0037">
        <ele>155.805947</ele>
        <time>2018-10-21T07:34:04.702Z</time>
      </trkpt>
      <trkpt lat="43.92566" lon="2.00235">
        <ele>156.271859</ele>
        <time>2018-10-21T07:34:33.735Z</time>
      </trkpt>
      <trkpt lat="43.92601" lon="2.00132">
        <ele>156.571148</ele>
        <time>2018-10-21T07:34:52.987Z</time>
      </trkpt>
      <trkpt lat="43.92611" lon="2.00087">
        <ele>156.392352</ele>
        <time>2018-10-21T07:35:00.594Z</time>
      </trkpt>
      <trkpt lat="43.92618" lon="2.00051">
        <ele>156.251424</ele>
        <time>2018-10-21T07:35:06.432Z</time>
      </trkpt>
      <trkpt lat="43.92621" lon="2.00032">
        <ele>156.174698</ele>
        <time>2018-10-21T07:35:09.673Z</time>
      </trkpt>
      <trkpt lat="43.92625" lon="2.00007">
        <ele>156.079429</ele>
        <time>2018-10-21T07:35:13.465Z</time>
      </trkpt>
      <trkpt lat="43.92634" lon="1.99799">
        <ele>155.258314</ele>
        <time>2018-10-21T07:35:44.463Z</time>
      </trkpt>
      <trkpt lat="43.92651" lon="1.99723">
        <ele>154.927625</ele>
        <time>2018-10-21T07:35:56.852Z</time>
      </trkpt>
      <trkpt lat="43.92742" lon="1.99519">
        <ele>154.311874</ele>
        <time>2018-10-21T07:36:34.783Z</time>
      </trkpt>
      <trkpt lat="43.92794" lon="1.99444">
        <ele>154.161329</ele>
        <time>2018-10-21T07:36:51.850Z</time>
      </trkpt>
      <trkpt lat="43.92901" lon="1.9925">
        <ele>154.298135</ele>
        <time>2018-10-21T07:37:33.022Z</time>
      </trkpt>
      <trkpt lat="43.92948" lon="1.99197">
        <ele>154.614026</ele>
        <time>2018-10-21T07:37:47.988Z</time>
      </trkpt>
      <trkpt lat="43.92963" lon="1.99168">
        <ele>154.747885</ele>
        <time>2018-10-21T07:37:54.468Z</time>
      </trkpt>
      <trkpt lat="43.9298" lon="1.99095">
        <ele>155.04126</ele>
        <time>2018-10-21T07:38:08.918Z</time>
      </trkpt>
      <trkpt lat="43.93003" lon="1.98921">
        <ele>156.069249</ele>
        <time>2018-10-21T07:38:43.203Z</time>
      </trkpt>
      <trkpt lat="43.93019" lon="1.98834">
        <ele>156.642953</ele>
        <time>2018-10-21T07:39:00.931Z</time>
      </trkpt>
      <trkpt lat="43.93069" lon="1.98673">
        <ele>156.758951</ele>
        <time>2018-10-21T07:39:32.634Z</time>
      </trkpt>
      <trkpt lat="43.93094" lon="1.98617">
        <ele>156.748043</ele>
        <time>2018-10-21T07:39:42.636Z</time>
      </trkpt>
      <trkpt lat="43.93104" lon="1.98596">
        <ele>156.743837</ele>
        <time>2018-10-21T07:39:46.591Z</time>
      </trkpt>
      <trkpt lat="43.93084" lon="1.98577">
        <ele>156.460737</ele>
        <time>2018-10-21T07:39:51.129Z</time>
      </trkpt>
      <trkpt lat="43.93073" lon="1.98561">
        <ele>156.242727</ele>
        <time>2018-10-21T07:39:54.158Z</time>
      </trkpt>
      <trkpt lat="43.93058" lon="1.98518">
        <ele>155.770645</ele>
        <time>2018-10-21T07:40:00.515Z</time>
      </trkpt>
      <trkpt lat="43.93016" lon="1.98391">
        <ele>154.396126</ele>
        <time>2018-10-21T07:40:18.607Z</time>
      </trkpt>
      <trkpt lat="43.93015" lon="1.98379">
        <ele>154.283741</ele>
        <time>2018-10-21T07:40:20.100Z</time>
      </trkpt>
      <trkpt lat="43.93032" lon="1.98059">
        <ele>152.725421</ele>
        <time>2018-10-21T07:41:07.189Z</time>
      </trkpt>
      <trkpt lat="43.93027" lon="1.98019">
        <ele>152.571647</ele>
        <time>2018-10-21T07:41:13.337Z</time>
      </trkpt>
      <trkpt lat="43.93022" lon="1.97987">
        <ele>152.447434</ele>
        <time>2018-10-21T07:41:18.252Z</time>
      </trkpt>
      <trkpt lat="43.93007" lon="1.9794">
        <ele>152.249045</ele>
        <time>2018-10-21T07:41:25.995Z</time>
      </trkpt>
      <trkpt lat="43.92953" lon="1.9783">
        <ele>151.720285</ele>
        <time>2018-10-21T07:41:45.238Z</time>
      </trkpt>
      <trkpt lat="43.92943" lon="1.97798">
        <ele>151.57642</ele>
        <time>2018-10-21T07:41:50.225Z</time>
      </trkpt>
      <trkpt lat="43.92912" lon="1.97588">
        <ele>151.0686</ele>
        <time>2018-10-21T07:42:21.963Z</time>
      </trkpt>
      <trkpt lat="43.92911" lon="1.97585">
        <ele>151.071089</ele>
        <time>2018-10-21T07:42:22.465Z</time>
      </trkpt>
      <trkpt lat="43.92911" lon="1.97576">
        <ele>151.076693</ele>
        <time>2018-10-21T07:42:23.934Z</time>
      </trkpt>
      <trkpt lat="43.92902" lon="1.97366">
        <ele>151.340896</ele>
        <time>2018-10-21T07:43:01.827Z</time>
      </trkpt>
      <trkpt lat="43.92902" lon="1.97357">
        <ele>151.368171</ele>
        <time>2018-10-21T07:43:03.617Z</time>
      </trkpt>
      <trkpt lat="43.929" lon="1.97343">
        <ele>151.409981</ele>
        <time>2018-10-21T07:43:06.065Z</time>
      </trkpt>
      <trkpt lat="43.92899" lon="1.9732">
        <ele>151.47835</ele>
        <time>2018-10-21T07:43:10.301Z</time>
      </trkpt>
      <trkpt lat="43.92896" lon="1.97276">
        <ele>151.612107</ele>
        <time>2018-10-21T07:43:18.390Z</time>
      </trkpt>
      <trkpt lat="43.92876" lon="1.97216">
        <ele>151.811004</ele>
        <time>2018-10-21T07:43:30.267Z</time>
      </trkpt>
      <trkpt lat="43.92883" lon="1.97136">
        <ele>151.880647</ele>
        <time>2018-10-21T07:43:44.333Z</time>
      </trkpt>
      <trkpt lat="43.92871" lon="1.97067">
        <ele>151.773294</ele>
        <time>2018-10-21T07:43:55.846Z</time>
      </trkpt>
      <trkpt lat="43.92891" lon="1.96919">
        <ele>151.550962</ele>
        <time>2018-10-21T07:44:19.260Z</time>
      </trkpt>
      <trkpt lat="43.92907" lon="1.96832">
        <ele>151.441709</ele>
        <time>2018-10-21T07:44:33.588Z</time>
      </trkpt>
      <trkpt lat="43.92917" lon="1.96783">
        <ele>151.381088</ele>
        <time>2018-10-21T07:44:41.747Z</time>
      </trkpt>
      <trkpt lat="43.92919" lon="1.9678">
        <ele>151.375603</ele>
        <time>2018-10-21T07:44:42.491Z</time>
      </trkpt>
      <trkpt lat="43.92928" lon="1.96772">
        <ele>151.35778</ele>
        <time>2018-10-21T07:44:44.925Z</time>
      </trkpt>
      <trkpt lat="43.92933" lon="1.96769">
        <ele>151.34864</ele>
        <time>2018-10-21T07:44:46.145Z</time>
      </trkpt>
      <trkpt lat="43.92938" lon="1.96773">
        <ele>151.339468</ele>
        <time>2018-10-21T07:44:47.438Z</time>
      </trkpt>
      <trkpt lat="43.92994" lon="1.96804">
        <ele>151.31116</ele>
        <time>2018-10-21T07:45:01.599Z</time>
      </trkpt>
      <trkpt lat="43.93012" lon="1.96808">
        <ele>151.37661</ele>
        <time>2018-10-21T07:45:06.005Z</time>
      </trkpt>
      <trkpt lat="43.93022" lon="1.96809">
        <ele>151.411365</ele>
        <time>2018-10-21T07:45:08.371Z</time>
      </trkpt>
      <trkpt lat="43.93053" lon="1.96815">
        <ele>151.523242</ele>
        <time>2018-10-21T07:45:16.066Z</time>
      </trkpt>
      <trkpt lat="43.9318" lon="1.9684">
        <ele>152.001245</ele>
        <time>2018-10-21T07:45:48.107Z</time>
      </trkpt>
      <trkpt lat="43.93276" lon="1.96868">
        <ele>152.445503</ele>
        <time>2018-10-21T07:46:12.840Z</time>
      </trkpt>
      <trkpt lat="43.93332" lon="1.96883">
        <ele>152.702613</ele>
        <time>2018-10-21T07:46:27.027Z</time>
      </trkpt>
      <trkpt lat="43.93461" lon="1.96878">
        <ele>153.207914</ele>
        <time>2018-10-21T07:46:58.780Z</time>
      </trkpt>
      <trkpt lat="43.93582" lon="1.96853">
        <ele>153.663161</ele>
        <time>2018-10-21T07:47:28.898Z</time>
      </trkpt>
      <trkpt lat="43.93686" lon="1.96854">
        <ele>154.033559</ele>
        <time>2018-10-21T07:47:54.444Z</time>
      </trkpt>
      <trkpt lat="43.93844" lon="1.9681">
        <ele>154.778074</ele>
        <time>2018-10-21T07:48:34.379Z</time>
      </trkpt>
      <trkpt lat="43.9387" lon="1.96813">
        <ele>154.89929</ele>
        <time>2018-10-21T07:48:40.966Z</time>
      </trkpt>
      <trkpt lat="43.93875" lon="1.96818">
        <ele>154.95902</ele>
        <time>2018-10-21T07:48:42.701Z</time>
      </trkpt>
      <trkpt lat="43.93938" lon="1.96747">
        <ele>155.703022</ele>
        <time>2018-10-21T07:49:03.997Z</time>
      </trkpt>
      <trkpt lat="43.93974" lon="1.96702">
        <ele>156.143834</ele>
        <time>2018-10-21T07:49:17.026Z</time>
      </trkpt>
      <trkpt lat="43.93996" lon="1.96664">
        <ele>156.470604</ele>
        <time>2018-10-21T07:49:26.920Z</time>
      </trkpt>
      <trkpt lat="43.94039" lon="1.96515">
        <ele>157.694321</ele>
        <time>2018-10-21T07:49:59.503Z</time>
      </trkpt>
      <trkpt lat="43.94041" lon="1.96471">
        <ele>158.032861</ele>
        <time>2018-10-21T07:50:08.081Z</time>
      </trkpt>
      <trkpt lat="43.94038" lon="1.9644">
        <ele>158.275762</ele>
        <time>2018-10-21T07:50:14.091Z</time>
      </trkpt>
      <trkpt lat="43.94041" lon="1.9641">
        <ele>158.485422</ele>
        <time>2018-10-21T07:50:20.035Z</time>
      </trkpt>
      <trkpt lat="43.94079" lon="1.96348">
        <ele>158.579444</ele>
        <time>2018-10-21T07:50:34.859Z</time>
      </trkpt>
      <trkpt lat="43.94083" lon="1.96337">
        <ele>158.593833</ele>
        <time>2018-10-21T07:50:37.292Z</time>
      </trkpt>
      <trkpt lat="43.94077" lon="1.96332">
        <ele>158.605481</ele>
        <time>2018-10-21T07:50:38.806Z</time>
      </trkpt>
      <trkpt lat="43.94045" lon="1.96273">
        <ele>158.691032</ele>
        <time>2018-10-21T07:50:50.925Z</time>
      </trkpt>
      <trkpt lat="43.93973" lon="1.96169">
        <ele>158.398279</ele>
        <time>2018-10-21T07:51:12.822Z</time>
      </trkpt>
      <trkpt lat="43.93901" lon="1.9601">
        <ele>157.467663</ele>
        <time>2018-10-21T07:51:39.422Z</time>
      </trkpt>
      <trkpt lat="43.93829" lon="1.95887">
        <ele>156.460126</ele>
        <time>2018-10-21T07:52:01.565Z</time>
      </trkpt>
      <trkpt lat="43.93797" lon="1.9582">
        <ele>155.961715</ele>
        <time>2018-10-21T07:52:13.001Z</time>
      </trkpt>
      <trkpt lat="43.93767" lon="1.95754">
        <ele>155.76194</ele>
        <time>2018-10-21T07:52:24.245Z</time>
      </trkpt>
      <trkpt lat="43.93659" lon="1.956">
        <ele>155.45477</ele>
        <time>2018-10-21T07:52:57.575Z</time>
      </trkpt>
      <trkpt lat="43.93625" lon="1.95509">
        <ele>155.724366</ele>
        <time>2018-10-21T07:53:15.309Z</time>
      </trkpt>
      <trkpt lat="43.93616" lon="1.95476">
        <ele>155.819896</ele>
        <time>2018-10-21T07:53:21.620Z</time>
      </trkpt>
      <trkpt lat="43.93611" lon="1.9543">
        <ele>155.942608</ele>
        <time>2018-10-21T07:53:29.796Z</time>
      </trkpt>
      <trkpt lat="43.93612" lon="1.95402">
        <ele>156.008281</ele>
        <time>2018-10-21T07:53:34.923Z</time>
      </trkpt>
      <trkpt lat="43.93612" lon="1.95385">
        <ele>156.035838</ele>
        <time>2018-10-21T07:53:37.889Z</time>
      </trkpt>
      <trkpt lat="43.9359" lon="1.95287">
        <ele>156.202102</ele>
        <time>2018-10-21T07:53:55.906Z</time>
      </trkpt>
      <trkpt lat="43.93531" lon="1.95122">
        <ele>156.194788</ele>
        <time>2018-10-21T07:54:25.116Z</time>
      </trkpt>
      <trkpt lat="43.93528" lon="1.95113">
        <ele>156.161254</ele>
        <time>2018-10-21T07:54:26.735Z</time>
      </trkpt>
      <trkpt lat="43.93527" lon="1.95107">
        <ele>156.141015</ele>
        <time>2018-10-21T07:54:27.547Z</time>
      </trkpt>
      <trkpt lat="43.93527" lon="1.94939">
        <ele>155.595334</ele>
        <time>2018-10-21T07:54:51.999Z</time>
      </trkpt>
      <trkpt lat="43.93525" lon="1.94923">
        <ele>155.608648</ele>
        <time>2018-10-21T07:54:54.219Z</time>
      </trkpt>
      <trkpt lat="43.93521" lon="1.94874">
        <ele>155.688602</ele>
        <time>2018-10-21T07:55:01.699Z</time>
      </trkpt>
      <trkpt lat="43.9352" lon="1.94818">
        <ele>155.779664</ele>
        <time>2018-10-21T07:55:10.949Z</time>
      </trkpt>
      <trkpt lat="43.93523" lon="1.94787">
        <ele>155.831588</ele>
        <time>2018-10-21T07:55:16.358Z</time>
      </trkpt>
      <trkpt lat="43.93533" lon="1.94742">
        <ele>155.908255</ele>
        <time>2018-10-21T07:55:24.728Z</time>
      </trkpt>
      <trkpt lat="43.93541" lon="1.94713">
        <ele>155.958487</ele>
        <time>2018-10-21T07:55:30.305Z</time>
      </trkpt>
      <trkpt lat="43.93546" lon="1.94694">
        <ele>155.991208</ele>
        <time>2018-10-21T07:55:33.907Z</time>
      </trkpt>
      <trkpt lat="43.93551" lon="1.94672">
        <ele>156.073863</ele>
        <time>2018-10-21T07:55:38.248Z</time>
      </trkpt>
      <trkpt lat="43.93562" lon="1.94642">
        <ele>156.203181</ele>
        <time>2018-10-21T07:55:44.420Z</time>
      </trkpt>
      <trkpt lat="43.93594" lon="1.9457">
        <ele>156.521432</ele>
        <time>2018-10-21T07:55:59.991Z</time>
      </trkpt>
      <trkpt lat="43.93613" lon="1.94527">
        <ele>156.708679</ele>
        <time>2018-10-21T07:56:08.744Z</time>
      </trkpt>
      <trkpt lat="43.93624" lon="1.94505">
        <ele>156.809124</ele>
        <time>2018-10-21T07:56:13.468Z</time>
      </trkpt>
      <trkpt lat="43.93634" lon="1.94484">
        <ele>156.904681</ele>
        <time>2018-10-21T07:56:17.355Z</time>
      </trkpt>
      <trkpt lat="43.93668" lon="1.94365">
        <ele>156.83729</ele>
        <time>2018-10-21T07:56:37.672Z</time>
      </trkpt>
      <trkpt lat="43.93672" lon="1.94363">
        <ele>156.832903</ele>
        <time>2018-10-21T07:56:38.453Z</time>
      </trkpt>
      <trkpt lat="43.93672" lon="1.94353">
        <ele>156.824783</ele>
        <time>2018-10-21T07:56:39.923Z</time>
      </trkpt>
      <trkpt lat="43.93673" lon="1.94335">
        <ele>156.810218</ele>
        <time>2018-10-21T07:56:42.875Z</time>
      </trkpt>
      <trkpt lat="43.93674" lon="1.94317">
        <ele>156.796269</ele>
        <time>2018-10-21T07:56:45.685Z</time>
      </trkpt>
      <trkpt lat="43.93673" lon="1.94298">
        <ele>156.781056</ele>
        <time>2018-10-21T07:56:48.475Z</time>
      </trkpt>
      <trkpt lat="43.93673" lon="1.94292">
        <ele>156.776482</ele>
        <time>2018-10-21T07:56:49.381Z</time>
      </trkpt>
      <trkpt lat="43.93673" lon="1.94289">
        <ele>156.774109</ele>
        <time>2018-10-21T07:56:49.907Z</time>
      </trkpt>
      <trkpt lat="43.93671" lon="1.94259">
        <ele>156.750523</ele>
        <time>2018-10-21T07:56:54.656Z</time>
      </trkpt>
      <trkpt lat="43.9367" lon="1.94242">
        <ele>156.736616</ele>
        <time>2018-10-21T07:56:57.380Z</time>
      </trkpt>
      <trkpt lat="43.93669" lon="1.94229">
        <ele>156.755987</ele>
        <time>2018-10-21T07:56:59.622Z</time>
      </trkpt>
      <trkpt lat="43.93662" lon="1.94189">
        <ele>156.828205</ele>
        <time>2018-10-21T07:57:06.140Z</time>
      </trkpt>
      <trkpt lat="43.93658" lon="1.94178">
        <ele>156.847548</ele>
        <time>2018-10-21T07:57:08.109Z</time>
      </trkpt>
      <trkpt lat="43.93656" lon="1.94172">
        <ele>156.85939</ele>
        <time>2018-10-21T07:57:09.225Z</time>
      </trkpt>
      <trkpt lat="43.93629" lon="1.94129">
        <ele>156.958789</ele>
        <time>2018-10-21T07:57:18.545Z</time>
      </trkpt>
      <trkpt lat="43.93553" lon="1.94051">
        <ele>157.19046</ele>
        <time>2018-10-21T07:57:41.417Z</time>
      </trkpt>
      <trkpt lat="43.93502" lon="1.93982">
        <ele>157.40852</ele>
        <time>2018-10-21T07:57:58.374Z</time>
      </trkpt>
      <trkpt lat="43.9346" lon="1.93906">
        <ele>157.619525</ele>
        <time>2018-10-21T07:58:14.706Z</time>
      </trkpt>
      <trkpt lat="43.93423" lon="1.93814">
        <ele>157.601933</ele>
        <time>2018-10-21T07:58:31.877Z</time>
      </trkpt>
      <trkpt lat="43.93407" lon="1.93768">
        <ele>157.50359</ele>
        <time>2018-10-21T07:58:39.826Z</time>
      </trkpt>
      <trkpt lat="43.93391" lon="1.93727">
        <ele>157.4122</ele>
        <time>2018-10-21T07:58:46.997Z</time>
      </trkpt>
      <trkpt lat="43.93374" lon="1.93684">
        <ele>157.318422</ele>
        <time>2018-10-21T07:58:54.237Z</time>
      </trkpt>
      <trkpt lat="43.93331" lon="1.93569">
        <ele>156.733462</ele>
        <time>2018-10-21T07:59:13.029Z</time>
      </trkpt>
      <trkpt lat="43.93327" lon="1.9356">
        <ele>156.67277</ele>
        <time>2018-10-21T07:59:14.504Z</time>
      </trkpt>
      <trkpt lat="43.93231" lon="1.93304">
        <ele>154.886351</ele>
        <time>2018-10-21T07:59:55.187Z</time>
      </trkpt>
      <trkpt lat="43.93219" lon="1.93273">
        <ele>154.654695</ele>
        <time>2018-10-21T08:00:00.043Z</time>
      </trkpt>
      <trkpt lat="43.93145" lon="1.93076">
        <ele>153.307509</ele>
        <time>2018-10-21T08:00:31.185Z</time>
      </trkpt>
      <trkpt lat="43.9314" lon="1.93063">
        <ele>153.223438</ele>
        <time>2018-10-21T08:00:33.296Z</time>
      </trkpt>
      <trkpt lat="43.93136" lon="1.93048">
        <ele>153.134141</ele>
        <time>2018-10-21T08:00:35.458Z</time>
      </trkpt>
      <trkpt lat="43.93113" lon="1.92961">
        <ele>152.691228</ele>
        <time>2018-10-21T08:00:49.234Z</time>
      </trkpt>
      <trkpt lat="43.93089" lon="1.9286">
        <ele>152.609228</ele>
        <time>2018-10-21T08:01:05.443Z</time>
      </trkpt>
      <trkpt lat="43.93087" lon="1.92853">
        <ele>152.603478</ele>
        <time>2018-10-21T08:01:06.671Z</time>
      </trkpt>
      <trkpt lat="43.93079" lon="1.92819">
        <ele>152.575635</ele>
        <time>2018-10-21T08:01:12.566Z</time>
      </trkpt>
      <trkpt lat="43.93058" lon="1.92716">
        <ele>152.567563</ele>
        <time>2018-10-21T08:01:30.301Z</time>
      </trkpt>
      <trkpt lat="43.9303" lon="1.92486">
        <ele>153.070963</ele>
        <time>2018-10-21T08:02:10.242Z</time>
      </trkpt>
      <trkpt lat="43.93009" lon="1.92382">
        <ele>153.226577</ele>
        <time>2018-10-21T08:02:28.239Z</time>
      </trkpt>
      <trkpt lat="43.9288" lon="1.91976">
        <ele>153.671397</ele>
        <time>2018-10-21T08:03:40.926Z</time>
      </trkpt>
      <trkpt lat="43.92876" lon="1.91964">
        <ele>153.681117</ele>
        <time>2018-10-21T08:03:42.887Z</time>
      </trkpt>
      <trkpt lat="43.92843" lon="1.91864">
        <ele>153.766741</ele>
        <time>2018-10-21T08:04:01.178Z</time>
      </trkpt>
      <trkpt lat="43.92772" lon="1.91645">
        <ele>153.885872</ele>
        <time>2018-10-21T08:04:40.181Z</time>
      </trkpt>
      <trkpt lat="43.9276" lon="1.91595">
        <ele>153.906231</ele>
        <time>2018-10-21T08:04:48.870Z</time>
      </trkpt>
      <trkpt lat="43.92758" lon="1.91577">
        <ele>153.9134</ele>
        <time>2018-10-21T08:04:51.592Z</time>
      </trkpt>
      <trkpt lat="43.92757" lon="1.91562">
        <ele>153.90878</ele>
        <time>2018-10-21T08:04:54.113Z</time>
      </trkpt>
      <trkpt lat="43.92752" lon="1.91527">
        <ele>153.886315</ele>
        <time>2018-10-21T08:04:59.685Z</time>
      </trkpt>
      <trkpt lat="43.9274" lon="1.91505">
        <ele>153.868714</ele>
        <time>2018-10-21T08:05:04.230Z</time>
      </trkpt>
      <trkpt lat="43.92739" lon="1.91503">
        <ele>153.866786</ele>
        <time>2018-10-21T08:05:04.895Z</time>
      </trkpt>
      <trkpt lat="43.92738" lon="1.91502">
        <ele>153.865844</ele>
        <time>2018-10-21T08:05:05.114Z</time>
      </trkpt>
      <trkpt lat="43.92732" lon="1.91496">
        <ele>153.859725</ele>
        <time>2018-10-21T08:05:06.437Z</time>
      </trkpt>
      <trkpt lat="43.92729" lon="1.91496">
        <ele>153.857072</ele>
        <time>2018-10-21T08:05:07.085Z</time>
      </trkpt>
      <trkpt lat="43.92731" lon="1.91424">
        <ele>153.811946</ele>
        <time>2018-10-21T08:05:18.545Z</time>
      </trkpt>
      <trkpt lat="43.92737" lon="1.91366">
        <ele>153.774924</ele>
        <time>2018-10-21T08:05:27.797Z</time>
      </trkpt>
      <trkpt lat="43.92742" lon="1.91332">
        <ele>153.737093</ele>
        <time>2018-10-21T08:05:33.410Z</time>
      </trkpt>
      <trkpt lat="43.9275" lon="1.91316">
        <ele>153.685909</ele>
        <time>2018-10-21T08:05:36.387Z</time>
      </trkpt>
      <trkpt lat="43.92755" lon="1.91312">
        <ele>153.664859</ele>
        <time>2018-10-21T08:05:37.480Z</time>
      </trkpt>
      <trkpt lat="43.92762" lon="1.91308">
        <ele>153.637026</ele>
        <time>2018-10-21T08:05:39.161Z</time>
      </trkpt>
      <trkpt lat="43.92767" lon="1.913">
        <ele>153.60925</ele>
        <time>2018-10-21T08:05:40.788Z</time>
      </trkpt>
      <trkpt lat="43.92771" lon="1.91291">
        <ele>153.581448</ele>
        <time>2018-10-21T08:05:42.298Z</time>
      </trkpt>
      <trkpt lat="43.92772" lon="1.91281">
        <ele>153.553568</ele>
        <time>2018-10-21T08:05:43.854Z</time>
      </trkpt>
      <trkpt lat="43.92771" lon="1.91271">
        <ele>153.527594</ele>
        <time>2018-10-21T08:05:45.207Z</time>
      </trkpt>
      <trkpt lat="43.92768" lon="1.91263">
        <ele>153.501491</ele>
        <time>2018-10-21T08:05:46.743Z</time>
      </trkpt>
      <trkpt lat="43.92763" lon="1.91256">
        <ele>153.475665</ele>
        <time>2018-10-21T08:05:48.223Z</time>
      </trkpt>
      <trkpt lat="43.9276" lon="1.91248">
        <ele>153.452273</ele>
        <time>2018-10-21T08:05:49.475Z</time>
      </trkpt>
      <trkpt lat="43.92757" lon="1.91162">
        <ele>153.221708</ele>
        <time>2018-10-21T08:06:02.276Z</time>
      </trkpt>
      <trkpt lat="43.92756" lon="1.91151">
        <ele>153.193963</ele>
        <time>2018-10-21T08:06:03.785Z</time>
      </trkpt>
      <trkpt lat="43.92754" lon="1.91136">
        <ele>153.152275</ele>
        <time>2018-10-21T08:06:06.192Z</time>
      </trkpt>
      <trkpt lat="43.92753" lon="1.91131">
        <ele>153.139257</ele>
        <time>2018-10-21T08:06:06.852Z</time>
      </trkpt>
      <trkpt lat="43.92751" lon="1.91114">
        <ele>153.091968</ele>
        <time>2018-10-21T08:06:09.679Z</time>
      </trkpt>
      <trkpt lat="43.92749" lon="1.91003">
        <ele>153.064138</ele>
        <time>2018-10-21T08:06:26.788Z</time>
      </trkpt>
      <trkpt lat="43.92751" lon="1.90976">
        <ele>153.057427</ele>
        <time>2018-10-21T08:06:31.236Z</time>
      </trkpt>
      <trkpt lat="43.92753" lon="1.9096">
        <ele>153.053628</ele>
        <time>2018-10-21T08:06:33.788Z</time>
      </trkpt>
      <trkpt lat="43.92782" lon="1.90802">
        <ele>153.183821</ele>
        <time>2018-10-21T08:07:01.066Z</time>
      </trkpt>
      <trkpt lat="43.92776" lon="1.90557">
        <ele>153.530848</ele>
        <time>2018-10-21T08:07:42.980Z</time>
      </trkpt>
      <trkpt lat="43.92786" lon="1.90445">
        <ele>153.404316</ele>
        <time>2018-10-21T08:08:00.947Z</time>
      </trkpt>
      <trkpt lat="43.92787" lon="1.90437">
        <ele>153.395505</ele>
        <time>2018-10-21T08:08:02.407Z</time>
      </trkpt>
      <trkpt lat="43.92787" lon="1.90427">
        <ele>153.384157</ele>
        <time>2018-10-21T08:08:03.716Z</time>
      </trkpt>
      <trkpt lat="43.92786" lon="1.90383">
        <ele>153.334816</ele>
        <time>2018-10-21T08:08:10.140Z</time>
      </trkpt>
      <trkpt lat="43.92778" lon="1.90348">
        <ele>153.168931</ele>
        <time>2018-10-21T08:08:15.304Z</time>
      </trkpt>
      <trkpt lat="43.92757" lon="1.90313">
        <ele>152.888019</ele>
        <time>2018-10-21T08:08:21.651Z</time>
      </trkpt>
      <trkpt lat="43.9272" lon="1.90281">
        <ele>152.513545</ele>
        <time>2018-10-21T08:08:30.104Z</time>
      </trkpt>
      <trkpt lat="43.92688" lon="1.90258">
        <ele>152.201586</ele>
        <time>2018-10-21T08:08:36.986Z</time>
      </trkpt>
      <trkpt lat="43.92667" lon="1.90242">
        <ele>151.997745</ele>
        <time>2018-10-21T08:08:41.604Z</time>
      </trkpt>
      <trkpt lat="43.92609" lon="1.90198">
        <ele>151.744226</ele>
        <time>2018-10-21T08:08:54.924Z</time>
      </trkpt>
      <trkpt lat="43.92587" lon="1.90172">
        <ele>151.725729</ele>
        <time>2018-10-21T08:09:01.127Z</time>
      </trkpt>
      <trkpt lat="43.92584" lon="1.90163">
        <ele>151.720596</ele>
        <time>2018-10-21T08:09:02.747Z</time>
      </trkpt>
      <trkpt lat="43.9258" lon="1.90151">
        <ele>151.714418</ele>
        <time>2018-10-21T08:09:04.923Z</time>
      </trkpt>
      <trkpt lat="43.92577" lon="1.90117">
        <ele>151.698619</ele>
        <time>2018-10-21T08:09:10.444Z</time>
      </trkpt>
      <trkpt lat="43.92586" lon="1.90001">
        <ele>151.687354</ele>
        <time>2018-10-21T08:09:30.403Z</time>
      </trkpt>
      <trkpt lat="43.92585" lon="1.89992">
        <ele>151.701516</ele>
        <time>2018-10-21T08:09:31.973Z</time>
      </trkpt>
      <trkpt lat="43.92584" lon="1.8998">
        <ele>151.722182</ele>
        <time>2018-10-21T08:09:34.063Z</time>
      </trkpt>
      <trkpt lat="43.92569" lon="1.89855">
        <ele>151.932822</ele>
        <time>2018-10-21T08:09:55.362Z</time>
      </trkpt>
      <trkpt lat="43.92559" lon="1.89759">
        <ele>152.083582</ele>
        <time>2018-10-21T08:10:11.331Z</time>
      </trkpt>
      <trkpt lat="43.92534" lon="1.89537">
        <ele>152.307783</ele>
        <time>2018-10-21T08:10:47.882Z</time>
      </trkpt>
      <trkpt lat="43.92529" lon="1.89499">
        <ele>152.419688</ele>
        <time>2018-10-21T08:10:54.532Z</time>
      </trkpt>
      <trkpt lat="43.92515" lon="1.89438">
        <ele>152.647923</ele>
        <time>2018-10-21T08:11:06.076Z</time>
      </trkpt>
      <trkpt lat="43.92512" lon="1.89427">
        <ele>152.690512</ele>
        <time>2018-10-21T08:11:08.082Z</time>
      </trkpt>
      <trkpt lat="43.92511" lon="1.89417">
        <ele>152.724214</ele>
        <time>2018-10-21T08:11:09.745Z</time>
      </trkpt>
      <trkpt lat="43.92515" lon="1.89387">
        <ele>152.831479</ele>
        <time>2018-10-21T08:11:15.241Z</time>
      </trkpt>
      <trkpt lat="43.9252" lon="1.89377">
        <ele>152.874313</ele>
        <time>2018-10-21T08:11:17.231Z</time>
      </trkpt>
      <trkpt lat="43.92524" lon="1.89373">
        <ele>152.900838</ele>
        <time>2018-10-21T08:11:18.585Z</time>
      </trkpt>
      <trkpt lat="43.92528" lon="1.89366">
        <ele>152.927857</ele>
        <time>2018-10-21T08:11:19.883Z</time>
      </trkpt>
      <trkpt lat="43.9253" lon="1.89359">
        <ele>152.954712</ele>
        <time>2018-10-21T08:11:21.207Z</time>
      </trkpt>
      <trkpt lat="43.92531" lon="1.8935">
        <ele>152.987475</ele>
        <time>2018-10-21T08:11:23.015Z</time>
      </trkpt>
      <trkpt lat="43.92526" lon="1.89333">
        <ele>153.052295</ele>
        <time>2018-10-21T08:11:26.108Z</time>
      </trkpt>
      <trkpt lat="43.92521" lon="1.89327">
        <ele>153.084893</ele>
        <time>2018-10-21T08:11:27.772Z</time>
      </trkpt>
      <trkpt lat="43.92515" lon="1.89323">
        <ele>153.115984</ele>
        <time>2018-10-21T08:11:29.263Z</time>
      </trkpt>
      <trkpt lat="43.92509" lon="1.89322">
        <ele>153.147252</ele>
        <time>2018-10-21T08:11:30.824Z</time>
      </trkpt>
      <trkpt lat="43.92504" lon="1.8932">
        <ele>153.172742</ele>
        <time>2018-10-21T08:11:32.326Z</time>
      </trkpt>
      <trkpt lat="43.92483" lon="1.89296">
        <ele>153.224614</ele>
        <time>2018-10-21T08:11:38.597Z</time>
      </trkpt>
      <trkpt lat="43.92476" lon="1.89283">
        <ele>153.236934</ele>
        <time>2018-10-21T08:11:41.674Z</time>
      </trkpt>
      <trkpt lat="43.92468" lon="1.89262">
        <ele>153.255059</ele>
        <time>2018-10-21T08:11:45.634Z</time>
      </trkpt>
      <trkpt lat="43.92433" lon="1.89169">
        <ele>153.335876</ele>
        <time>2018-10-21T08:12:03.477Z</time>
      </trkpt>
      <trkpt lat="43.92429" lon="1.89161">
        <ele>153.343144</ele>
        <time>2018-10-21T08:12:04.962Z</time>
      </trkpt>
      <trkpt lat="43.92428" lon="1.89157">
        <ele>153.346398</ele>
        <time>2018-10-21T08:12:05.787Z</time>
      </trkpt>
      <trkpt lat="43.92393" lon="1.89086">
        <ele>153.251696</ele>
        <time>2018-10-21T08:12:18.481Z</time>
      </trkpt>
      <trkpt lat="43.92385" lon="1.89072">
        <ele>153.14555</ele>
        <time>2018-10-21T08:12:21.158Z</time>
      </trkpt>
      <trkpt lat="43.92384" lon="1.8907">
        <ele>153.132688</ele>
        <time>2018-10-21T08:12:21.463Z</time>
      </trkpt>
      <trkpt lat="43.92317" lon="1.88957">
        <ele>152.270475</ele>
        <time>2018-10-21T08:12:42.150Z</time>
      </trkpt>
      <trkpt lat="43.92265" lon="1.88872">
        <ele>151.902245</ele>
        <time>2018-10-21T08:12:57.436Z</time>
      </trkpt>
      <trkpt lat="43.92247" lon="1.88845">
        <ele>151.882473</ele>
        <time>2018-10-21T08:13:02.848Z</time>
      </trkpt>
      <trkpt lat="43.92204" lon="1.88781">
        <ele>151.835777</ele>
        <time>2018-10-21T08:13:16.861Z</time>
      </trkpt>
      <trkpt lat="43.92172" lon="1.88733">
        <ele>151.800371</ele>
        <time>2018-10-21T08:13:28.416Z</time>
      </trkpt>
      <trkpt lat="43.9217" lon="1.88728">
        <ele>151.7974</ele>
        <time>2018-10-21T08:13:29.376Z</time>
      </trkpt>
      <trkpt lat="43.92162" lon="1.88716">
        <ele>151.908566</ele>
        <time>2018-10-21T08:13:32.693Z</time>
      </trkpt>
      <trkpt lat="43.92129" lon="1.88655">
        <ele>152.515265</ele>
        <time>2018-10-21T08:13:46.901Z</time>
      </trkpt>
      <trkpt lat="43.92098" lon="1.88593">
        <ele>153.113496</ele>
        <time>2018-10-21T08:14:02.131Z</time>
      </trkpt>
      <trkpt lat="43.92006" lon="1.88399">
        <ele>154.84201</ele>
        <time>2018-10-21T08:14:47.104Z</time>
      </trkpt>
      <trkpt lat="43.9198" lon="1.88359">
        <ele>155.226566</ele>
        <time>2018-10-21T08:14:56.966Z</time>
      </trkpt>
      <trkpt lat="43.91874" lon="1.88231">
        <ele>156.108129</ele>
        <time>2018-10-21T08:15:32.455Z</time>
      </trkpt>
      <trkpt lat="43.91861" lon="1.88206">
        <ele>156.224428</ele>
        <time>2018-10-21T08:15:37.999Z</time>
      </trkpt>
      <trkpt lat="43.9183" lon="1.8813">
        <ele>156.445042</ele>
        <time>2018-10-21T08:15:52.451Z</time>
      </trkpt>
      <trkpt lat="43.91799" lon="1.88057">
        <ele>156.247128</ele>
        <time>2018-10-21T08:16:05.487Z</time>
      </trkpt>
      <trkpt lat="43.91764" lon="1.87993">
        <ele>156.061047</ele>
        <time>2018-10-21T08:16:17.387Z</time>
      </trkpt>
      <trkpt lat="43.91727" lon="1.8793">
        <ele>155.877096</ele>
        <time>2018-10-21T08:16:29.331Z</time>
      </trkpt>
      <trkpt lat="43.91712" lon="1.87905">
        <ele>155.814979</ele>
        <time>2018-10-21T08:16:34.217Z</time>
      </trkpt>
      <trkpt lat="43.9166" lon="1.87814">
        <ele>155.595715</ele>
        <time>2018-10-21T08:16:51.604Z</time>
      </trkpt>
      <trkpt lat="43.91607" lon="1.87722">
        <ele>155.467293</ele>
        <time>2018-10-21T08:17:10.471Z</time>
      </trkpt>
      <trkpt lat="43.9157" lon="1.87665">
        <ele>155.559892</ele>
        <time>2018-10-21T08:17:23.139Z</time>
      </trkpt>
      <trkpt lat="43.91523" lon="1.87587">
        <ele>155.6832</ele>
        <time>2018-10-21T08:17:40.103Z</time>
      </trkpt>
      <trkpt lat="43.9141" lon="1.87425">
        <ele>156.101555</ele>
        <time>2018-10-21T08:18:18.376Z</time>
      </trkpt>
      <trkpt lat="43.91395" lon="1.87405">
        <ele>156.159715</ele>
        <time>2018-10-21T08:18:23.182Z</time>
      </trkpt>
      <trkpt lat="43.91388" lon="1.87396">
        <ele>156.186217</ele>
        <time>2018-10-21T08:18:25.408Z</time>
      </trkpt>
      <trkpt lat="43.91366" lon="1.87369">
        <ele>156.232877</ele>
        <time>2018-10-21T08:18:31.999Z</time>
      </trkpt>
      <trkpt lat="43.91331" lon="1.87327">
        <ele>156.234871</ele>
        <time>2018-10-21T08:18:42.499Z</time>
      </trkpt>
      <trkpt lat="43.9127" lon="1.87237">
        <ele>156.238666</ele>
        <time>2018-10-21T08:19:02.169Z</time>
      </trkpt>
      <trkpt lat="43.91198" lon="1.87073">
        <ele>156.109254</ele>
        <time>2018-10-21T08:19:32.428Z</time>
      </trkpt>
      <trkpt lat="43.91167" lon="1.87019">
        <ele>156.048075</ele>
        <time>2018-10-21T08:19:43.550Z</time>
      </trkpt>
      <trkpt lat="43.91064" lon="1.86906">
        <ele>155.596492</ele>
        <time>2018-10-21T08:20:11.696Z</time>
      </trkpt>
      <trkpt lat="43.91024" lon="1.8685">
        <ele>155.372651</ele>
        <time>2018-10-21T08:20:23.229Z</time>
      </trkpt>
      <trkpt lat="43.90983" lon="1.86788">
        <ele>154.866668</ele>
        <time>2018-10-21T08:20:35.286Z</time>
      </trkpt>
      <trkpt lat="43.90911" lon="1.86667">
        <ele>153.759673</ele>
        <time>2018-10-21T08:20:56.960Z</time>
      </trkpt>
      <trkpt lat="43.90853" lon="1.86594">
        <ele>153.129011</ele>
        <time>2018-10-21T08:21:11.873Z</time>
      </trkpt>
      <trkpt lat="43.90847" lon="1.86584">
        <ele>153.060358</ele>
        <time>2018-10-21T08:21:13.588Z</time>
      </trkpt>
      <trkpt lat="43.90843" lon="1.86566">
        <ele>152.963751</ele>
        <time>2018-10-21T08:21:16.245Z</time>
      </trkpt>
      <trkpt lat="43.9084" lon="1.86548">
        <ele>152.861823</ele>
        <time>2018-10-21T08:21:19.035Z</time>
      </trkpt>
      <trkpt lat="43.90839" lon="1.86534">
        <ele>152.790468</ele>
        <time>2018-10-21T08:21:20.877Z</time>
      </trkpt>
      <trkpt lat="43.90837" lon="1.86438">
        <ele>152.27557</ele>
        <time>2018-10-21T08:21:35.272Z</time>
      </trkpt>
      <trkpt lat="43.90836" lon="1.86415">
        <ele>152.239699</ele>
        <time>2018-10-21T08:21:38.939Z</time>
      </trkpt>
      <trkpt lat="43.90832" lon="1.86388">
        <ele>152.279113</ele>
        <time>2018-10-21T08:21:43.083Z</time>
      </trkpt>
      <trkpt lat="43.90824" lon="1.86354">
        <ele>152.33247</ele>
        <time>2018-10-21T08:21:49.173Z</time>
      </trkpt>
      <trkpt lat="43.90794" lon="1.86271">
        <ele>152.467228</ele>
        <time>2018-10-21T08:22:04.441Z</time>
      </trkpt>
      <trkpt lat="43.90755" lon="1.86172">
        <ele>152.697026</ele>
        <time>2018-10-21T08:22:24.374Z</time>
      </trkpt>
      <trkpt lat="43.90734" lon="1.86115">
        <ele>152.918891</ele>
        <time>2018-10-21T08:22:35.522Z</time>
      </trkpt>
      <trkpt lat="43.90721" lon="1.85982">
        <ele>153.383071</ele>
        <time>2018-10-21T08:22:58.922Z</time>
      </trkpt>
      <trkpt lat="43.90707" lon="1.85947">
        <ele>153.534405</ele>
        <time>2018-10-21T08:23:05.757Z</time>
      </trkpt>
      <trkpt lat="43.90697" lon="1.85926">
        <ele>153.637043</ele>
        <time>2018-10-21T08:23:10.148Z</time>
      </trkpt>
      <trkpt lat="43.90676" lon="1.8588">
        <ele>153.859857</ele>
        <time>2018-10-21T08:23:19.774Z</time>
      </trkpt>
      <trkpt lat="43.90614" lon="1.85785">
        <ele>154.379826</ele>
        <time>2018-10-21T08:23:42.714Z</time>
      </trkpt>
      <trkpt lat="43.90573" lon="1.85671">
        <ele>154.912088</ele>
        <time>2018-10-21T08:24:05.158Z</time>
      </trkpt>
      <trkpt lat="43.90553" lon="1.85617">
        <ele>155.16588</ele>
        <time>2018-10-21T08:24:15.748Z</time>
      </trkpt>
      <trkpt lat="43.90548" lon="1.85605">
        <ele>155.22283</ele>
        <time>2018-10-21T08:24:18.341Z</time>
      </trkpt>
      <trkpt lat="43.90542" lon="1.85593">
        <ele>155.286942</ele>
        <time>2018-10-21T08:24:21.018Z</time>
      </trkpt>
      <trkpt lat="43.90538" lon="1.8558">
        <ele>155.347189</ele>
        <time>2018-10-21T08:24:23.746Z</time>
      </trkpt>
      <trkpt lat="43.90539" lon="1.85571">
        <ele>155.384622</ele>
        <time>2018-10-21T08:24:25.195Z</time>
      </trkpt>
      <trkpt lat="43.90531" lon="1.85547">
        <ele>155.494542</ele>
        <time>2018-10-21T08:24:29.929Z</time>
      </trkpt>
      <trkpt lat="43.90526" lon="1.85542">
        <ele>155.529354</ele>
        <time>2018-10-21T08:24:31.672Z</time>
      </trkpt>
      <trkpt lat="43.90519" lon="1.85539">
        <ele>155.56355</ele>
        <time>2018-10-21T08:24:33.314Z</time>
      </trkpt>
      <trkpt lat="43.90512" lon="1.85539">
        <ele>155.597688</ele>
        <time>2018-10-21T08:24:34.978Z</time>
      </trkpt>
      <trkpt lat="43.90507" lon="1.85541">
        <ele>155.62336</ele>
        <time>2018-10-21T08:24:36.400Z</time>
      </trkpt>
      <trkpt lat="43.90503" lon="1.85545">
        <ele>155.648918</ele>
        <time>2018-10-21T08:24:37.575Z</time>
      </trkpt>
      <trkpt lat="43.90497" lon="1.85544">
        <ele>155.675467</ele>
        <time>2018-10-21T08:24:38.950Z</time>
      </trkpt>
      <trkpt lat="43.90488" lon="1.85539">
        <ele>155.724557</ele>
        <time>2018-10-21T08:24:41.528Z</time>
      </trkpt>
      <trkpt lat="43.90481" lon="1.85532">
        <ele>155.764319</ele>
        <time>2018-10-21T08:24:43.280Z</time>
      </trkpt>
      <trkpt lat="43.90479" lon="1.85527">
        <ele>155.784315</ele>
        <time>2018-10-21T08:24:44.554Z</time>
      </trkpt>
      <trkpt lat="43.90478" lon="1.85509">
        <ele>155.847379</ele>
        <time>2018-10-21T08:24:47.533Z</time>
      </trkpt>
      <trkpt lat="43.90492" lon="1.8547">
        <ele>155.997133</ele>
        <time>2018-10-21T08:24:54.842Z</time>
      </trkpt>
      <trkpt lat="43.90494" lon="1.85452">
        <ele>156.058428</ele>
        <time>2018-10-21T08:24:58.047Z</time>
      </trkpt>
      <trkpt lat="43.90493" lon="1.85441">
        <ele>156.097325</ele>
        <time>2018-10-21T08:24:59.733Z</time>
      </trkpt>
      <trkpt lat="43.90484" lon="1.85413">
        <ele>156.203831</ele>
        <time>2018-10-21T08:25:05.089Z</time>
      </trkpt>
      <trkpt lat="43.9044" lon="1.85329">
        <ele>156.722544</ele>
        <time>2018-10-21T08:25:23.522Z</time>
      </trkpt>
      <trkpt lat="43.90414" lon="1.85279">
        <ele>157.123074</ele>
        <time>2018-10-21T08:25:34.809Z</time>
      </trkpt>
      <trkpt lat="43.90388" lon="1.85234">
        <ele>157.499899</ele>
        <time>2018-10-21T08:25:45.507Z</time>
      </trkpt>
      <trkpt lat="43.90364" lon="1.85197">
        <ele>157.819161</ele>
        <time>2018-10-21T08:25:54.890Z</time>
      </trkpt>
      <trkpt lat="43.90345" lon="1.85168">
        <ele>158.110293</ele>
        <time>2018-10-21T08:26:02.791Z</time>
      </trkpt>
      <trkpt lat="43.90332" lon="1.85149">
        <ele>158.361493</ele>
        <time>2018-10-21T08:26:08.184Z</time>
      </trkpt>
      <trkpt lat="43.90316" lon="1.85124">
        <ele>158.687383</ele>
        <time>2018-10-21T08:26:14.829Z</time>
      </trkpt>
      <trkpt lat="43.90295" lon="1.85084">
        <ele>159.171291</ele>
        <time>2018-10-21T08:26:25.019Z</time>
      </trkpt>
      <trkpt lat="43.90273" lon="1.85035">
        <ele>159.726803</ele>
        <time>2018-10-21T08:26:36.776Z</time>
      </trkpt>
      <trkpt lat="43.90271" lon="1.85025">
        <ele>159.829167</ele>
        <time>2018-10-21T08:26:39.072Z</time>
      </trkpt>
      <trkpt lat="43.90265" lon="1.85">
        <ele>160.090109</ele>
        <time>2018-10-21T08:26:44.379Z</time>
      </trkpt>
      <trkpt lat="43.90235" lon="1.84882">
        <ele>160.5305</ele>
        <time>2018-10-21T08:27:07.986Z</time>
      </trkpt>
      <trkpt lat="43.90197" lon="1.84775">
        <ele>160.667071</ele>
        <time>2018-10-21T08:27:26.779Z</time>
      </trkpt>
      <trkpt lat="43.9017" lon="1.84707">
        <ele>160.386381</ele>
        <time>2018-10-21T08:27:38.007Z</time>
      </trkpt>
      <trkpt lat="43.90112" lon="1.84598">
        <ele>159.223382</ele>
        <time>2018-10-21T08:27:56.253Z</time>
      </trkpt>
      <trkpt lat="43.90069" lon="1.84499">
        <ele>158.290832</ele>
        <time>2018-10-21T08:28:11.458Z</time>
      </trkpt>
      <trkpt lat="43.90012" lon="1.84417">
        <ele>157.486015</ele>
        <time>2018-10-21T08:28:27.078Z</time>
      </trkpt>
      <trkpt lat="43.89997" lon="1.84381">
        <ele>157.194235</ele>
        <time>2018-10-21T08:28:32.923Z</time>
      </trkpt>
      <trkpt lat="43.89941" lon="1.84195">
        <ele>156.862732</ele>
        <time>2018-10-21T08:29:04.419Z</time>
      </trkpt>
      <trkpt lat="43.89892" lon="1.84056">
        <ele>157.144683</ele>
        <time>2018-10-21T08:29:30.717Z</time>
      </trkpt>
      <trkpt lat="43.89851" lon="1.83898">
        <ele>157.949483</ele>
        <time>2018-10-21T08:30:01.288Z</time>
      </trkpt>
      <trkpt lat="43.8984" lon="1.83855">
        <ele>158.167701</ele>
        <time>2018-10-21T08:30:09.902Z</time>
      </trkpt>
      <trkpt lat="43.89813" lon="1.83752">
        <ele>158.695496</ele>
        <time>2018-10-21T08:30:30.164Z</time>
      </trkpt>
      <trkpt lat="43.89808" lon="1.83732">
        <ele>158.792267</ele>
        <time>2018-10-21T08:30:34.058Z</time>
      </trkpt>
      <trkpt lat="43.89794" lon="1.83673">
        <ele>159.092036</ele>
        <time>2018-10-21T08:30:45.091Z</time>
      </trkpt>
      <trkpt lat="43.89771" lon="1.83542">
        <ele>158.848225</ele>
        <time>2018-10-21T08:31:07.923Z</time>
      </trkpt>
      <trkpt lat="43.89734" lon="1.83254">
        <ele>156.298395</ele>
        <time>2018-10-21T08:31:47.673Z</time>
      </trkpt>
      <trkpt lat="43.89724" lon="1.83218">
        <ele>155.778995</ele>
        <time>2018-10-21T08:31:52.486Z</time>
      </trkpt>
      <trkpt lat="43.89718" lon="1.83194">
        <ele>155.444825</ele>
        <time>2018-10-21T08:31:55.538Z</time>
      </trkpt>
      <trkpt lat="43.89704" lon="1.83156">
        <ele>154.871623</ele>
        <time>2018-10-21T08:32:00.777Z</time>
      </trkpt>
      <trkpt lat="43.89701" lon="1.83148">
        <ele>154.734285</ele>
        <time>2018-10-21T08:32:01.783Z</time>
      </trkpt>
      <trkpt lat="43.89661" lon="1.83083">
        <ele>153.072362</ele>
        <time>2018-10-21T08:32:12.137Z</time>
      </trkpt>
      <trkpt lat="43.89643" lon="1.83066">
        <ele>152.494762</ele>
        <time>2018-10-21T08:32:15.623Z</time>
      </trkpt>
      <trkpt lat="43.89617" lon="1.8305">
        <ele>151.708399</ele>
        <time>2018-10-21T08:32:20.505Z</time>
      </trkpt>
      <trkpt lat="43.89611" lon="1.83043">
        <ele>151.492708</ele>
        <time>2018-10-21T08:32:21.804Z</time>
      </trkpt>
      <trkpt lat="43.89603" lon="1.83034">
        <ele>151.21331</ele>
        <time>2018-10-21T08:32:23.652Z</time>
      </trkpt>
      <trkpt lat="43.89564" lon="1.82921">
        <ele>148.82421</ele>
        <time>2018-10-21T08:32:38.892Z</time>
      </trkpt>
      <trkpt lat="43.89555" lon="1.82907">
        <ele>148.460119</ele>
        <time>2018-10-21T08:32:41.229Z</time>
      </trkpt>
      <trkpt lat="43.89542" lon="1.82889">
        <ele>148.006671</ele>
        <time>2018-10-21T08:32:44.211Z</time>
      </trkpt>
      <trkpt lat="43.8952" lon="1.82875">
        <ele>147.36449</ele>
        <time>2018-10-21T08:32:48.411Z</time>
      </trkpt>
      <trkpt lat="43.89491" lon="1.82867">
        <ele>146.602606</ele>
        <time>2018-10-21T08:32:53.547Z</time>
      </trkpt>
      <trkpt lat="43.8947" lon="1.8286">
        <ele>146.050584</ele>
        <time>2018-10-21T08:32:57.110Z</time>
      </trkpt>
      <trkpt lat="43.89458" lon="1.82851">
        <ele>145.697884</ele>
        <time>2018-10-21T08:32:59.458Z</time>
      </trkpt>
      <trkpt lat="43.89433" lon="1.82835">
        <ele>145.008166</ele>
        <time>2018-10-21T08:33:03.994Z</time>
      </trkpt>
      <trkpt lat="43.89412" lon="1.8282">
        <ele>144.432368</ele>
        <time>2018-10-21T08:33:07.869Z</time>
      </trkpt>
      <trkpt lat="43.89408" lon="1.82817">
        <ele>144.323107</ele>
        <time>2018-10-21T08:33:08.608Z</time>
      </trkpt>
      <trkpt lat="43.89406" lon="1.82817">
        <ele>144.279328</ele>
        <time>2018-10-21T08:33:08.899Z</time>
      </trkpt>
      <trkpt lat="43.89364" lon="1.82796">
        <ele>143.191162</ele>
        <time>2018-10-21T08:33:16.464Z</time>
      </trkpt>
      <trkpt lat="43.8934" lon="1.82782">
        <ele>142.542742</ele>
        <time>2018-10-21T08:33:20.945Z</time>
      </trkpt>
      <trkpt lat="43.89278" lon="1.8274">
        <ele>140.883456</ele>
        <time>2018-10-21T08:33:32.702Z</time>
      </trkpt>
      <trkpt lat="43.89192" lon="1.82681">
        <ele>139.611727</ele>
        <time>2018-10-21T08:33:50.142Z</time>
      </trkpt>
      <trkpt lat="43.89181" lon="1.82674">
        <ele>139.45205</ele>
        <time>2018-10-21T08:33:52.391Z</time>
      </trkpt>
      <trkpt lat="43.89137" lon="1.8264">
        <ele>138.777908</ele>
        <time>2018-10-21T08:34:02.444Z</time>
      </trkpt>
      <trkpt lat="43.89133" lon="1.82658">
        <ele>138.597799</ele>
        <time>2018-10-21T08:34:05.334Z</time>
      </trkpt>
      <trkpt lat="43.89132" lon="1.82678">
        <ele>138.465885</ele>
        <time>2018-10-21T08:34:08.348Z</time>
      </trkpt>
      <trkpt lat="43.89121" lon="1.82699">
        <ele>138.360462</ele>
        <time>2018-10-21T08:34:12.388Z</time>
      </trkpt>
      <trkpt lat="43.8892" lon="1.82794">
        <ele>137.252164</ele>
        <time>2018-10-21T08:34:57.704Z</time>
      </trkpt>
      <trkpt lat="43.88847" lon="1.82849">
        <ele>136.895673</ele>
        <time>2018-10-21T08:35:15.607Z</time>
      </trkpt>
      <trkpt lat="43.88814" lon="1.82862">
        <ele>136.747799</ele>
        <time>2018-10-21T08:35:23.167Z</time>
      </trkpt>
      <trkpt lat="43.88788" lon="1.82878">
        <ele>136.745579</ele>
        <time>2018-10-21T08:35:29.650Z</time>
      </trkpt>
      <trkpt lat="43.88788" lon="1.82907">
        <ele>136.758411</ele>
        <time>2018-10-21T08:35:34.242Z</time>
      </trkpt>
      <trkpt lat="43.88784" lon="1.82959">
        <ele>136.781529</ele>
        <time>2018-10-21T08:35:42.625Z</time>
      </trkpt>
      <trkpt lat="43.88755" lon="1.83119">
        <ele>136.860239</ele>
        <time>2018-10-21T08:36:10.270Z</time>
      </trkpt>
      <trkpt lat="43.88749" lon="1.83155">
        <ele>136.88271</ele>
        <time>2018-10-21T08:36:16.419Z</time>
      </trkpt>
      <trkpt lat="43.88747" lon="1.83163">
        <ele>136.888268</ele>
        <time>2018-10-21T08:36:17.962Z</time>
      </trkpt>
      <trkpt lat="43.8874" lon="1.83252">
        <ele>136.943278</ele>
        <time>2018-10-21T08:36:32.622Z</time>
      </trkpt>
      <trkpt lat="43.88742" lon="1.83381">
        <ele>136.965405</ele>
        <time>2018-10-21T08:36:53.219Z</time>
      </trkpt>
      <trkpt lat="43.88746" lon="1.83427">
        <ele>136.936627</ele>
        <time>2018-10-21T08:37:00.469Z</time>
      </trkpt>
      <trkpt lat="43.8875" lon="1.83461">
        <ele>136.915284</ele>
        <time>2018-10-21T08:37:05.849Z</time>
      </trkpt>
      <trkpt lat="43.88744" lon="1.83653">
        <ele>136.828429</ele>
        <time>2018-10-21T08:37:36.107Z</time>
      </trkpt>
      <trkpt lat="43.88758" lon="1.8382">
        <ele>136.801849</ele>
        <time>2018-10-21T08:38:03.320Z</time>
      </trkpt>
      <trkpt lat="43.88822" lon="1.84136">
        <ele>136.842082</ele>
        <time>2018-10-21T08:38:56.073Z</time>
      </trkpt>
      <trkpt lat="43.88867" lon="1.84268">
        <ele>136.924089</ele>
        <time>2018-10-21T08:39:19.863Z</time>
      </trkpt>
      <trkpt lat="43.88911" lon="1.84447">
        <ele>137.038416</ele>
        <time>2018-10-21T08:39:50.853Z</time>
      </trkpt>
      <trkpt lat="43.88945" lon="1.84632">
        <ele>137.105907</ele>
        <time>2018-10-21T08:40:21.954Z</time>
      </trkpt>
      <trkpt lat="43.88948" lon="1.84702">
        <ele>137.111447</ele>
        <time>2018-10-21T08:40:33.118Z</time>
      </trkpt>
      <trkpt lat="43.88947" lon="1.84717">
        <ele>137.112662</ele>
        <time>2018-10-21T08:40:35.515Z</time>
      </trkpt>
      <trkpt lat="43.88947" lon="1.84726">
        <ele>137.113368</ele>
        <time>2018-10-21T08:40:36.949Z</time>
      </trkpt>
      <trkpt lat="43.88945" lon="1.84759">
        <ele>137.116037</ele>
        <time>2018-10-21T08:40:42.307Z</time>
      </trkpt>
      <trkpt lat="43.88859" lon="1.85521">
        <ele>137.505672</ele>
        <time>2018-10-21T08:42:47.367Z</time>
      </trkpt>
      <trkpt lat="43.88857" lon="1.85552">
        <ele>137.603522</ele>
        <time>2018-10-21T08:42:52.780Z</time>
      </trkpt>
      <trkpt lat="43.88854" lon="1.85657">
        <ele>137.985511</ele>
        <time>2018-10-21T08:43:11.167Z</time>
      </trkpt>
      <trkpt lat="43.88853" lon="1.85663">
        <ele>138.008501</ele>
        <time>2018-10-21T08:43:12.438Z</time>
      </trkpt>
      <trkpt lat="43.88852" lon="1.85743">
        <ele>138.298328</ele>
        <time>2018-10-21T08:43:26.438Z</time>
      </trkpt>
      <trkpt lat="43.88853" lon="1.85827">
        <ele>138.585721</ele>
        <time>2018-10-21T08:43:41.441Z</time>
      </trkpt>
      <trkpt lat="43.88861" lon="1.8587">
        <ele>138.728797</ele>
        <time>2018-10-21T08:43:49.170Z</time>
      </trkpt>
      <trkpt lat="43.88925" lon="1.86104">
        <ele>139.46863</ele>
        <time>2018-10-21T08:44:32.358Z</time>
      </trkpt>
      <trkpt lat="43.88961" lon="1.86303">
        <ele>139.834673</ele>
        <time>2018-10-21T08:45:07.401Z</time>
      </trkpt>
      <trkpt lat="43.89" lon="1.86383">
        <ele>139.808928</ele>
        <time>2018-10-21T08:45:22.833Z</time>
      </trkpt>
      <trkpt lat="43.89" lon="1.86388">
        <ele>139.807537</ele>
        <time>2018-10-21T08:45:23.614Z</time>
      </trkpt>
      <trkpt lat="43.89" lon="1.86391">
        <ele>139.80686</ele>
        <time>2018-10-21T08:45:23.927Z</time>
      </trkpt>
      <trkpt lat="43.88984" lon="1.86416">
        <ele>139.797905</ele>
        <time>2018-10-21T08:45:29.450Z</time>
      </trkpt>
      <trkpt lat="43.88982" lon="1.86423">
        <ele>139.795747</ele>
        <time>2018-10-21T08:45:30.646Z</time>
      </trkpt>
      <trkpt lat="43.88981" lon="1.8643">
        <ele>139.793905</ele>
        <time>2018-10-21T08:45:31.613Z</time>
      </trkpt>
      <trkpt lat="43.8901" lon="1.86542">
        <ele>139.628354</ele>
        <time>2018-10-21T08:45:49.632Z</time>
      </trkpt>
      <trkpt lat="43.89026" lon="1.86566">
        <ele>139.558802</ele>
        <time>2018-10-21T08:45:54.475Z</time>
      </trkpt>
      <trkpt lat="43.89086" lon="1.8663">
        <ele>139.339729</ele>
        <time>2018-10-21T08:46:10.494Z</time>
      </trkpt>
      <trkpt lat="43.89109" lon="1.86677">
        <ele>139.241689</ele>
        <time>2018-10-21T08:46:19.428Z</time>
      </trkpt>
      <trkpt lat="43.89192" lon="1.86934">
        <ele>139.023041</ele>
        <time>2018-10-21T08:47:03.605Z</time>
      </trkpt>
      <trkpt lat="43.89209" lon="1.8705">
        <ele>138.997374</ele>
        <time>2018-10-21T08:47:22.487Z</time>
      </trkpt>
      <trkpt lat="43.89254" lon="1.87263">
        <ele>139.190608</ele>
        <time>2018-10-21T08:47:58.872Z</time>
      </trkpt>
      <trkpt lat="43.89258" lon="1.87289">
        <ele>139.230295</ele>
        <time>2018-10-21T08:48:03.333Z</time>
      </trkpt>
      <trkpt lat="43.8926" lon="1.87302">
        <ele>139.248782</ele>
        <time>2018-10-21T08:48:05.392Z</time>
      </trkpt>
      <trkpt lat="43.89278" lon="1.87441">
        <ele>139.642821</ele>
        <time>2018-10-21T08:48:29.690Z</time>
      </trkpt>
      <trkpt lat="43.89291" lon="1.87551">
        <ele>140.08566</ele>
        <time>2018-10-21T08:48:49.576Z</time>
      </trkpt>
      <trkpt lat="43.89303" lon="1.87653">
        <ele>140.406549</ele>
        <time>2018-10-21T08:49:08.367Z</time>
      </trkpt>
      <trkpt lat="43.89294" lon="1.87668">
        <ele>140.437659</ele>
        <time>2018-10-21T08:49:11.880Z</time>
      </trkpt>
      <trkpt lat="43.89269" lon="1.87718">
        <ele>140.530494</ele>
        <time>2018-10-21T08:49:22.080Z</time>
      </trkpt>
      <trkpt lat="43.8924" lon="1.87782">
        <ele>140.646374</ele>
        <time>2018-10-21T08:49:34.541Z</time>
      </trkpt>
      <trkpt lat="43.89234" lon="1.8779">
        <ele>140.663565</ele>
        <time>2018-10-21T08:49:36.239Z</time>
      </trkpt>
      <trkpt lat="43.89221" lon="1.87804">
        <ele>140.698668</ele>
        <time>2018-10-21T08:49:40.051Z</time>
      </trkpt>
      <trkpt lat="43.8921" lon="1.8781">
        <ele>140.724689</ele>
        <time>2018-10-21T08:49:42.809Z</time>
      </trkpt>
      <trkpt lat="43.892" lon="1.87809">
        <ele>140.637423</ele>
        <time>2018-10-21T08:49:44.823Z</time>
      </trkpt>
      <trkpt lat="43.8919" lon="1.87811">
        <ele>140.490125</ele>
        <time>2018-10-21T08:49:47.060Z</time>
      </trkpt>
      <trkpt lat="43.89181" lon="1.87816">
        <ele>140.344102</ele>
        <time>2018-10-21T08:49:49.019Z</time>
      </trkpt>
      <trkpt lat="43.89171" lon="1.87827">
        <ele>140.154277</ele>
        <time>2018-10-21T08:49:51.499Z</time>
      </trkpt>
      <trkpt lat="43.89165" lon="1.8784">
        <ele>139.983892</ele>
        <time>2018-10-21T08:49:53.845Z</time>
      </trkpt>
      <trkpt lat="43.89161" lon="1.87855">
        <ele>139.807146</ele>
        <time>2018-10-21T08:49:56.133Z</time>
      </trkpt>
      <trkpt lat="43.89161" lon="1.8787">
        <ele>139.65001</ele>
        <time>2018-10-21T08:49:58.120Z</time>
      </trkpt>
      <trkpt lat="43.89163" lon="1.87884">
        <ele>139.491731</ele>
        <time>2018-10-21T08:50:00.084Z</time>
      </trkpt>
      <trkpt lat="43.89168" lon="1.87898">
        <ele>139.316016</ele>
        <time>2018-10-21T08:50:02.318Z</time>
      </trkpt>
      <trkpt lat="43.89171" lon="1.87903">
        <ele>139.242965</ele>
        <time>2018-10-21T08:50:03.173Z</time>
      </trkpt>
      <trkpt lat="43.89175" lon="1.87908">
        <ele>139.16872</ele>
        <time>2018-10-21T08:50:04.100Z</time>
      </trkpt>
      <trkpt lat="43.89182" lon="1.87929">
        <ele>138.920123</ele>
        <time>2018-10-21T08:50:07.017Z</time>
      </trkpt>
      <trkpt lat="43.89183" lon="1.87955">
        <ele>138.641022</ele>
        <time>2018-10-21T08:50:10.297Z</time>
      </trkpt>
      <trkpt lat="43.89177" lon="1.8799">
        <ele>138.248054</ele>
        <time>2018-10-21T08:50:14.838Z</time>
      </trkpt>
      <trkpt lat="43.89161" lon="1.88052">
        <ele>136.826615</ele>
        <time>2018-10-21T08:50:22.804Z</time>
      </trkpt>
      <trkpt lat="43.8913" lon="1.88152">
        <ele>133.963797</ele>
        <time>2018-10-21T08:50:34.944Z</time>
      </trkpt>
      <trkpt lat="43.89102" lon="1.88223">
        <ele>131.842069</ele>
        <time>2018-10-21T08:50:43.971Z</time>
      </trkpt>
      <trkpt lat="43.89087" lon="1.88256">
        <ele>131.249392</ele>
        <time>2018-10-21T08:50:48.488Z</time>
      </trkpt>
      <trkpt lat="43.89032" lon="1.88382">
        <ele>130.000369</ele>
        <time>2018-10-21T08:51:07.975Z</time>
      </trkpt>
      <trkpt lat="43.88989" lon="1.88472">
        <ele>129.546991</ele>
        <time>2018-10-21T08:51:27.800Z</time>
      </trkpt>
      <trkpt lat="43.88802" lon="1.88877">
        <ele>132.801606</ele>
        <time>2018-10-21T08:52:59.384Z</time>
      </trkpt>
      <trkpt lat="43.88486" lon="1.89563">
        <ele>134.698695</ele>
        <time>2018-10-21T08:55:16.759Z</time>
      </trkpt>
      <trkpt lat="43.88456" lon="1.8962">
        <ele>134.849003</ele>
        <time>2018-10-21T08:55:28.771Z</time>
      </trkpt>
      <trkpt lat="43.88383" lon="1.89737">
        <ele>135.210123</ele>
        <time>2018-10-21T08:55:54.947Z</time>
      </trkpt>
      <trkpt lat="43.88343" lon="1.89793">
        <ele>135.428326</ele>
        <time>2018-10-21T08:56:08.247Z</time>
      </trkpt>
      <trkpt lat="43.8831" lon="1.89835">
        <ele>135.600134</ele>
        <time>2018-10-21T08:56:18.896Z</time>
      </trkpt>
      <trkpt lat="43.88304" lon="1.89841">
        <ele>135.629923</ele>
        <time>2018-10-21T08:56:20.838Z</time>
      </trkpt>
      <trkpt lat="43.88289" lon="1.89853">
        <ele>135.693927</ele>
        <time>2018-10-21T08:56:24.746Z</time>
      </trkpt>
      <trkpt lat="43.88282" lon="1.89856">
        <ele>135.725281</ele>
        <time>2018-10-21T08:56:26.825Z</time>
      </trkpt>
      <trkpt lat="43.88279" lon="1.89855">
        <ele>135.737876</ele>
        <time>2018-10-21T08:56:27.620Z</time>
      </trkpt>
      <trkpt lat="43.88275" lon="1.89854">
        <ele>135.750265</ele>
        <time>2018-10-21T08:56:28.426Z</time>
      </trkpt>
      <trkpt lat="43.88272" lon="1.89855">
        <ele>135.767107</ele>
        <time>2018-10-21T08:56:29.318Z</time>
      </trkpt>
      <trkpt lat="43.88265" lon="1.89859">
        <ele>135.801891</ele>
        <time>2018-10-21T08:56:31.000Z</time>
      </trkpt>
      <trkpt lat="43.88263" lon="1.89862">
        <ele>135.818978</ele>
        <time>2018-10-21T08:56:31.837Z</time>
      </trkpt>
      <trkpt lat="43.8826" lon="1.89866">
        <ele>135.838825</ele>
        <time>2018-10-21T08:56:32.821Z</time>
      </trkpt>
      <trkpt lat="43.88258" lon="1.89878">
        <ele>135.878697</ele>
        <time>2018-10-21T08:56:34.857Z</time>
      </trkpt>
      <trkpt lat="43.88259" lon="1.89883">
        <ele>135.898419</ele>
        <time>2018-10-21T08:56:35.904Z</time>
      </trkpt>
      <trkpt lat="43.88261" lon="1.89889">
        <ele>135.921003</ele>
        <time>2018-10-21T08:56:37.072Z</time>
      </trkpt>
      <trkpt lat="43.88267" lon="1.89898">
        <ele>135.965262</ele>
        <time>2018-10-21T08:56:39.271Z</time>
      </trkpt>
      <trkpt lat="43.88272" lon="1.899">
        <ele>135.987713</ele>
        <time>2018-10-21T08:56:40.369Z</time>
      </trkpt>
      <trkpt lat="43.88276" lon="1.899">
        <ele>136.009559</ele>
        <time>2018-10-21T08:56:41.438Z</time>
      </trkpt>
      <trkpt lat="43.88281" lon="1.89898">
        <ele>136.031529</ele>
        <time>2018-10-21T08:56:42.542Z</time>
      </trkpt>
      <trkpt lat="43.88284" lon="1.899">
        <ele>136.050783</ele>
        <time>2018-10-21T08:56:43.563Z</time>
      </trkpt>
      <trkpt lat="43.883" lon="1.8992">
        <ele>136.153321</ele>
        <time>2018-10-21T08:56:48.767Z</time>
      </trkpt>
      <trkpt lat="43.88306" lon="1.8993">
        <ele>136.199003</ele>
        <time>2018-10-21T08:56:51.012Z</time>
      </trkpt>
      <trkpt lat="43.88317" lon="1.89953">
        <ele>136.293563</ele>
        <time>2018-10-21T08:56:55.918Z</time>
      </trkpt>
      <trkpt lat="43.88406" lon="1.90162">
        <ele>136.882014</ele>
        <time>2018-10-21T08:57:37.642Z</time>
      </trkpt>
      <trkpt lat="43.88436" lon="1.90213">
        <ele>136.994844</ele>
        <time>2018-10-21T08:57:48.270Z</time>
      </trkpt>
      <trkpt lat="43.88448" lon="1.90233">
        <ele>137.040084</ele>
        <time>2018-10-21T08:57:52.614Z</time>
      </trkpt>
      <trkpt lat="43.88538" lon="1.90389">
        <ele>137.006692</ele>
        <time>2018-10-21T08:58:24.519Z</time>
      </trkpt>
      <trkpt lat="43.88568" lon="1.90433">
        <ele>136.987298</ele>
        <time>2018-10-21T08:58:34.158Z</time>
      </trkpt>
      <trkpt lat="43.88591" lon="1.9047">
        <ele>136.886385</ele>
        <time>2018-10-21T08:58:41.769Z</time>
      </trkpt>
      <trkpt lat="43.88689" lon="1.90573">
        <ele>136.532327</ele>
        <time>2018-10-21T08:59:08.282Z</time>
      </trkpt>
      <trkpt lat="43.8872" lon="1.90624">
        <ele>136.114669</ele>
        <time>2018-10-21T08:59:17.925Z</time>
      </trkpt>
      <trkpt lat="43.8876" lon="1.90714">
        <ele>135.12527</ele>
        <time>2018-10-21T08:59:31.965Z</time>
      </trkpt>
      <trkpt lat="43.88759" lon="1.90716">
        <ele>135.103211</ele>
        <time>2018-10-21T08:59:32.242Z</time>
      </trkpt>
      <trkpt lat="43.88759" lon="1.90717">
        <ele>135.09102</ele>
        <time>2018-10-21T08:59:32.397Z</time>
      </trkpt>
      <trkpt lat="43.8876" lon="1.9072">
        <ele>135.063058</ele>
        <time>2018-10-21T08:59:32.769Z</time>
      </trkpt>
      <trkpt lat="43.88761" lon="1.90722">
        <ele>135.040995</ele>
        <time>2018-10-21T08:59:33.051Z</time>
      </trkpt>
      <trkpt lat="43.88767" lon="1.90723">
        <ele>134.961425</ele>
        <time>2018-10-21T08:59:34.172Z</time>
      </trkpt>
      <trkpt lat="43.88769" lon="1.90716">
        <ele>134.891683</ele>
        <time>2018-10-21T08:59:35.166Z</time>
      </trkpt>
      <trkpt lat="43.88769" lon="1.90714">
        <ele>134.874913</ele>
        <time>2018-10-21T08:59:35.393Z</time>
      </trkpt>
      <trkpt lat="43.88788" lon="1.90708">
        <ele>134.620901</ele>
        <time>2018-10-21T08:59:38.805Z</time>
      </trkpt>
      <trkpt lat="43.88845" lon="1.90665">
        <ele>134.041042</ele>
        <time>2018-10-21T08:59:51.043Z</time>
      </trkpt>
      <trkpt lat="43.88854" lon="1.9066">
        <ele>134.006902</ele>
        <time>2018-10-21T08:59:52.909Z</time>
      </trkpt>
      <trkpt lat="43.88897" lon="1.9063">
        <ele>133.847762</ele>
        <time>2018-10-21T09:00:02.471Z</time>
      </trkpt>
      <trkpt lat="43.88907" lon="1.9065">
        <ele>133.789164</ele>
        <time>2018-10-21T09:00:06.144Z</time>
      </trkpt>
      <trkpt lat="43.88906" lon="1.90666">
        <ele>133.75092</ele>
        <time>2018-10-21T09:00:08.766Z</time>
      </trkpt>
      <trkpt lat="43.88908" lon="1.90834">
        <ele>134.274411</ele>
        <time>2018-10-21T09:00:38.473Z</time>
      </trkpt>
      <trkpt lat="43.88907" lon="1.90836">
        <ele>134.292144</ele>
        <time>2018-10-21T09:00:39.596Z</time>
      </trkpt>
      <trkpt lat="43.88905" lon="1.9084">
        <ele>134.342935</ele>
        <time>2018-10-21T09:00:40.560Z</time>
      </trkpt>
      <trkpt lat="43.88897" lon="1.90845">
        <ele>134.464794</ele>
        <time>2018-10-21T09:00:43.043Z</time>
      </trkpt>
      <trkpt lat="43.88879" lon="1.90854">
        <ele>134.710143</ele>
        <time>2018-10-21T09:00:48.223Z</time>
      </trkpt>
      <trkpt lat="43.88878" lon="1.90857">
        <ele>134.739749</ele>
        <time>2018-10-21T09:00:48.785Z</time>
      </trkpt>
      <trkpt lat="43.88877" lon="1.90861">
        <ele>134.787584</ele>
        <time>2018-10-21T09:00:50.547Z</time>
      </trkpt>
      <trkpt lat="43.88878" lon="1.90872">
        <ele>134.893243</ele>
        <time>2018-10-21T09:00:52.668Z</time>
      </trkpt>
      <trkpt lat="43.88912" lon="1.9095">
        <ele>135.75309</ele>
        <time>2018-10-21T09:01:11.063Z</time>
      </trkpt>
      <trkpt lat="43.88912" lon="1.9095">
        <ele>135.75309</ele>
        <time>2018-10-21T09:01:11.066Z</time>
      </trkpt>
      <trkpt lat="43.88912" lon="1.9095">
        <ele>135.75309</ele>
        <time>2018-10-21T09:01:11.098Z</time>
      </trkpt>
      <trkpt lat="43.8892" lon="1.90965">
        <ele>135.937677</ele>
        <time>2018-10-21T09:01:14.835Z</time>
      </trkpt>
      <trkpt lat="43.88935" lon="1.91006">
        <ele>136.485944</ele>
        <time>2018-10-21T09:01:24.767Z</time>
      </trkpt>
      <trkpt lat="43.88924" lon="1.91017">
        <ele>136.702721</ele>
        <time>2018-10-21T09:01:28.366Z</time>
      </trkpt>
      <trkpt lat="43.88919" lon="1.91008">
        <ele>136.844841</ele>
        <time>2018-10-21T09:01:30.656Z</time>
      </trkpt>
      <trkpt lat="43.88891" lon="1.9103">
        <ele>137.371025</ele>
        <time>2018-10-21T09:01:39.984Z</time>
      </trkpt>
      <trkpt lat="43.88853" lon="1.91051">
        <ele>138.056947</ele>
        <time>2018-10-21T09:01:51.949Z</time>
      </trkpt>
      <trkpt lat="43.88848" lon="1.91073">
        <ele>138.329302</ele>
        <time>2018-10-21T09:01:57.019Z</time>
      </trkpt>
      <trkpt lat="43.88826" lon="1.91085">
        <ele>138.713371</ele>
        <time>2018-10-21T09:02:03.545Z</time>
      </trkpt>
      <trkpt lat="43.88809" lon="1.91095">
        <ele>139.077143</ele>
        <time>2018-10-21T09:02:09.188Z</time>
      </trkpt>
      <trkpt lat="43.88725" lon="1.9115">
        <ele>141.380097</ele>
        <time>2018-10-21T09:02:38.703Z</time>
      </trkpt>
      <trkpt lat="43.88704" lon="1.91181">
        <ele>142.13252</ele>
        <time>2018-10-21T09:02:48.887Z</time>
      </trkpt>
      <trkpt lat="43.88694" lon="1.91204">
        <ele>142.623228</ele>
        <time>2018-10-21T09:02:55.558Z</time>
      </trkpt>
      <trkpt lat="43.88623" lon="1.91368">
        <ele>146.263095</ele>
        <time>2018-10-21T09:03:41.659Z</time>
      </trkpt>
      <trkpt lat="43.88561" lon="1.91512">
        <ele>149.083541</ele>
        <time>2018-10-21T09:04:21.002Z</time>
      </trkpt>
      <trkpt lat="43.8855" lon="1.91538">
        <ele>149.472528</ele>
        <time>2018-10-21T09:04:27.499Z</time>
      </trkpt>
      <trkpt lat="43.88516" lon="1.91613">
        <ele>150.625513</ele>
        <time>2018-10-21T09:04:45.999Z</time>
      </trkpt>
      <trkpt lat="43.88477" lon="1.91713">
        <ele>151.683647</ele>
        <time>2018-10-21T09:05:07.856Z</time>
      </trkpt>
      <trkpt lat="43.88455" lon="1.91767">
        <ele>152.001535</ele>
        <time>2018-10-21T09:05:19.073Z</time>
      </trkpt>
      <trkpt lat="43.88449" lon="1.91796">
        <ele>152.158451</ele>
        <time>2018-10-21T09:05:24.749Z</time>
      </trkpt>
      <trkpt lat="43.88443" lon="1.91938">
        <ele>152.727664</ele>
        <time>2018-10-21T09:05:49.273Z</time>
      </trkpt>
      <trkpt lat="43.88428" lon="1.9199">
        <ele>152.778336</ele>
        <time>2018-10-21T09:05:58.816Z</time>
      </trkpt>
      <trkpt lat="43.88396" lon="1.92033">
        <ele>152.834341</ele>
        <time>2018-10-21T09:06:08.654Z</time>
      </trkpt>
      <trkpt lat="43.88329" lon="1.92093">
        <ele>152.961276</ele>
        <time>2018-10-21T09:06:26.169Z</time>
      </trkpt>
      <trkpt lat="43.88304" lon="1.92135">
        <ele>153.108176</ele>
        <time>2018-10-21T09:06:34.942Z</time>
      </trkpt>
      <trkpt lat="43.88289" lon="1.92199">
        <ele>153.291302</ele>
        <time>2018-10-21T09:06:46.459Z</time>
      </trkpt>
      <trkpt lat="43.8828" lon="1.9228">
        <ele>153.511248</ele>
        <time>2018-10-21T09:07:00.651Z</time>
      </trkpt>
      <trkpt lat="43.88245" lon="1.92563">
        <ele>155.3427</ele>
        <time>2018-10-21T09:07:54.565Z</time>
      </trkpt>
      <trkpt lat="43.88228" lon="1.92698">
        <ele>156.571823</ele>
        <time>2018-10-21T09:08:21.230Z</time>
      </trkpt>
      <trkpt lat="43.88208" lon="1.92771">
        <ele>157.269697</ele>
        <time>2018-10-21T09:08:36.629Z</time>
      </trkpt>
      <trkpt lat="43.88177" lon="1.92849">
        <ele>158.470946</ele>
        <time>2018-10-21T09:08:55.089Z</time>
      </trkpt>
      <trkpt lat="43.88143" lon="1.92911">
        <ele>159.677083</ele>
        <time>2018-10-21T09:09:12.098Z</time>
      </trkpt>
      <trkpt lat="43.88093" lon="1.92959">
        <ele>160.978284</ele>
        <time>2018-10-21T09:09:31.531Z</time>
      </trkpt>
      <trkpt lat="43.88025" lon="1.92999">
        <ele>162.793886</ele>
        <time>2018-10-21T09:09:56.517Z</time>
      </trkpt>
      <trkpt lat="43.87865" lon="1.93046">
        <ele>166.453086</ele>
        <time>2018-10-21T09:10:49.509Z</time>
      </trkpt>
      <trkpt lat="43.87795" lon="1.93089">
        <ele>167.350143</ele>
        <time>2018-10-21T09:11:10.057Z</time>
      </trkpt>
      <trkpt lat="43.87764" lon="1.93122">
        <ele>167.811582</ele>
        <time>2018-10-21T09:11:19.624Z</time>
      </trkpt>
      <trkpt lat="43.87725" lon="1.93161">
        <ele>168.130032</ele>
        <time>2018-10-21T09:11:30.305Z</time>
      </trkpt>
      <trkpt lat="43.87691" lon="1.93204">
        <ele>168.183152</ele>
        <time>2018-10-21T09:11:40.278Z</time>
      </trkpt>
      <trkpt lat="43.87689" lon="1.93209">
        <ele>168.187862</ele>
        <time>2018-10-21T09:11:41.174Z</time>
      </trkpt>
      <trkpt lat="43.87674" lon="1.93241">
        <ele>168.219423</ele>
        <time>2018-10-21T09:11:47.094Z</time>
      </trkpt>
      <trkpt lat="43.87669" lon="1.93258">
        <ele>168.234986</ele>
        <time>2018-10-21T09:11:50.069Z</time>
      </trkpt>
      <trkpt lat="43.87674" lon="1.93241">
        <ele>168.250549</ele>
        <time>2018-10-21T09:11:53.031Z</time>
      </trkpt>
      <trkpt lat="43.87689" lon="1.93209">
        <ele>168.282109</ele>
        <time>2018-10-21T09:11:59.350Z</time>
      </trkpt>
      <trkpt lat="43.87674" lon="1.93241">
        <ele>168.342601</ele>
        <time>2018-10-21T09:12:05.879Z</time>
      </trkpt>
      <trkpt lat="43.87669" lon="1.93258">
        <ele>168.520524</ele>
        <time>2018-10-21T09:12:09.193Z</time>
      </trkpt>
      <trkpt lat="43.87656" lon="1.93307">
        <ele>169.011046</ele>
        <time>2018-10-21T09:12:18.681Z</time>
      </trkpt>
      <trkpt lat="43.87654" lon="1.93364">
        <ele>169.553256</ele>
        <time>2018-10-21T09:12:29.718Z</time>
      </trkpt>
      <trkpt lat="43.87687" lon="1.93657">
        <ele>173.290797</ele>
        <time>2018-10-21T09:13:34.005Z</time>
      </trkpt>
      <trkpt lat="43.87708" lon="1.93711">
        <ele>174.181173</ele>
        <time>2018-10-21T09:13:47.794Z</time>
      </trkpt>
      <trkpt lat="43.87784" lon="1.93801">
        <ele>176.085725</ele>
        <time>2018-10-21T09:14:18.541Z</time>
      </trkpt>
      <trkpt lat="43.87811" lon="1.9386">
        <ele>177.027804</ele>
        <time>2018-10-21T09:14:33.271Z</time>
      </trkpt>
      <trkpt lat="43.8781" lon="1.93917">
        <ele>177.777043</ele>
        <time>2018-10-21T09:14:45.163Z</time>
      </trkpt>
      <trkpt lat="43.87773" lon="1.94003">
        <ele>178.675836</ele>
        <time>2018-10-21T09:15:05.297Z</time>
      </trkpt>
      <trkpt lat="43.87713" lon="1.94101">
        <ele>179.838672</ele>
        <time>2018-10-21T09:15:30.095Z</time>
      </trkpt>
      <trkpt lat="43.87325" lon="1.94746">
        <ele>185.39751</ele>
        <time>2018-10-21T09:18:07.336Z</time>
      </trkpt>
      <trkpt lat="43.87225" lon="1.94906">
        <ele>186.385404</ele>
        <time>2018-10-21T09:18:45.775Z</time>
      </trkpt>
      <trkpt lat="43.8712" lon="1.95091">
        <ele>186.528134</ele>
        <time>2018-10-21T09:19:24.362Z</time>
      </trkpt>
      <trkpt lat="43.87108" lon="1.95111">
        <ele>186.394742</ele>
        <time>2018-10-21T09:19:28.041Z</time>
      </trkpt>
      <trkpt lat="43.87057" lon="1.95184">
        <ele>185.848841</ele>
        <time>2018-10-21T09:19:42.731Z</time>
      </trkpt>
      <trkpt lat="43.87016" lon="1.95239">
        <ele>185.431187</ele>
        <time>2018-10-21T09:19:53.583Z</time>
      </trkpt>
      <trkpt lat="43.86905" lon="1.95336">
        <ele>184.266805</ele>
        <time>2018-10-21T09:20:18.471Z</time>
      </trkpt>
      <trkpt lat="43.86723" lon="1.95516">
        <ele>183.665672</ele>
        <time>2018-10-21T09:21:04.580Z</time>
      </trkpt>
      <trkpt lat="43.86665" lon="1.95588">
        <ele>185.517786</ele>
        <time>2018-10-21T09:21:28.327Z</time>
      </trkpt>
      <trkpt lat="43.86645" lon="1.95618">
        <ele>186.426731</ele>
        <time>2018-10-21T09:21:38.396Z</time>
      </trkpt>
      <trkpt lat="43.86639" lon="1.9563">
        <ele>186.763149</ele>
        <time>2018-10-21T09:21:42.255Z</time>
      </trkpt>
      <trkpt lat="43.86621" lon="1.95664">
        <ele>187.694616</ele>
        <time>2018-10-21T09:21:53.380Z</time>
      </trkpt>
      <trkpt lat="43.86606" lon="1.95693">
        <ele>188.49225</ele>
        <time>2018-10-21T09:22:03.591Z</time>
      </trkpt>
      <trkpt lat="43.86498" lon="1.95899">
        <ele>196.345312</ele>
        <time>2018-10-21T09:23:19.819Z</time>
      </trkpt>
      <trkpt lat="43.86469" lon="1.95976">
        <ele>198.433981</ele>
        <time>2018-10-21T09:23:42.115Z</time>
      </trkpt>
      <trkpt lat="43.86458" lon="1.96004">
        <ele>199.080051</ele>
        <time>2018-10-21T09:23:49.629Z</time>
      </trkpt>
      <trkpt lat="43.86453" lon="1.96018">
        <ele>199.388049</ele>
        <time>2018-10-21T09:23:53.314Z</time>
      </trkpt>
      <trkpt lat="43.86413" lon="1.96172">
        <ele>202.627698</ele>
        <time>2018-10-21T09:24:31.323Z</time>
      </trkpt>
      <trkpt lat="43.86398" lon="1.96229">
        <ele>203.565735</ele>
        <time>2018-10-21T09:24:45.020Z</time>
      </trkpt>
      <trkpt lat="43.86368" lon="1.96345">
        <ele>205.466483</ele>
        <time>2018-10-21T09:25:13.122Z</time>
      </trkpt>
      <trkpt lat="43.86345" lon="1.9642">
        <ele>206.178218</ele>
        <time>2018-10-21T09:25:29.851Z</time>
      </trkpt>
      <trkpt lat="43.86323" lon="1.96476">
        <ele>206.208541</ele>
        <time>2018-10-21T09:25:42.081Z</time>
      </trkpt>
      <trkpt lat="43.86304" lon="1.96508">
        <ele>206.22854</ele>
        <time>2018-10-21T09:25:48.938Z</time>
      </trkpt>
      <trkpt lat="43.86296" lon="1.96518">
        <ele>206.235736</ele>
        <time>2018-10-21T09:25:51.065Z</time>
      </trkpt>
      <trkpt lat="43.86259" lon="1.96556">
        <ele>206.265624</ele>
        <time>2018-10-21T09:25:59.987Z</time>
      </trkpt>
      <trkpt lat="43.86212" lon="1.96591">
        <ele>205.74338</ele>
        <time>2018-10-21T09:26:09.933Z</time>
      </trkpt>
      <trkpt lat="43.86178" lon="1.96614">
        <ele>205.122605</ele>
        <time>2018-10-21T09:26:16.453Z</time>
      </trkpt>
      <trkpt lat="43.86083" lon="1.96677">
        <ele>203.407075</ele>
        <time>2018-10-21T09:26:35.551Z</time>
      </trkpt>
      <trkpt lat="43.86054" lon="1.96695">
        <ele>202.849803</ele>
        <time>2018-10-21T09:26:41.250Z</time>
      </trkpt>
      <trkpt lat="43.85969" lon="1.96752">
        <ele>201.163055</ele>
        <time>2018-10-21T09:26:58.326Z</time>
      </trkpt>
      <trkpt lat="43.859" lon="1.96809">
        <ele>199.552023</ele>
        <time>2018-10-21T09:27:12.489Z</time>
      </trkpt>
      <trkpt lat="43.85857" lon="1.96864">
        <ele>198.077767</ele>
        <time>2018-10-21T09:27:22.362Z</time>
      </trkpt>
      <trkpt lat="43.85698" lon="1.97175">
        <ele>190.99141</ele>
        <time>2018-10-21T09:28:08.528Z</time>
      </trkpt>
      <trkpt lat="43.85617" lon="1.97316">
        <ele>189.174174</ele>
        <time>2018-10-21T09:28:32.280Z</time>
      </trkpt>
      <trkpt lat="43.85599" lon="1.97377">
        <ele>188.526457</ele>
        <time>2018-10-21T09:28:41.700Z</time>
      </trkpt>
      <trkpt lat="43.85591" lon="1.97422">
        <ele>188.657199</ele>
        <time>2018-10-21T09:28:48.634Z</time>
      </trkpt>
      <trkpt lat="43.85577" lon="1.97499">
        <ele>189.096927</ele>
        <time>2018-10-21T09:29:01.600Z</time>
      </trkpt>
      <trkpt lat="43.85565" lon="1.9754">
        <ele>189.342663</ele>
        <time>2018-10-21T09:29:09.485Z</time>
      </trkpt>
      <trkpt lat="43.85456" lon="1.97823">
        <ele>193.862171</ele>
        <time>2018-10-21T09:30:21.341Z</time>
      </trkpt>
      <trkpt lat="43.85428" lon="1.979">
        <ele>195.906481</ele>
        <time>2018-10-21T09:30:44.171Z</time>
      </trkpt>
      <trkpt lat="43.85424" lon="1.97913">
        <ele>196.243234</ele>
        <time>2018-10-21T09:30:47.779Z</time>
      </trkpt>
      <trkpt lat="43.85417" lon="1.97923">
        <ele>196.582808</ele>
        <time>2018-10-21T09:30:51.746Z</time>
      </trkpt>
      <trkpt lat="43.85404" lon="1.97955">
        <ele>197.518463</ele>
        <time>2018-10-21T09:31:01.260Z</time>
      </trkpt>
      <trkpt lat="43.854" lon="1.97964">
        <ele>197.779575</ele>
        <time>2018-10-21T09:31:04.440Z</time>
      </trkpt>
      <trkpt lat="43.85399" lon="1.97966">
        <ele>197.840457</ele>
        <time>2018-10-21T09:31:05.041Z</time>
      </trkpt>
      <trkpt lat="43.85383" lon="1.97983">
        <ele>198.517027</ele>
        <time>2018-10-21T09:31:11.819Z</time>
      </trkpt>
      <trkpt lat="43.85371" lon="1.97995">
        <ele>199.048321</ele>
        <time>2018-10-21T09:31:17.849Z</time>
      </trkpt>
      <trkpt lat="43.85345" lon="1.98004">
        <ele>199.963222</ele>
        <time>2018-10-21T09:31:27.188Z</time>
      </trkpt>
      <trkpt lat="43.85245" lon="1.97995">
        <ele>202.734007</ele>
        <time>2018-10-21T09:32:04.414Z</time>
      </trkpt>
      <trkpt lat="43.85204" lon="1.98003">
        <ele>203.842048</ele>
        <time>2018-10-21T09:32:18.703Z</time>
      </trkpt>
      <trkpt lat="43.85174" lon="1.98022">
        <ele>204.736176</ele>
        <time>2018-10-21T09:32:28.505Z</time>
      </trkpt>
      <trkpt lat="43.8512" lon="1.98075">
        <ele>204.476176</ele>
        <time>2018-10-21T09:32:43.750Z</time>
      </trkpt>
      <trkpt lat="43.8511" lon="1.98085">
        <ele>204.297373</ele>
        <time>2018-10-21T09:32:46.212Z</time>
      </trkpt>
      <trkpt lat="43.85089" lon="1.98113">
        <ele>203.880341</ele>
        <time>2018-10-21T09:32:51.747Z</time>
      </trkpt>
      <trkpt lat="43.85068" lon="1.98137">
        <ele>203.498338</ele>
        <time>2018-10-21T09:32:56.268Z</time>
      </trkpt>
      <trkpt lat="43.85059" lon="1.98143">
        <ele>203.348695</ele>
        <time>2018-10-21T09:32:58.193Z</time>
      </trkpt>
      <trkpt lat="43.8503" lon="1.98154">
        <ele>202.91907</ele>
        <time>2018-10-21T09:33:03.200Z</time>
      </trkpt>
      <trkpt lat="43.84983" lon="1.98167">
        <ele>201.810125</ele>
        <time>2018-10-21T09:33:10.906Z</time>
      </trkpt>
      <trkpt lat="43.84937" lon="1.98178">
        <ele>200.401265</ele>
        <time>2018-10-21T09:33:18.272Z</time>
      </trkpt>
      <trkpt lat="43.84929" lon="1.98179">
        <ele>200.157041</ele>
        <time>2018-10-21T09:33:19.507Z</time>
      </trkpt>
      <trkpt lat="43.84893" lon="1.98208">
        <ele>198.923232</ele>
        <time>2018-10-21T09:33:26.223Z</time>
      </trkpt>
      <trkpt lat="43.84886" lon="1.98227">
        <ele>198.468757</ele>
        <time>2018-10-21T09:33:28.795Z</time>
      </trkpt>
      <trkpt lat="43.84883" lon="1.98238">
        <ele>198.197842</ele>
        <time>2018-10-21T09:33:30.357Z</time>
      </trkpt>
      <trkpt lat="43.84881" lon="1.98248">
        <ele>197.971499</ele>
        <time>2018-10-21T09:33:31.591Z</time>
      </trkpt>
      <trkpt lat="43.8488" lon="1.98266">
        <ele>197.583925</ele>
        <time>2018-10-21T09:33:33.821Z</time>
      </trkpt>
      <trkpt lat="43.84879" lon="1.9829">
        <ele>197.130402</ele>
        <time>2018-10-21T09:33:36.847Z</time>
      </trkpt>
      <trkpt lat="43.84886" lon="1.98339">
        <ele>196.626578</ele>
        <time>2018-10-21T09:33:43.343Z</time>
      </trkpt>
      <trkpt lat="43.84907" lon="1.98393">
        <ele>196.010839</ele>
        <time>2018-10-21T09:33:51.666Z</time>
      </trkpt>
      <trkpt lat="43.84921" lon="1.98413">
        <ele>195.735395</ele>
        <time>2018-10-21T09:33:55.393Z</time>
      </trkpt>
      <trkpt lat="43.8495" lon="1.98432">
        <ele>195.280958</ele>
        <time>2018-10-21T09:34:01.685Z</time>
      </trkpt>
      <trkpt lat="43.85014" lon="1.98459">
        <ele>194.355452</ele>
        <time>2018-10-21T09:34:14.559Z</time>
      </trkpt>
      <trkpt lat="43.85054" lon="1.98493">
        <ele>193.699563</ele>
        <time>2018-10-21T09:34:23.439Z</time>
      </trkpt>
      <trkpt lat="43.85083" lon="1.98552">
        <ele>192.98359</ele>
        <time>2018-10-21T09:34:32.885Z</time>
      </trkpt>
      <trkpt lat="43.85093" lon="1.9867">
        <ele>191.823024</ele>
        <time>2018-10-21T09:34:48.534Z</time>
      </trkpt>
      <trkpt lat="43.85096" lon="1.98799">
        <ele>190.6467</ele>
        <time>2018-10-21T09:35:05.697Z</time>
      </trkpt>
      <trkpt lat="43.85093" lon="1.98833">
        <ele>190.325383</ele>
        <time>2018-10-21T09:35:10.382Z</time>
      </trkpt>
      <trkpt lat="43.85062" lon="1.99264">
        <ele>187.955793</ele>
        <time>2018-10-21T09:36:12.752Z</time>
      </trkpt>
      <trkpt lat="43.85052" lon="1.99327">
        <ele>187.688306</ele>
        <time>2018-10-21T09:36:22.260Z</time>
      </trkpt>
      <trkpt lat="43.85051" lon="1.99332">
        <ele>187.667874</ele>
        <time>2018-10-21T09:36:22.999Z</time>
      </trkpt>
      <trkpt lat="43.85025" lon="1.99576">
        <ele>187.66614</ele>
        <time>2018-10-21T09:37:01.492Z</time>
      </trkpt>
      <trkpt lat="43.85031" lon="1.99699">
        <ele>188.94508</ele>
        <time>2018-10-21T09:37:24.864Z</time>
      </trkpt>
      <trkpt lat="43.8508" lon="2.00126">
        <ele>197.552609</ele>
        <time>2018-10-21T09:39:10.938Z</time>
      </trkpt>
      <trkpt lat="43.8508" lon="2.00197">
        <ele>199.732242</ele>
        <time>2018-10-21T09:39:31.014Z</time>
      </trkpt>
      <trkpt lat="43.85034" lon="2.00437">
        <ele>207.188466</ele>
        <time>2018-10-21T09:40:42.969Z</time>
      </trkpt>
      <trkpt lat="43.85033" lon="2.00488">
        <ele>208.721223</ele>
        <time>2018-10-21T09:40:57.663Z</time>
      </trkpt>
      <trkpt lat="43.85045" lon="2.00526">
        <ele>209.949817</ele>
        <time>2018-10-21T09:41:09.172Z</time>
      </trkpt>
      <trkpt lat="43.8509" lon="2.00614">
        <ele>212.630084</ele>
        <time>2018-10-21T09:41:38.344Z</time>
      </trkpt>
      <trkpt lat="43.85098" lon="2.00659">
        <ele>213.250219</ele>
        <time>2018-10-21T09:41:50.042Z</time>
      </trkpt>
      <trkpt lat="43.85097" lon="2.00721">
        <ele>214.077195</ele>
        <time>2018-10-21T09:42:04.230Z</time>
      </trkpt>
      <trkpt lat="43.85079" lon="2.00789">
        <ele>215.038948</ele>
        <time>2018-10-21T09:42:17.989Z</time>
      </trkpt>
      <trkpt lat="43.85073" lon="2.00805">
        <ele>215.289488</ele>
        <time>2018-10-21T09:42:21.663Z</time>
      </trkpt>
      <trkpt lat="43.85069" lon="2.00811">
        <ele>215.39427</ele>
        <time>2018-10-21T09:42:22.879Z</time>
      </trkpt>
      <trkpt lat="43.85043" lon="2.00858">
        <ele>214.709332</ele>
        <time>2018-10-21T09:42:31.473Z</time>
      </trkpt>
      <trkpt lat="43.85001" lon="2.00923">
        <ele>213.226929</ele>
        <time>2018-10-21T09:42:42.643Z</time>
      </trkpt>
      <trkpt lat="43.84974" lon="2.01002">
        <ele>211.715503</ele>
        <time>2018-10-21T09:42:52.852Z</time>
      </trkpt>
      <trkpt lat="43.84942" lon="2.0115">
        <ele>207.048962</ele>
        <time>2018-10-21T09:43:09.926Z</time>
      </trkpt>
      <trkpt lat="43.84896" lon="2.01369">
        <ele>199.936322</ele>
        <time>2018-10-21T09:43:35.172Z</time>
      </trkpt>
      <trkpt lat="43.8483" lon="2.0168">
        <ele>191.545251</ele>
        <time>2018-10-21T09:44:12.551Z</time>
      </trkpt>
      <trkpt lat="43.84741" lon="2.02101">
        <ele>184.579886</ele>
        <time>2018-10-21T09:45:07.271Z</time>
      </trkpt>
      <trkpt lat="43.84733" lon="2.02135">
        <ele>184.197626</ele>
        <time>2018-10-21T09:45:12.066Z</time>
      </trkpt>
      <trkpt lat="43.84731" lon="2.02146">
        <ele>184.080564</ele>
        <time>2018-10-21T09:45:13.580Z</time>
      </trkpt>
      <trkpt lat="43.8457" lon="2.02906">
        <ele>181.765422</ele>
        <time>2018-10-21T09:47:13.957Z</time>
      </trkpt>
      <trkpt lat="43.84416" lon="2.03615">
        <ele>185.823889</ele>
        <time>2018-10-21T09:49:29.562Z</time>
      </trkpt>
      <trkpt lat="43.8441" lon="2.03643">
        <ele>186.027937</ele>
        <time>2018-10-21T09:49:35.682Z</time>
      </trkpt>
      <trkpt lat="43.84405" lon="2.03682">
        <ele>186.310511</ele>
        <time>2018-10-21T09:49:43.811Z</time>
      </trkpt>
      <trkpt lat="43.84404" lon="2.03726">
        <ele>186.639079</ele>
        <time>2018-10-21T09:49:52.833Z</time>
      </trkpt>
      <trkpt lat="43.84472" lon="2.03709">
        <ele>187.359425</ele>
        <time>2018-10-21T09:50:12.096Z</time>
      </trkpt>
      <trkpt lat="43.84488" lon="2.03708">
        <ele>187.525779</ele>
        <time>2018-10-21T09:50:16.325Z</time>
      </trkpt>
      <trkpt lat="43.84495" lon="2.03708">
        <ele>187.590889</ele>
        <time>2018-10-21T09:50:18.036Z</time>
      </trkpt>
      <trkpt lat="43.84594" lon="2.03724">
        <ele>187.731202</ele>
        <time>2018-10-21T09:50:41.238Z</time>
      </trkpt>
      <trkpt lat="43.84801" lon="2.03685">
        <ele>186.262538</ele>
        <time>2018-10-21T09:51:22.406Z</time>
      </trkpt>
      <trkpt lat="43.84841" lon="2.03661">
        <ele>185.796201</ele>
        <time>2018-10-21T09:51:30.437Z</time>
      </trkpt>
      <trkpt lat="43.84911" lon="2.03578">
        <ele>184.738713</ele>
        <time>2018-10-21T09:51:47.631Z</time>
      </trkpt>
      <trkpt lat="43.84932" lon="2.03554">
        <ele>184.405085</ele>
        <time>2018-10-21T09:51:52.705Z</time>
      </trkpt>
      <trkpt lat="43.84935" lon="2.03551">
        <ele>184.362326</ele>
        <time>2018-10-21T09:51:53.393Z</time>
      </trkpt>
      <trkpt lat="43.84967" lon="2.03529">
        <ele>183.928255</ele>
        <time>2018-10-21T09:52:00.101Z</time>
      </trkpt>
      <trkpt lat="43.85001" lon="2.0351">
        <ele>183.472539</ele>
        <time>2018-10-21T09:52:07.209Z</time>
      </trkpt>
      <trkpt lat="43.8504" lon="2.03498">
        <ele>183.010675</ele>
        <time>2018-10-21T09:52:14.815Z</time>
      </trkpt>
      <trkpt lat="43.85296" lon="2.03466">
        <ele>180.199892</ele>
        <time>2018-10-21T09:53:04.419Z</time>
      </trkpt>
      <trkpt lat="43.85327" lon="2.03456">
        <ele>179.808348</ele>
        <time>2018-10-21T09:53:10.195Z</time>
      </trkpt>
      <trkpt lat="43.85362" lon="2.03466">
        <ele>179.362557</ele>
        <time>2018-10-21T09:53:16.690Z</time>
      </trkpt>
      <trkpt lat="43.85381" lon="2.03482">
        <ele>179.093892</ele>
        <time>2018-10-21T09:53:20.568Z</time>
      </trkpt>
      <trkpt lat="43.85509" lon="2.03632">
        <ele>177.366347</ele>
        <time>2018-10-21T09:53:52.327Z</time>
      </trkpt>
      <trkpt lat="43.85531" lon="2.03648">
        <ele>177.279518</ele>
        <time>2018-10-21T09:53:57.666Z</time>
      </trkpt>
      <trkpt lat="43.85618" lon="2.03689">
        <ele>177.944811</ele>
        <time>2018-10-21T09:54:20.611Z</time>
      </trkpt>
      <trkpt lat="43.8567" lon="2.03709">
        <ele>178.331209</ele>
        <time>2018-10-21T09:54:34.996Z</time>
      </trkpt>
      <trkpt lat="43.85744" lon="2.03702">
        <ele>178.767039</ele>
        <time>2018-10-21T09:54:55.376Z</time>
      </trkpt>
      <trkpt lat="43.85772" lon="2.03691">
        <ele>178.921815</ele>
        <time>2018-10-21T09:55:02.947Z</time>
      </trkpt>
      <trkpt lat="43.85946" lon="2.03591">
        <ele>179.16996</ele>
        <time>2018-10-21T09:55:45.242Z</time>
      </trkpt>
      <trkpt lat="43.85961" lon="2.03585">
        <ele>179.120507</ele>
        <time>2018-10-21T09:55:48.319Z</time>
      </trkpt>
      <trkpt lat="43.85969" lon="2.03585">
        <ele>179.094825</ele>
        <time>2018-10-21T09:55:49.963Z</time>
      </trkpt>
      <trkpt lat="43.86004" lon="2.03597">
        <ele>178.97727</ele>
        <time>2018-10-21T09:55:57.106Z</time>
      </trkpt>
      <trkpt lat="43.86108" lon="2.03698">
        <ele>178.274679</ele>
        <time>2018-10-21T09:56:22.661Z</time>
      </trkpt>
      <trkpt lat="43.86127" lon="2.03711">
        <ele>178.143305</ele>
        <time>2018-10-21T09:56:27.017Z</time>
      </trkpt>
      <trkpt lat="43.86135" lon="2.03717">
        <ele>178.083726</ele>
        <time>2018-10-21T09:56:29.239Z</time>
      </trkpt>
      <trkpt lat="43.86161" lon="2.0373">
        <ele>177.912806</ele>
        <time>2018-10-21T09:56:34.573Z</time>
      </trkpt>
      <trkpt lat="43.86205" lon="2.03743">
        <ele>177.583554</ele>
        <time>2018-10-21T09:56:43.909Z</time>
      </trkpt>
      <trkpt lat="43.86243" lon="2.03749">
        <ele>177.243929</ele>
        <time>2018-10-21T09:56:51.386Z</time>
      </trkpt>
      <trkpt lat="43.86266" lon="2.03752">
        <ele>177.042642</ele>
        <time>2018-10-21T09:56:55.655Z</time>
      </trkpt>
      <trkpt lat="43.86276" lon="2.03751">
        <ele>176.954236</ele>
        <time>2018-10-21T09:56:57.745Z</time>
      </trkpt>
      <trkpt lat="43.86283" lon="2.03746">
        <ele>176.882408</ele>
        <time>2018-10-21T09:56:59.144Z</time>
      </trkpt>
      <trkpt lat="43.86323" lon="2.03703">
        <ele>176.432933</ele>
        <time>2018-10-21T09:57:09.427Z</time>
      </trkpt>
      <trkpt lat="43.86351" lon="2.03681">
        <ele>176.150552</ele>
        <time>2018-10-21T09:57:15.688Z</time>
      </trkpt>
      <trkpt lat="43.86405" lon="2.03646">
        <ele>175.686425</ele>
        <time>2018-10-21T09:57:27.094Z</time>
      </trkpt>
      <trkpt lat="43.86438" lon="2.03629">
        <ele>175.412665</ele>
        <time>2018-10-21T09:57:33.839Z</time>
      </trkpt>
      <trkpt lat="43.86528" lon="2.03594">
        <ele>174.741892</ele>
        <time>2018-10-21T09:57:52.442Z</time>
      </trkpt>
      <trkpt lat="43.86595" lon="2.03589">
        <ele>174.719748</ele>
        <time>2018-10-21T09:58:07.179Z</time>
      </trkpt>
      <trkpt lat="43.86631" lon="2.03586">
        <ele>174.707781</ele>
        <time>2018-10-21T09:58:15.348Z</time>
      </trkpt>
      <trkpt lat="43.86707" lon="2.03586">
        <ele>174.684728</ele>
        <time>2018-10-21T09:58:33.010Z</time>
      </trkpt>
      <trkpt lat="43.86889" lon="2.03621">
        <ele>174.562363</ele>
        <time>2018-10-21T09:59:14.473Z</time>
      </trkpt>
      <trkpt lat="43.86953" lon="2.03643">
        <ele>173.837576</ele>
        <time>2018-10-21T09:59:27.076Z</time>
      </trkpt>
      <trkpt lat="43.86989" lon="2.03665">
        <ele>173.39939</ele>
        <time>2018-10-21T09:59:34.370Z</time>
      </trkpt>
      <trkpt lat="43.87069" lon="2.03733">
        <ele>172.596065</ele>
        <time>2018-10-21T09:59:51.368Z</time>
      </trkpt>
      <trkpt lat="43.87161" lon="2.03787">
        <ele>172.276727</ele>
        <time>2018-10-21T10:00:10.929Z</time>
      </trkpt>
      <trkpt lat="43.87253" lon="2.03826">
        <ele>173.290582</ele>
        <time>2018-10-21T10:00:37.502Z</time>
      </trkpt>
      <trkpt lat="43.87299" lon="2.03838">
        <ele>174.459775</ele>
        <time>2018-10-21T10:00:53.569Z</time>
      </trkpt>
      <trkpt lat="43.87357" lon="2.03843">
        <ele>175.926492</ele>
        <time>2018-10-21T10:01:14.068Z</time>
      </trkpt>
      <trkpt lat="43.87379" lon="2.03851">
        <ele>176.506808</ele>
        <time>2018-10-21T10:01:22.275Z</time>
      </trkpt>
      <trkpt lat="43.87398" lon="2.03862">
        <ele>176.917108</ele>
        <time>2018-10-21T10:01:29.145Z</time>
      </trkpt>
      <trkpt lat="43.87415" lon="2.0388">
        <ele>177.309458</ele>
        <time>2018-10-21T10:01:36.037Z</time>
      </trkpt>
      <trkpt lat="43.87433" lon="2.03909">
        <ele>177.807131</ele>
        <time>2018-10-21T10:01:45.042Z</time>
      </trkpt>
      <trkpt lat="43.8747" lon="2.0397">
        <ele>178.842663</ele>
        <time>2018-10-21T10:02:02.110Z</time>
      </trkpt>
      <trkpt lat="43.87489" lon="2.0399">
        <ele>179.275437</ele>
        <time>2018-10-21T10:02:08.658Z</time>
      </trkpt>
      <trkpt lat="43.87529" lon="2.04002">
        <ele>179.978015</ele>
        <time>2018-10-21T10:02:18.633Z</time>
      </trkpt>
      <trkpt lat="43.87549" lon="2.03999">
        <ele>180.209329</ele>
        <time>2018-10-21T10:02:23.453Z</time>
      </trkpt>
      <trkpt lat="43.87575" lon="2.03982">
        <ele>180.547413</ele>
        <time>2018-10-21T10:02:29.916Z</time>
      </trkpt>
      <trkpt lat="43.87601" lon="2.03955">
        <ele>180.928884</ele>
        <time>2018-10-21T10:02:37.609Z</time>
      </trkpt>
      <trkpt lat="43.87624" lon="2.03905">
        <ele>181.419071</ele>
        <time>2018-10-21T10:02:48.100Z</time>
      </trkpt>
      <trkpt lat="43.87684" lon="2.03646">
        <ele>186.664321</ele>
        <time>2018-10-21T10:03:53.727Z</time>
      </trkpt>
      <trkpt lat="43.877" lon="2.03599">
        <ele>187.922093</ele>
        <time>2018-10-21T10:04:08.806Z</time>
      </trkpt>
      <trkpt lat="43.87715" lon="2.03566">
        <ele>189.292383</ele>
        <time>2018-10-21T10:04:20.571Z</time>
      </trkpt>
      <trkpt lat="43.8774" lon="2.03543">
        <ele>190.727167</ele>
        <time>2018-10-21T10:04:33.164Z</time>
      </trkpt>
      <trkpt lat="43.87774" lon="2.03531">
        <ele>192.429133</ele>
        <time>2018-10-21T10:04:48.350Z</time>
      </trkpt>
      <trkpt lat="43.87808" lon="2.03532">
        <ele>194.033359</ele>
        <time>2018-10-21T10:05:02.621Z</time>
      </trkpt>
      <trkpt lat="43.87887" lon="2.03566">
        <ele>197.637412</ele>
        <time>2018-10-21T10:05:37.084Z</time>
      </trkpt>
      <trkpt lat="43.87914" lon="2.03573">
        <ele>198.654991</ele>
        <time>2018-10-21T10:05:48.155Z</time>
      </trkpt>
      <trkpt lat="43.88004" lon="2.03556">
        <ele>202.008101</ele>
        <time>2018-10-21T10:06:21.230Z</time>
      </trkpt>
      <trkpt lat="43.88044" lon="2.03555">
        <ele>203.219589</ele>
        <time>2018-10-21T10:06:34.247Z</time>
      </trkpt>
      <trkpt lat="43.88057" lon="2.03558">
        <ele>203.436908</ele>
        <time>2018-10-21T10:06:38.412Z</time>
      </trkpt>
      <trkpt lat="43.88111" lon="2.03572">
        <ele>204.326994</ele>
        <time>2018-10-21T10:06:54.503Z</time>
      </trkpt>
      <trkpt lat="43.88142" lon="2.0358">
        <ele>204.834491</ele>
        <time>2018-10-21T10:07:03.331Z</time>
      </trkpt>
      <trkpt lat="43.88225" lon="2.03632">
        <ele>206.123348</ele>
        <time>2018-10-21T10:07:27.095Z</time>
      </trkpt>
      <trkpt lat="43.88369" lon="2.03762">
        <ele>207.483191</ele>
        <time>2018-10-21T10:08:10.623Z</time>
      </trkpt>
      <trkpt lat="43.88391" lon="2.03777">
        <ele>207.632877</ele>
        <time>2018-10-21T10:08:16.823Z</time>
      </trkpt>
      <trkpt lat="43.88385" lon="2.03788">
        <ele>207.69398</ele>
        <time>2018-10-21T10:08:19.382Z</time>
      </trkpt>
      <trkpt lat="43.88362" lon="2.03843">
        <ele>207.974465</ele>
        <time>2018-10-21T10:08:30.894Z</time>
      </trkpt>
      <trkpt lat="43.88339" lon="2.03876">
        <ele>208.177293</ele>
        <time>2018-10-21T10:08:39.096Z</time>
      </trkpt>
      <trkpt lat="43.88308" lon="2.03899">
        <ele>208.385789</ele>
        <time>2018-10-21T10:08:47.419Z</time>
      </trkpt>
      <trkpt lat="43.8828" lon="2.03936">
        <ele>208.537228</ele>
        <time>2018-10-21T10:08:56.799Z</time>
      </trkpt>
      <trkpt lat="43.88191" lon="2.04084">
        <ele>208.840644</ele>
        <time>2018-10-21T10:09:28.575Z</time>
      </trkpt>
      <trkpt lat="43.88174" lon="2.0411">
        <ele>208.874279</ele>
        <time>2018-10-21T10:09:34.363Z</time>
      </trkpt>
      <trkpt lat="43.88169" lon="2.04117">
        <ele>208.867635</ele>
        <time>2018-10-21T10:09:35.966Z</time>
      </trkpt>
      <trkpt lat="43.88161" lon="2.04147">
        <ele>208.845132</ele>
        <time>2018-10-21T10:09:41.202Z</time>
      </trkpt>
      <trkpt lat="43.88151" lon="2.04239">
        <ele>208.779061</ele>
        <time>2018-10-21T10:09:56.516Z</time>
      </trkpt>
      <trkpt lat="43.88128" lon="2.04341">
        <ele>208.695423</ele>
        <time>2018-10-21T10:10:12.837Z</time>
      </trkpt>
      <trkpt lat="43.88124" lon="2.04367">
        <ele>208.509733</ele>
        <time>2018-10-21T10:10:16.778Z</time>
      </trkpt>
      <trkpt lat="43.88093" lon="2.04398">
        <ele>208.131818</ele>
        <time>2018-10-21T10:10:24.358Z</time>
      </trkpt>
      <trkpt lat="43.88068" lon="2.04433">
        <ele>207.786412</ele>
        <time>2018-10-21T10:10:31.138Z</time>
      </trkpt>
      <trkpt lat="43.8803" lon="2.04557">
        <ele>206.88237</ele>
        <time>2018-10-21T10:10:49.285Z</time>
      </trkpt>
      <trkpt lat="43.87981" lon="2.04646">
        <ele>206.504954</ele>
        <time>2018-10-21T10:11:04.722Z</time>
      </trkpt>
      <trkpt lat="43.87948" lon="2.04729">
        <ele>206.181752</ele>
        <time>2018-10-21T10:11:19.354Z</time>
      </trkpt>
      <trkpt lat="43.87884" lon="2.04924">
        <ele>207.560835</ele>
        <time>2018-10-21T10:12:00.038Z</time>
      </trkpt>
      <trkpt lat="43.87849" lon="2.05108">
        <ele>209.41053</ele>
        <time>2018-10-21T10:12:39.681Z</time>
      </trkpt>
      <trkpt lat="43.87826" lon="2.05194">
        <ele>210.380251</ele>
        <time>2018-10-21T10:12:58.179Z</time>
      </trkpt>
      <trkpt lat="43.87824" lon="2.05223">
        <ele>210.688409</ele>
        <time>2018-10-21T10:13:03.929Z</time>
      </trkpt>
      <trkpt lat="43.87812" lon="2.05266">
        <ele>211.087539</ele>
        <time>2018-10-21T10:13:13.062Z</time>
      </trkpt>
      <trkpt lat="43.87786" lon="2.05304">
        <ele>211.528512</ele>
        <time>2018-10-21T10:13:23.056Z</time>
      </trkpt>
      <trkpt lat="43.87771" lon="2.0535">
        <ele>211.965995</ele>
        <time>2018-10-21T10:13:32.912Z</time>
      </trkpt>
      <trkpt lat="43.87673" lon="2.05781">
        <ele>215.797185</ele>
        <time>2018-10-21T10:15:00.408Z</time>
      </trkpt>
      <trkpt lat="43.87661" lon="2.05913">
        <ele>217.008872</ele>
        <time>2018-10-21T10:15:27.249Z</time>
      </trkpt>
      <trkpt lat="43.8766" lon="2.05925">
        <ele>217.122926</ele>
        <time>2018-10-21T10:15:29.933Z</time>
      </trkpt>
      <trkpt lat="43.87655" lon="2.0597">
        <ele>216.964603</ele>
        <time>2018-10-21T10:15:39.219Z</time>
      </trkpt>
      <trkpt lat="43.87653" lon="2.05992">
        <ele>216.862723</ele>
        <time>2018-10-21T10:15:42.940Z</time>
      </trkpt>
      <trkpt lat="43.87651" lon="2.06036">
        <ele>216.65978</ele>
        <time>2018-10-21T10:15:49.981Z</time>
      </trkpt>
      <trkpt lat="43.87644" lon="2.06118">
        <ele>216.276105</ele>
        <time>2018-10-21T10:16:02.177Z</time>
      </trkpt>
      <trkpt lat="43.87639" lon="2.0616">
        <ele>216.078021</ele>
        <time>2018-10-21T10:16:07.954Z</time>
      </trkpt>
      <trkpt lat="43.87653" lon="2.0617">
        <ele>215.821445</ele>
        <time>2018-10-21T10:16:10.698Z</time>
      </trkpt>
      <trkpt lat="43.87791" lon="2.06265">
        <ele>209.366383</ele>
        <time>2018-10-21T10:16:35.409Z</time>
      </trkpt>
      <trkpt lat="43.87881" lon="2.06326">
        <ele>204.987058</ele>
        <time>2018-10-21T10:16:51.301Z</time>
      </trkpt>
      <trkpt lat="43.87901" lon="2.06348">
        <ele>203.828492</ele>
        <time>2018-10-21T10:16:55.581Z</time>
      </trkpt>
      <trkpt lat="43.87981" lon="2.06525">
        <ele>197.884175</ele>
        <time>2018-10-21T10:17:20.348Z</time>
      </trkpt>
      <trkpt lat="43.88001" lon="2.06545">
        <ele>197.024769</ele>
        <time>2018-10-21T10:17:24.495Z</time>
      </trkpt>
      <trkpt lat="43.8808" lon="2.06622">
        <ele>193.898532</ele>
        <time>2018-10-21T10:17:41.124Z</time>
      </trkpt>
      <trkpt lat="43.88084" lon="2.06625">
        <ele>193.812482</ele>
        <time>2018-10-21T10:17:41.843Z</time>
      </trkpt>
      <trkpt lat="43.8812" lon="2.0666">
        <ele>192.912367</ele>
        <time>2018-10-21T10:17:49.611Z</time>
      </trkpt>
      <trkpt lat="43.88128" lon="2.06639">
        <ele>192.570713</ele>
        <time>2018-10-21T10:17:52.694Z</time>
      </trkpt>
      <trkpt lat="43.8816" lon="2.06543">
        <ele>191.029209</ele>
        <time>2018-10-21T10:18:07.067Z</time>
      </trkpt>
      <trkpt lat="43.88232" lon="2.06363">
        <ele>189.727133</ele>
        <time>2018-10-21T10:18:37.939Z</time>
      </trkpt>
      <trkpt lat="43.88285" lon="2.06254">
        <ele>189.350264</ele>
        <time>2018-10-21T10:18:58.852Z</time>
      </trkpt>
      <trkpt lat="43.88308" lon="2.06228">
        <ele>189.339093</ele>
        <time>2018-10-21T10:19:05.550Z</time>
      </trkpt>
      <trkpt lat="43.8833" lon="2.06213">
        <ele>189.329546</ele>
        <time>2018-10-21T10:19:11.318Z</time>
      </trkpt>
      <trkpt lat="43.8833" lon="2.06213">
        <ele>189.329546</ele>
        <time>2018-10-21T10:19:11.396Z</time>
      </trkpt>
      <trkpt lat="43.8833" lon="2.06213">
        <ele>189.329546</ele>
        <time>2018-10-21T10:19:11.407Z</time>
      </trkpt>
      <trkpt lat="43.88365" lon="2.06198">
        <ele>189.315473</ele>
        <time>2018-10-21T10:19:20.070Z</time>
      </trkpt>
      <trkpt lat="43.88436" lon="2.06191">
        <ele>189.165499</ele>
        <time>2018-10-21T10:19:37.075Z</time>
      </trkpt>
      <trkpt lat="43.88511" lon="2.06196">
        <ele>188.731443</ele>
        <time>2018-10-21T10:19:54.311Z</time>
      </trkpt>
      <trkpt lat="43.88577" lon="2.06219">
        <ele>188.33548</ele>
        <time>2018-10-21T10:20:08.138Z</time>
      </trkpt>
      <trkpt lat="43.88602" lon="2.0622">
        <ele>188.077622</ele>
        <time>2018-10-21T10:20:12.798Z</time>
      </trkpt>
      <trkpt lat="43.88613" lon="2.06217">
        <ele>187.889296</ele>
        <time>2018-10-21T10:20:14.886Z</time>
      </trkpt>
      <trkpt lat="43.88688" lon="2.06089">
        <ele>185.946304</ele>
        <time>2018-10-21T10:20:36.308Z</time>
      </trkpt>
      <trkpt lat="43.88689" lon="2.0606">
        <ele>185.604548</ele>
        <time>2018-10-21T10:20:39.998Z</time>
      </trkpt>
      <trkpt lat="43.88686" lon="2.06027">
        <ele>185.246699</ele>
        <time>2018-10-21T10:20:44.457Z</time>
      </trkpt>
      <trkpt lat="43.88684" lon="2.06007">
        <ele>185.097767</ele>
        <time>2018-10-21T10:20:47.124Z</time>
      </trkpt>
      <trkpt lat="43.88692" lon="2.0599">
        <ele>184.948318</ele>
        <time>2018-10-21T10:20:49.831Z</time>
      </trkpt>
      <trkpt lat="43.88766" lon="2.05927">
        <ele>184.040726</ele>
        <time>2018-10-21T10:21:06.425Z</time>
      </trkpt>
      <trkpt lat="43.88822" lon="2.05862">
        <ele>183.388098</ele>
        <time>2018-10-21T10:21:21.247Z</time>
      </trkpt>
      <trkpt lat="43.88899" lon="2.05777">
        <ele>183.02627</ele>
        <time>2018-10-21T10:21:41.504Z</time>
      </trkpt>
      <trkpt lat="43.88933" lon="2.05732">
        <ele>182.855085</ele>
        <time>2018-10-21T10:21:51.477Z</time>
      </trkpt>
      <trkpt lat="43.88957" lon="2.0568">
        <ele>182.911636</ele>
        <time>2018-10-21T10:22:01.334Z</time>
      </trkpt>
      <trkpt lat="43.88978" lon="2.05591">
        <ele>183.239209</ele>
        <time>2018-10-21T10:22:17.428Z</time>
      </trkpt>
      <trkpt lat="43.88998" lon="2.05543">
        <ele>183.433248</ele>
        <time>2018-10-21T10:22:27.520Z</time>
      </trkpt>
      <trkpt lat="43.89125" lon="2.05388">
        <ele>184.352073</ele>
        <time>2018-10-21T10:23:10.362Z</time>
      </trkpt>
      <trkpt lat="43.89287" lon="2.05275">
        <ele>184.050618</ele>
        <time>2018-10-21T10:23:51.781Z</time>
      </trkpt>
      <trkpt lat="43.89359" lon="2.05234">
        <ele>183.1407</ele>
        <time>2018-10-21T10:24:06.142Z</time>
      </trkpt>
      <trkpt lat="43.89545" lon="2.05281">
        <ele>177.924193</ele>
        <time>2018-10-21T10:24:36.928Z</time>
      </trkpt>
      <trkpt lat="43.89597" lon="2.05281">
        <ele>176.756882</ele>
        <time>2018-10-21T10:24:45.467Z</time>
      </trkpt>
      <trkpt lat="43.89649" lon="2.05262">
        <ele>175.563754</ele>
        <time>2018-10-21T10:24:54.711Z</time>
      </trkpt>
      <trkpt lat="43.89651" lon="2.05321">
        <ele>174.623635</ele>
        <time>2018-10-21T10:25:03.108Z</time>
      </trkpt>
      <trkpt lat="43.89658" lon="2.05365">
        <ele>174.738428</ele>
        <time>2018-10-21T10:25:10.359Z</time>
      </trkpt>
      <trkpt lat="43.89675" lon="2.05404">
        <ele>174.877121</ele>
        <time>2018-10-21T10:25:18.068Z</time>
      </trkpt>
      <trkpt lat="43.89757" lon="2.05487">
        <ele>175.305502</ele>
        <time>2018-10-21T10:25:45.674Z</time>
      </trkpt>
      <trkpt lat="43.89777" lon="2.05515">
        <ele>175.424108</ele>
        <time>2018-10-21T10:25:53.641Z</time>
      </trkpt>
      <trkpt lat="43.89797" lon="2.0555">
        <ele>175.557946</ele>
        <time>2018-10-21T10:26:02.330Z</time>
      </trkpt>
      <trkpt lat="43.89833" lon="2.0565">
        <ele>175.896499</ele>
        <time>2018-10-21T10:26:22.538Z</time>
      </trkpt>
      <trkpt lat="43.89867" lon="2.05684">
        <ele>176.073538</ele>
        <time>2018-10-21T10:26:32.044Z</time>
      </trkpt>
      <trkpt lat="43.89896" lon="2.05797">
        <ele>175.968938</ele>
        <time>2018-10-21T10:26:50.907Z</time>
      </trkpt>
      <trkpt lat="43.89915" lon="2.05898">
        <ele>175.821987</ele>
        <time>2018-10-21T10:27:07.703Z</time>
      </trkpt>
      <trkpt lat="43.89933" lon="2.0603">
        <ele>175.723917</ele>
        <time>2018-10-21T10:27:30.782Z</time>
      </trkpt>
      <trkpt lat="43.89954" lon="2.06118">
        <ele>175.682008</ele>
        <time>2018-10-21T10:27:46.269Z</time>
      </trkpt>
      <trkpt lat="43.89962" lon="2.06143">
        <ele>175.669653</ele>
        <time>2018-10-21T10:27:50.996Z</time>
      </trkpt>
      <trkpt lat="43.89976" lon="2.06188">
        <ele>175.621126</ele>
        <time>2018-10-21T10:27:58.706Z</time>
      </trkpt>
      <trkpt lat="43.8999" lon="2.06233">
        <ele>175.505799</ele>
        <time>2018-10-21T10:28:06.095Z</time>
      </trkpt>
      <trkpt lat="43.90031" lon="2.06315">
        <ele>175.269878</ele>
        <time>2018-10-21T10:28:21.370Z</time>
      </trkpt>
      <trkpt lat="43.90051" lon="2.06372">
        <ele>175.121341</ele>
        <time>2018-10-21T10:28:31.416Z</time>
      </trkpt>
      <trkpt lat="43.90052" lon="2.06376">
        <ele>175.11073</ele>
        <time>2018-10-21T10:28:31.926Z</time>
      </trkpt>
      <trkpt lat="43.90061" lon="2.06412">
        <ele>175.245436</ele>
        <time>2018-10-21T10:28:39.321Z</time>
      </trkpt>
      <trkpt lat="43.90077" lon="2.06531">
        <ele>176.337532</ele>
        <time>2018-10-21T10:29:01.503Z</time>
      </trkpt>
      <trkpt lat="43.90074" lon="2.06554">
        <ele>176.553129</ele>
        <time>2018-10-21T10:29:07.126Z</time>
      </trkpt>
      <trkpt lat="43.90047" lon="2.06755">
        <ele>178.970488</ele>
        <time>2018-10-21T10:29:55.085Z</time>
      </trkpt>
      <trkpt lat="43.90034" lon="2.06813">
        <ele>179.810588</ele>
        <time>2018-10-21T10:30:08.770Z</time>
      </trkpt>
      <trkpt lat="43.90038" lon="2.0683">
        <ele>180.047205</ele>
        <time>2018-10-21T10:30:12.067Z</time>
      </trkpt>
      <trkpt lat="43.90053" lon="2.06849">
        <ele>180.433263</ele>
        <time>2018-10-21T10:30:18.212Z</time>
      </trkpt>
      <trkpt lat="43.90094" lon="2.0689">
        <ele>181.010109</ele>
        <time>2018-10-21T10:30:32.056Z</time>
      </trkpt>
      <trkpt lat="43.90111" lon="2.06913">
        <ele>181.179726</ele>
        <time>2018-10-21T10:30:38.849Z</time>
      </trkpt>
      <trkpt lat="43.90137" lon="2.06952">
        <ele>181.45037</ele>
        <time>2018-10-21T10:30:48.758Z</time>
      </trkpt>
      <trkpt lat="43.9019" lon="2.07033">
        <ele>182.010519</ele>
        <time>2018-10-21T10:31:08.281Z</time>
      </trkpt>
      <trkpt lat="43.90219" lon="2.07061">
        <ele>182.125734</ele>
        <time>2018-10-21T10:31:17.022Z</time>
      </trkpt>
      <trkpt lat="43.90233" lon="2.07095">
        <ele>182.192866</ele>
        <time>2018-10-21T10:31:23.243Z</time>
      </trkpt>
      <trkpt lat="43.90255" lon="2.07109">
        <ele>182.250279</ele>
        <time>2018-10-21T10:31:29.101Z</time>
      </trkpt>
      <trkpt lat="43.903" lon="2.07114">
        <ele>182.358928</ele>
        <time>2018-10-21T10:31:40.555Z</time>
      </trkpt>
      <trkpt lat="43.90324" lon="2.07128">
        <ele>182.421291</ele>
        <time>2018-10-21T10:31:47.170Z</time>
      </trkpt>
      <trkpt lat="43.90343" lon="2.07151">
        <ele>182.48257</ele>
        <time>2018-10-21T10:31:53.722Z</time>
      </trkpt>
      <trkpt lat="43.90357" lon="2.0718">
        <ele>182.037865</ele>
        <time>2018-10-21T10:32:00.166Z</time>
      </trkpt>
      <trkpt lat="43.90376" lon="2.07267">
        <ele>180.773365</ele>
        <time>2018-10-21T10:32:12.798Z</time>
      </trkpt>
      <trkpt lat="43.90389" lon="2.07385">
        <ele>179.122954</ele>
        <time>2018-10-21T10:32:27.934Z</time>
      </trkpt>
      <trkpt lat="43.90386" lon="2.07384">
        <ele>179.069162</ele>
        <time>2018-10-21T10:32:28.319Z</time>
      </trkpt>
      <trkpt lat="43.90443" lon="2.07385">
        <ele>176.842383</ele>
        <time>2018-10-21T10:32:37.780Z</time>
      </trkpt>
      <trkpt lat="43.90503" lon="2.07403">
        <ele>174.395795</ele>
        <time>2018-10-21T10:32:47.631Z</time>
      </trkpt>
      <trkpt lat="43.90549" lon="2.07404">
        <ele>172.540995</ele>
        <time>2018-10-21T10:32:55.080Z</time>
      </trkpt>
      <trkpt lat="43.90607" lon="2.07392">
        <ele>170.743287</ele>
        <time>2018-10-21T10:33:05.030Z</time>
      </trkpt>
      <trkpt lat="43.9065" lon="2.07375">
        <ele>169.561131</ele>
        <time>2018-10-21T10:33:12.743Z</time>
      </trkpt>
      <trkpt lat="43.90674" lon="2.07379">
        <ele>168.902046</ele>
        <time>2018-10-21T10:33:17.124Z</time>
      </trkpt>
      <trkpt lat="43.90707" lon="2.074">
        <ele>167.940787</ele>
        <time>2018-10-21T10:33:23.639Z</time>
      </trkpt>
      <trkpt lat="43.9076" lon="2.07456">
        <ele>166.762938</ele>
        <time>2018-10-21T10:33:36.146Z</time>
      </trkpt>
      <trkpt lat="43.90775" lon="2.07478">
        <ele>166.579881</ele>
        <time>2018-10-21T10:33:40.422Z</time>
      </trkpt>
      <trkpt lat="43.90824" lon="2.07519">
        <ele>166.096758</ele>
        <time>2018-10-21T10:33:52.070Z</time>
      </trkpt>
      <trkpt lat="43.90856" lon="2.07534">
        <ele>165.805603</ele>
        <time>2018-10-21T10:33:59.351Z</time>
      </trkpt>
      <trkpt lat="43.90872" lon="2.07552">
        <ele>165.637325</ele>
        <time>2018-10-21T10:34:03.783Z</time>
      </trkpt>
      <trkpt lat="43.90895" lon="2.076">
        <ele>165.609415</ele>
        <time>2018-10-21T10:34:13.823Z</time>
      </trkpt>
      <trkpt lat="43.90922" lon="2.07627">
        <ele>165.722412</ele>
        <time>2018-10-21T10:34:22.111Z</time>
      </trkpt>
      <trkpt lat="43.91011" lon="2.07659">
        <ele>166.040436</ele>
        <time>2018-10-21T10:34:45.128Z</time>
      </trkpt>
      <trkpt lat="43.9104" lon="2.07706">
        <ele>166.193854</ele>
        <time>2018-10-21T10:34:56.340Z</time>
      </trkpt>
      <trkpt lat="43.91031" lon="2.07723">
        <ele>166.247985</ele>
        <time>2018-10-21T10:34:59.980Z</time>
      </trkpt>
      <trkpt lat="43.9102" lon="2.0776">
        <ele>166.350173</ele>
        <time>2018-10-21T10:35:07.054Z</time>
      </trkpt>
      <trkpt lat="43.91009" lon="2.07795">
        <ele>166.445475</ele>
        <time>2018-10-21T10:35:13.669Z</time>
      </trkpt>
      <trkpt lat="43.9099" lon="2.07856">
        <ele>166.61209</ele>
        <time>2018-10-21T10:35:24.881Z</time>
      </trkpt>
      <trkpt lat="43.90957" lon="2.07961">
        <ele>166.903628</ele>
        <time>2018-10-21T10:35:43.872Z</time>
      </trkpt>
      <trkpt lat="43.90922" lon="2.08073">
        <ele>167.216118</ele>
        <time>2018-10-21T10:36:04.563Z</time>
      </trkpt>
      <trkpt lat="43.90913" lon="2.08167">
        <ele>167.536737</ele>
        <time>2018-10-21T10:36:20.889Z</time>
      </trkpt>
      <trkpt lat="43.90828" lon="2.08517">
        <ele>171.054671</ele>
        <time>2018-10-21T10:37:29.840Z</time>
      </trkpt>
      <trkpt lat="43.90823" lon="2.08547">
        <ele>171.52429</ele>
        <time>2018-10-21T10:37:37.644Z</time>
      </trkpt>
      <trkpt lat="43.90823" lon="2.08637">
        <ele>173.116025</ele>
        <time>2018-10-21T10:38:01.074Z</time>
      </trkpt>
      <trkpt lat="43.90816" lon="2.0865">
        <ele>173.633922</ele>
        <time>2018-10-21T10:38:05.064Z</time>
      </trkpt>
      <trkpt lat="43.90814" lon="2.08653">
        <ele>173.757779</ele>
        <time>2018-10-21T10:38:06.480Z</time>
      </trkpt>
      <trkpt lat="43.90817" lon="2.08663">
        <ele>174.117619</ele>
        <time>2018-10-21T10:38:09.627Z</time>
      </trkpt>
      <trkpt lat="43.9082" lon="2.08672">
        <ele>174.425237</ele>
        <time>2018-10-21T10:38:13.865Z</time>
      </trkpt>
      <trkpt lat="43.90837" lon="2.08839">
        <ele>179.741325</ele>
        <time>2018-10-21T10:39:03.979Z</time>
      </trkpt>
      <trkpt lat="43.90846" lon="2.08876">
        <ele>180.698154</ele>
        <time>2018-10-21T10:39:16.551Z</time>
      </trkpt>
      <trkpt lat="43.90864" lon="2.08949">
        <ele>181.365679</ele>
        <time>2018-10-21T10:39:33.563Z</time>
      </trkpt>
      <trkpt lat="43.90871" lon="2.09064">
        <ele>182.358181</ele>
        <time>2018-10-21T10:39:53.566Z</time>
      </trkpt>
      <trkpt lat="43.9088" lon="2.091">
        <ele>182.688435</ele>
        <time>2018-10-21T10:39:59.549Z</time>
      </trkpt>
      <trkpt lat="43.90883" lon="2.09109">
        <ele>182.716988</ele>
        <time>2018-10-21T10:40:00.680Z</time>
      </trkpt>
      <trkpt lat="43.90915" lon="2.09173">
        <ele>182.13185</ele>
        <time>2018-10-21T10:40:11.703Z</time>
      </trkpt>
      <trkpt lat="43.90925" lon="2.0923">
        <ele>181.696515</ele>
        <time>2018-10-21T10:40:19.696Z</time>
      </trkpt>
      <trkpt lat="43.90927" lon="2.09341">
        <ele>180.870259</ele>
        <time>2018-10-21T10:40:34.437Z</time>
      </trkpt>
      <trkpt lat="43.90928" lon="2.09379">
        <ele>180.519159</ele>
        <time>2018-10-21T10:40:39.989Z</time>
      </trkpt>
      <trkpt lat="43.90932" lon="2.09508">
        <ele>179.348933</ele>
        <time>2018-10-21T10:40:58.335Z</time>
      </trkpt>
      <trkpt lat="43.90919" lon="2.09623">
        <ele>178.065878</ele>
        <time>2018-10-21T10:41:13.252Z</time>
      </trkpt>
      <trkpt lat="43.90914" lon="2.09745">
        <ele>176.179748</ele>
        <time>2018-10-21T10:41:28.533Z</time>
      </trkpt>
      <trkpt lat="43.90915" lon="2.09782">
        <ele>175.600577</ele>
        <time>2018-10-21T10:41:33.150Z</time>
      </trkpt>
      <trkpt lat="43.90916" lon="2.09826">
        <ele>174.931824</ele>
        <time>2018-10-21T10:41:38.574Z</time>
      </trkpt>
      <trkpt lat="43.90918" lon="2.09837">
        <ele>174.748646</ele>
        <time>2018-10-21T10:41:40.087Z</time>
      </trkpt>
      <trkpt lat="43.90923" lon="2.09861">
        <ele>174.4688</ele>
        <time>2018-10-21T10:41:43.234Z</time>
      </trkpt>
      <trkpt lat="43.90961" lon="2.09962">
        <ele>173.182642</ele>
        <time>2018-10-21T10:41:57.836Z</time>
      </trkpt>
      <trkpt lat="43.90996" lon="2.101">
        <ele>171.785834</ele>
        <time>2018-10-21T10:42:18.024Z</time>
      </trkpt>
      <trkpt lat="43.90998" lon="2.10117">
        <ele>171.713744</ele>
        <time>2018-10-21T10:42:20.350Z</time>
      </trkpt>
      <trkpt lat="43.90994" lon="2.10119">
        <ele>171.683228</ele>
        <time>2018-10-21T10:42:21.408Z</time>
      </trkpt>
      <trkpt lat="43.90989" lon="2.10123">
        <ele>171.652554</ele>
        <time>2018-10-21T10:42:22.441Z</time>
      </trkpt>
      <trkpt lat="43.90987" lon="2.10135">
        <ele>171.602465</ele>
        <time>2018-10-21T10:42:24.268Z</time>
      </trkpt>
      <trkpt lat="43.90991" lon="2.10144">
        <ele>171.554296</ele>
        <time>2018-10-21T10:42:25.827Z</time>
      </trkpt>
      <trkpt lat="43.90994" lon="2.10147">
        <ele>171.53261</ele>
        <time>2018-10-21T10:42:26.551Z</time>
      </trkpt>
      <trkpt lat="43.91002" lon="2.10148">
        <ele>171.489809</ele>
        <time>2018-10-21T10:42:28.000Z</time>
      </trkpt>
      <trkpt lat="43.91012" lon="2.10212">
        <ele>171.208368</ele>
        <time>2018-10-21T10:42:37.952Z</time>
      </trkpt>
      <trkpt lat="43.91012" lon="2.10219">
        <ele>171.180989</ele>
        <time>2018-10-21T10:42:39.029Z</time>
      </trkpt>
      <trkpt lat="43.91011" lon="2.10252">
        <ele>171.038128</ele>
        <time>2018-10-21T10:42:43.920Z</time>
      </trkpt>
      <trkpt lat="43.90986" lon="2.10393">
        <ele>170.745926</ele>
        <time>2018-10-21T10:43:06.323Z</time>
      </trkpt>
      <trkpt lat="43.90987" lon="2.10423">
        <ele>170.709384</ele>
        <time>2018-10-21T10:43:11.013Z</time>
      </trkpt>
      <trkpt lat="43.90993" lon="2.10457">
        <ele>170.666846</ele>
        <time>2018-10-21T10:43:16.364Z</time>
      </trkpt>
      <trkpt lat="43.90996" lon="2.10472">
        <ele>170.648541</ele>
        <time>2018-10-21T10:43:18.809Z</time>
      </trkpt>
      <trkpt lat="43.90994" lon="2.10513">
        <ele>170.59818</ele>
        <time>2018-10-21T10:43:25.553Z</time>
      </trkpt>
      <trkpt lat="43.90984" lon="2.10567">
        <ele>170.676914</ele>
        <time>2018-10-21T10:43:34.679Z</time>
      </trkpt>
      <trkpt lat="43.90978" lon="2.10596">
        <ele>170.764971</ele>
        <time>2018-10-21T10:43:39.472Z</time>
      </trkpt>
      <trkpt lat="43.90976" lon="2.10606">
        <ele>170.795158</ele>
        <time>2018-10-21T10:43:41.172Z</time>
      </trkpt>
      <trkpt lat="43.90972" lon="2.1064">
        <ele>170.899726</ele>
        <time>2018-10-21T10:43:46.984Z</time>
      </trkpt>
      <trkpt lat="43.90971" lon="2.10647">
        <ele>170.918761</ele>
        <time>2018-10-21T10:43:48.174Z</time>
      </trkpt>
      <trkpt lat="43.90964" lon="2.10696">
        <ele>171.067102</ele>
        <time>2018-10-21T10:43:56.901Z</time>
      </trkpt>
      <trkpt lat="43.90964" lon="2.10713">
        <ele>171.117196</ele>
        <time>2018-10-21T10:43:59.928Z</time>
      </trkpt>
      <trkpt lat="43.90964" lon="2.1075">
        <ele>171.228046</ele>
        <time>2018-10-21T10:44:06.662Z</time>
      </trkpt>
      <trkpt lat="43.90982" lon="2.10813">
        <ele>171.505124</ele>
        <time>2018-10-21T10:44:19.120Z</time>
      </trkpt>
      <trkpt lat="43.90997" lon="2.10869">
        <ele>171.804878</ele>
        <time>2018-10-21T10:44:30.356Z</time>
      </trkpt>
      <trkpt lat="43.91008" lon="2.10906">
        <ele>172.002326</ele>
        <time>2018-10-21T10:44:37.531Z</time>
      </trkpt>
      <trkpt lat="43.9101" lon="2.10913">
        <ele>172.042932</ele>
        <time>2018-10-21T10:44:38.926Z</time>
      </trkpt>
      <trkpt lat="43.91036" lon="2.10973">
        <ele>172.388562</ele>
        <time>2018-10-21T10:44:50.993Z</time>
      </trkpt>
      <trkpt lat="43.91041" lon="2.10988">
        <ele>172.474573</ele>
        <time>2018-10-21T10:44:53.988Z</time>
      </trkpt>
      <trkpt lat="43.91067" lon="2.11061">
        <ele>172.721624</ele>
        <time>2018-10-21T10:45:08.670Z</time>
      </trkpt>
      <trkpt lat="43.91075" lon="2.11077">
        <ele>172.770496</ele>
        <time>2018-10-21T10:45:11.932Z</time>
      </trkpt>
      <trkpt lat="43.91084" lon="2.11113">
        <ele>172.867729</ele>
        <time>2018-10-21T10:45:18.478Z</time>
      </trkpt>
      <trkpt lat="43.91088" lon="2.11146">
        <ele>172.954243</ele>
        <time>2018-10-21T10:45:24.231Z</time>
      </trkpt>
      <trkpt lat="43.91089" lon="2.1118">
        <ele>173.040858</ele>
        <time>2018-10-21T10:45:29.572Z</time>
      </trkpt>
      <trkpt lat="43.91088" lon="2.11189">
        <ele>173.063105</ele>
        <time>2018-10-21T10:45:31.100Z</time>
      </trkpt>
      <trkpt lat="43.91085" lon="2.1119">
        <ele>173.075001</ele>
        <time>2018-10-21T10:45:31.917Z</time>
      </trkpt>
      <trkpt lat="43.91083" lon="2.11194">
        <ele>173.0868</ele>
        <time>2018-10-21T10:45:32.679Z</time>
      </trkpt>
      <trkpt lat="43.91082" lon="2.11198">
        <ele>173.098483</ele>
        <time>2018-10-21T10:45:33.476Z</time>
      </trkpt>
      <trkpt lat="43.91083" lon="2.11204">
        <ele>173.113309</ele>
        <time>2018-10-21T10:45:34.382Z</time>
      </trkpt>
      <trkpt lat="43.91086" lon="2.11207">
        <ele>173.127913</ele>
        <time>2018-10-21T10:45:35.273Z</time>
      </trkpt>
      <trkpt lat="43.9109" lon="2.11207">
        <ele>173.142469</ele>
        <time>2018-10-21T10:45:36.190Z</time>
      </trkpt>
      <trkpt lat="43.91092" lon="2.1122">
        <ele>173.174529</ele>
        <time>2018-10-21T10:45:38.145Z</time>
      </trkpt>
      <trkpt lat="43.911" lon="2.11289">
        <ele>173.328596</ele>
        <time>2018-10-21T10:45:50.089Z</time>
      </trkpt>
      <trkpt lat="43.91107" lon="2.11322">
        <ele>173.401157</ele>
        <time>2018-10-21T10:45:55.934Z</time>
      </trkpt>
      <trkpt lat="43.91115" lon="2.11361">
        <ele>173.487046</ele>
        <time>2018-10-21T10:46:02.955Z</time>
      </trkpt>
      <trkpt lat="43.91115" lon="2.1137">
        <ele>173.507166</ele>
        <time>2018-10-21T10:46:04.531Z</time>
      </trkpt>
      <trkpt lat="43.91115" lon="2.11395">
        <ele>173.561746</ele>
        <time>2018-10-21T10:46:09.141Z</time>
      </trkpt>
      <trkpt lat="43.91109" lon="2.11434">
        <ele>173.645185</ele>
        <time>2018-10-21T10:46:15.354Z</time>
      </trkpt>
      <trkpt lat="43.91104" lon="2.11446">
        <ele>173.674903</ele>
        <time>2018-10-21T10:46:17.867Z</time>
      </trkpt>
      <trkpt lat="43.91099" lon="2.11486">
        <ele>173.761368</ele>
        <time>2018-10-21T10:46:24.497Z</time>
      </trkpt>
      <trkpt lat="43.91097" lon="2.11504">
        <ele>173.798235</ele>
        <time>2018-10-21T10:46:27.717Z</time>
      </trkpt>
      <trkpt lat="43.91096" lon="2.11519">
        <ele>173.830121</ele>
        <time>2018-10-21T10:46:30.146Z</time>
      </trkpt>
      <trkpt lat="43.91107" lon="2.11687">
        <ele>174.177372</ele>
        <time>2018-10-21T10:46:58.712Z</time>
      </trkpt>
      <trkpt lat="43.91102" lon="2.11687">
        <ele>174.191723</ele>
        <time>2018-10-21T10:46:59.982Z</time>
      </trkpt>
      <trkpt lat="43.91102" lon="2.11691">
        <ele>174.19936</ele>
        <time>2018-10-21T10:47:01.102Z</time>
      </trkpt>
      <trkpt lat="43.91112" lon="2.118">
        <ele>174.439935</ele>
        <time>2018-10-21T10:47:31.364Z</time>
      </trkpt>
      <trkpt lat="43.91114" lon="2.1182">
        <ele>174.483726</ele>
        <time>2018-10-21T10:47:36.887Z</time>
      </trkpt>
      <trkpt lat="43.91118" lon="2.11819">
        <ele>174.496544</ele>
        <time>2018-10-21T10:47:37.872Z</time>
      </trkpt>
      <trkpt lat="43.91125" lon="2.11881">
        <ele>174.636068</ele>
        <time>2018-10-21T10:47:48.778Z</time>
      </trkpt>
      <trkpt lat="43.91149" lon="2.11984">
        <ele>174.812381</ele>
        <time>2018-10-21T10:48:06.886Z</time>
      </trkpt>
      <trkpt lat="43.91151" lon="2.12006">
        <ele>174.821396</ele>
        <time>2018-10-21T10:48:10.601Z</time>
      </trkpt>
      <trkpt lat="43.91148" lon="2.12007">
        <ele>174.823186</ele>
        <time>2018-10-21T10:48:11.294Z</time>
      </trkpt>
      <trkpt lat="43.91143" lon="2.12012">
        <ele>174.826755</ele>
        <time>2018-10-21T10:48:12.656Z</time>
      </trkpt>
      <trkpt lat="43.91141" lon="2.12024">
        <ele>174.831968</ele>
        <time>2018-10-21T10:48:14.745Z</time>
      </trkpt>
      <trkpt lat="43.91142" lon="2.12028">
        <ele>174.833778</ele>
        <time>2018-10-21T10:48:15.538Z</time>
      </trkpt>
      <trkpt lat="43.91144" lon="2.12032">
        <ele>174.83561</ele>
        <time>2018-10-21T10:48:16.228Z</time>
      </trkpt>
      <trkpt lat="43.91153" lon="2.12035">
        <ele>174.841026</ele>
        <time>2018-10-21T10:48:18.375Z</time>
      </trkpt>
      <trkpt lat="43.91157" lon="2.12034">
        <ele>174.842903</ele>
        <time>2018-10-21T10:48:19.105Z</time>
      </trkpt>
      <trkpt lat="43.91159" lon="2.12031">
        <ele>174.844747</ele>
        <time>2018-10-21T10:48:19.838Z</time>
      </trkpt>
      <trkpt lat="43.91161" lon="2.12027">
        <ele>174.846607</ele>
        <time>2018-10-21T10:48:20.542Z</time>
      </trkpt>
      <trkpt lat="43.91184" lon="2.12052">
        <ele>174.863276</ele>
        <time>2018-10-21T10:48:27.058Z</time>
      </trkpt>
      <trkpt lat="43.9121" lon="2.12082">
        <ele>174.882191</ele>
        <time>2018-10-21T10:48:34.386Z</time>
      </trkpt>
      <trkpt lat="43.91214" lon="2.12085">
        <ele>174.884896</ele>
        <time>2018-10-21T10:48:35.437Z</time>
      </trkpt>
      <trkpt lat="43.9122" lon="2.12091">
        <ele>174.889095</ele>
        <time>2018-10-21T10:48:37.026Z</time>
      </trkpt>
      <trkpt lat="43.91223" lon="2.12095">
        <ele>174.891708</ele>
        <time>2018-10-21T10:48:38.026Z</time>
      </trkpt>
      <trkpt lat="43.91229" lon="2.12101">
        <ele>174.89565</ele>
        <time>2018-10-21T10:48:39.615Z</time>
      </trkpt>
      <trkpt lat="43.91345" lon="2.12196">
        <ele>174.956004</ele>
        <time>2018-10-21T10:49:09.579Z</time>
      </trkpt>
      <trkpt lat="43.91365" lon="2.12212">
        <ele>174.966511</ele>
        <time>2018-10-21T10:49:14.992Z</time>
      </trkpt>
      <trkpt lat="43.91391" lon="2.12232">
        <ele>174.979139</ele>
        <time>2018-10-21T10:49:21.795Z</time>
      </trkpt>
      <trkpt lat="43.91407" lon="2.12242">
        <ele>174.94078</ele>
        <time>2018-10-21T10:49:25.790Z</time>
      </trkpt>
      <trkpt lat="43.91406" lon="2.12249">
        <ele>174.929618</ele>
        <time>2018-10-21T10:49:27.785Z</time>
      </trkpt>
      <trkpt lat="43.91412" lon="2.12273">
        <ele>174.889441</ele>
        <time>2018-10-21T10:49:34.460Z</time>
      </trkpt>
      <trkpt lat="43.91411" lon="2.12278">
        <ele>174.882036</ele>
        <time>2018-10-21T10:49:35.784Z</time>
      </trkpt>
      <trkpt lat="43.91415" lon="2.1228">
        <ele>174.872625</ele>
        <time>2018-10-21T10:49:37.345Z</time>
      </trkpt>
      <trkpt lat="43.91421" lon="2.12282">
        <ele>174.860733</ele>
        <time>2018-10-21T10:49:39.367Z</time>
      </trkpt>
      <trkpt lat="43.91424" lon="2.12284">
        <ele>174.853527</ele>
        <time>2018-10-21T10:49:40.637Z</time>
      </trkpt>
      <trkpt lat="43.91432" lon="2.12278">
        <ele>174.833375</ele>
        <time>2018-10-21T10:49:42.605Z</time>
      </trkpt>
      <trkpt lat="43.91446" lon="2.12269">
        <ele>174.798969</ele>
        <time>2018-10-21T10:49:46.028Z</time>
      </trkpt>
      <trkpt lat="43.91448" lon="2.12263">
        <ele>174.789439</ele>
        <time>2018-10-21T10:49:46.967Z</time>
      </trkpt>
      <trkpt lat="43.91453" lon="2.12266">
        <ele>174.777549</ele>
        <time>2018-10-21T10:49:48.278Z</time>
      </trkpt>
      <trkpt lat="43.91476" lon="2.12277">
        <ele>174.72557</ele>
        <time>2018-10-21T10:49:53.592Z</time>
      </trkpt>
      <trkpt lat="43.91481" lon="2.1228">
        <ele>174.713158</ele>
        <time>2018-10-21T10:49:54.858Z</time>
      </trkpt>
      <trkpt lat="43.91502" lon="2.1229">
        <ele>174.665406</ele>
        <time>2018-10-21T10:49:59.681Z</time>
      </trkpt>
      <trkpt lat="43.91532" lon="2.12306">
        <ele>174.593829</ele>
        <time>2018-10-21T10:50:06.782Z</time>
      </trkpt>
      <trkpt lat="43.91562" lon="2.12319">
        <ele>174.366904</ele>
        <time>2018-10-21T10:50:13.207Z</time>
      </trkpt>
      <trkpt lat="43.91636" lon="2.12346">
        <ele>173.753362</ele>
        <time>2018-10-21T10:50:28.958Z</time>
      </trkpt>
      <trkpt lat="43.91647" lon="2.12355">
        <ele>173.653652</ele>
        <time>2018-10-21T10:50:31.485Z</time>
      </trkpt>
      <trkpt lat="43.91663" lon="2.12368">
        <ele>173.501447</ele>
        <time>2018-10-21T10:50:35.284Z</time>
      </trkpt>
      <trkpt lat="43.91738" lon="2.12426">
        <ele>172.971959</ele>
        <time>2018-10-21T10:50:52.993Z</time>
      </trkpt>
      <trkpt lat="43.91748" lon="2.12435">
        <ele>172.921951</ele>
        <time>2018-10-21T10:50:55.378Z</time>
      </trkpt>
      <trkpt lat="43.91757" lon="2.12443">
        <ele>172.873013</ele>
        <time>2018-10-21T10:50:57.738Z</time>
      </trkpt>
      <trkpt lat="43.91772" lon="2.12455">
        <ele>172.797756</ele>
        <time>2018-10-21T10:51:01.478Z</time>
      </trkpt>
      <trkpt lat="43.91785" lon="2.12466">
        <ele>172.734491</ele>
        <time>2018-10-21T10:51:04.548Z</time>
      </trkpt>
      <trkpt lat="43.91778" lon="2.12497">
        <ele>172.63405</ele>
        <time>2018-10-21T10:51:09.787Z</time>
      </trkpt>
      <trkpt lat="43.91773" lon="2.12538">
        <ele>172.503912</ele>
        <time>2018-10-21T10:51:16.570Z</time>
      </trkpt>
      <trkpt lat="43.91769" lon="2.12562">
        <ele>172.426399</ele>
        <time>2018-10-21T10:51:20.543Z</time>
      </trkpt>
      <trkpt lat="43.91762" lon="2.12618">
        <ele>172.425598</ele>
        <time>2018-10-21T10:51:29.953Z</time>
      </trkpt>
      <trkpt lat="43.91719" lon="2.12776">
        <ele>172.646096</ele>
        <time>2018-10-21T10:51:59.582Z</time>
      </trkpt>
      <trkpt lat="43.91699" lon="2.12851">
        <ele>172.705206</ele>
        <time>2018-10-21T10:52:13.198Z</time>
      </trkpt>
      <trkpt lat="43.91698" lon="2.12856">
        <ele>172.70597</ele>
        <time>2018-10-21T10:52:14.531Z</time>
      </trkpt>
      <trkpt lat="43.917" lon="2.12859">
        <ele>172.70655</ele>
        <time>2018-10-21T10:52:15.187Z</time>
      </trkpt>
      <trkpt lat="43.91775" lon="2.12897">
        <ele>172.72058</ele>
        <time>2018-10-21T10:52:33.817Z</time>
      </trkpt>
      <trkpt lat="43.91788" lon="2.12905">
        <ele>172.723013</ele>
        <time>2018-10-21T10:52:36.829Z</time>
      </trkpt>
      <trkpt lat="43.91822" lon="2.12924">
        <ele>172.729587</ele>
        <time>2018-10-21T10:52:45.263Z</time>
      </trkpt>
      <trkpt lat="43.91839" lon="2.12934">
        <ele>172.739029</ele>
        <time>2018-10-21T10:52:49.336Z</time>
      </trkpt>
      <trkpt lat="43.91903" lon="2.12974">
        <ele>172.865822</ele>
        <time>2018-10-21T10:53:05.508Z</time>
      </trkpt>
      <trkpt lat="43.91928" lon="2.1299">
        <ele>172.91423</ele>
        <time>2018-10-21T10:53:11.852Z</time>
      </trkpt>
      <trkpt lat="43.91937" lon="2.12995">
        <ele>172.932673</ele>
        <time>2018-10-21T10:53:14.355Z</time>
      </trkpt>
      <trkpt lat="43.91938" lon="2.13022">
        <ele>172.967449</ele>
        <time>2018-10-21T10:53:19.023Z</time>
      </trkpt>
      <trkpt lat="43.91939" lon="2.13055">
        <ele>173.009564</ele>
        <time>2018-10-21T10:53:24.740Z</time>
      </trkpt>
      <trkpt lat="43.91932" lon="2.13068">
        <ele>173.030721</ele>
        <time>2018-10-21T10:53:27.603Z</time>
      </trkpt>
      <trkpt lat="43.9193" lon="2.13068">
        <ele>173.034307</ele>
        <time>2018-10-21T10:53:28.079Z</time>
      </trkpt>
      <trkpt lat="43.91927" lon="2.1307">
        <ele>173.040833</ele>
        <time>2018-10-21T10:53:28.932Z</time>
      </trkpt>
      <trkpt lat="43.91925" lon="2.13071">
        <ele>173.044514</ele>
        <time>2018-10-21T10:53:29.439Z</time>
      </trkpt>
      <trkpt lat="43.91923" lon="2.13075">
        <ele>173.051156</ele>
        <time>2018-10-21T10:53:30.331Z</time>
      </trkpt>
      <trkpt lat="43.91921" lon="2.13083">
        <ele>173.081441</ele>
        <time>2018-10-21T10:53:31.732Z</time>
      </trkpt>
      <trkpt lat="43.91922" lon="2.1309">
        <ele>173.112313</ele>
        <time>2018-10-21T10:53:32.979Z</time>
      </trkpt>
      <trkpt lat="43.91925" lon="2.13094">
        <ele>173.135736</ele>
        <time>2018-10-21T10:53:33.895Z</time>
      </trkpt>
      <trkpt lat="43.91927" lon="2.13095">
        <ele>173.151133</ele>
        <time>2018-10-21T10:53:34.507Z</time>
      </trkpt>
      <trkpt lat="43.9193" lon="2.13097">
        <ele>173.174544</ele>
        <time>2018-10-21T10:53:35.400Z</time>
      </trkpt>
      <trkpt lat="43.91933" lon="2.13097">
        <ele>173.19488</ele>
        <time>2018-10-21T10:53:36.167Z</time>
      </trkpt>
      <trkpt lat="43.91939" lon="2.13103">
        <ele>173.238914</ele>
        <time>2018-10-21T10:53:37.851Z</time>
      </trkpt>
      <trkpt lat="43.91943" lon="2.13112">
        <ele>173.28876</ele>
        <time>2018-10-21T10:53:39.734Z</time>
      </trkpt>
      <trkpt lat="43.91948" lon="2.13204">
        <ele>173.710381</ele>
        <time>2018-10-21T10:53:56.436Z</time>
      </trkpt>
      <trkpt lat="43.9195" lon="2.13232">
        <ele>173.840455</ele>
        <time>2018-10-21T10:54:01.607Z</time>
      </trkpt>
      <trkpt lat="43.91956" lon="2.1332">
        <ele>174.246106</ele>
        <time>2018-10-21T10:54:17.498Z</time>
      </trkpt>
      <trkpt lat="43.91957" lon="2.13342">
        <ele>174.346656</ele>
        <time>2018-10-21T10:54:21.276Z</time>
      </trkpt>
      <trkpt lat="43.91958" lon="2.13354">
        <ele>174.406588</ele>
        <time>2018-10-21T10:54:23.579Z</time>
      </trkpt>
      <trkpt lat="43.91967" lon="2.13501">
        <ele>175.095924</ele>
        <time>2018-10-21T10:54:49.681Z</time>
      </trkpt>
      <trkpt lat="43.91977" lon="2.13505">
        <ele>175.164058</ele>
        <time>2018-10-21T10:54:52.389Z</time>
      </trkpt>
      <trkpt lat="43.92044" lon="2.13539">
        <ele>175.633933</ele>
        <time>2018-10-21T10:55:09.935Z</time>
      </trkpt>
      <trkpt lat="43.92057" lon="2.13554">
        <ele>175.75069</ele>
        <time>2018-10-21T10:55:14.215Z</time>
      </trkpt>
      <trkpt lat="43.92104" lon="2.13645">
        <ele>176.295436</ele>
        <time>2018-10-21T10:55:35.136Z</time>
      </trkpt>
      <trkpt lat="43.92187" lon="2.1381">
        <ele>176.807896</ele>
        <time>2018-10-21T10:56:10.080Z</time>
      </trkpt>
      <trkpt lat="43.92191" lon="2.13818">
        <ele>176.824546</ele>
        <time>2018-10-21T10:56:11.925Z</time>
      </trkpt>
      <trkpt lat="43.92203" lon="2.1383">
        <ele>176.856205</ele>
        <time>2018-10-21T10:56:15.008Z</time>
      </trkpt>
      <trkpt lat="43.92226" lon="2.13886">
        <ele>176.958838</ele>
        <time>2018-10-21T10:56:25.145Z</time>
      </trkpt>
      <trkpt lat="43.92229" lon="2.13896">
        <ele>176.975605</ele>
        <time>2018-10-21T10:56:26.750Z</time>
      </trkpt>
      <trkpt lat="43.92226" lon="2.139">
        <ele>176.972734</ele>
        <time>2018-10-21T10:56:27.596Z</time>
      </trkpt>
      <trkpt lat="43.92225" lon="2.13903">
        <ele>176.960789</ele>
        <time>2018-10-21T10:56:28.067Z</time>
      </trkpt>
      <trkpt lat="43.92224" lon="2.13906">
        <ele>176.94513</ele>
        <time>2018-10-21T10:56:28.679Z</time>
      </trkpt>
      <trkpt lat="43.92226" lon="2.13912">
        <ele>176.921634</ele>
        <time>2018-10-21T10:56:29.582Z</time>
      </trkpt>
      <trkpt lat="43.92229" lon="2.13918">
        <ele>176.893347</ele>
        <time>2018-10-21T10:56:30.730Z</time>
      </trkpt>
      <trkpt lat="43.92231" lon="2.1392">
        <ele>176.881225</ele>
        <time>2018-10-21T10:56:31.216Z</time>
      </trkpt>
      <trkpt lat="43.92233" lon="2.1393">
        <ele>176.841135</ele>
        <time>2018-10-21T10:56:32.823Z</time>
      </trkpt>
      <trkpt lat="43.92235" lon="2.13948">
        <ele>176.772821</ele>
        <time>2018-10-21T10:56:35.596Z</time>
      </trkpt>
      <trkpt lat="43.92249" lon="2.14164">
        <ele>175.948587</ele>
        <time>2018-10-21T10:57:07.196Z</time>
      </trkpt>
      <trkpt lat="43.9225" lon="2.14178">
        <ele>175.893143</ele>
        <time>2018-10-21T10:57:09.433Z</time>
      </trkpt>
      <trkpt lat="43.92249" lon="2.14192">
        <ele>175.841394</ele>
        <time>2018-10-21T10:57:11.343Z</time>
      </trkpt>
      <trkpt lat="43.92248" lon="2.1419">
        <ele>175.83127</ele>
        <time>2018-10-21T10:57:11.683Z</time>
      </trkpt>
      <trkpt lat="43.92246" lon="2.14188">
        <ele>175.821721</ele>
        <time>2018-10-21T10:57:12.037Z</time>
      </trkpt>
      <trkpt lat="43.92244" lon="2.14188">
        <ele>175.811809</ele>
        <time>2018-10-21T10:57:12.439Z</time>
      </trkpt>
      <trkpt lat="43.92243" lon="2.14188">
        <ele>175.802058</ele>
        <time>2018-10-21T10:57:12.810Z</time>
      </trkpt>
      <trkpt lat="43.92239" lon="2.14193">
        <ele>175.773126</ele>
        <time>2018-10-21T10:57:13.959Z</time>
      </trkpt>
      <trkpt lat="43.92239" lon="2.14196">
        <ele>175.763343</ele>
        <time>2018-10-21T10:57:14.335Z</time>
      </trkpt>
      <trkpt lat="43.92239" lon="2.14198">
        <ele>175.753101</ele>
        <time>2018-10-21T10:57:14.722Z</time>
      </trkpt>
      <trkpt lat="43.9224" lon="2.142">
        <ele>175.743261</ele>
        <time>2018-10-21T10:57:15.123Z</time>
      </trkpt>
      <trkpt lat="43.92241" lon="2.14202">
        <ele>175.733217</ele>
        <time>2018-10-21T10:57:15.515Z</time>
      </trkpt>
      <trkpt lat="43.92244" lon="2.14214">
        <ele>175.683811</ele>
        <time>2018-10-21T10:57:17.479Z</time>
      </trkpt>
      <trkpt lat="43.92247" lon="2.14222">
        <ele>175.650015</ele>
        <time>2018-10-21T10:57:18.715Z</time>
      </trkpt>
      <trkpt lat="43.92248" lon="2.14224">
        <ele>175.638206</ele>
        <time>2018-10-21T10:57:19.113Z</time>
      </trkpt>
      <trkpt lat="43.92256" lon="2.14234">
        <ele>175.579526</ele>
        <time>2018-10-21T10:57:21.258Z</time>
      </trkpt>
      <trkpt lat="43.92256" lon="2.14237">
        <ele>175.567468</ele>
        <time>2018-10-21T10:57:21.682Z</time>
      </trkpt>
      <trkpt lat="43.92258" lon="2.14243">
        <ele>175.544196</ele>
        <time>2018-10-21T10:57:22.556Z</time>
      </trkpt>
      <trkpt lat="43.9226" lon="2.14244">
        <ele>175.53244</ele>
        <time>2018-10-21T10:57:23.019Z</time>
      </trkpt>
      <trkpt lat="43.92262" lon="2.14245">
        <ele>175.520681</ele>
        <time>2018-10-21T10:57:23.503Z</time>
      </trkpt>
      <trkpt lat="43.92268" lon="2.14242">
        <ele>175.486035</ele>
        <time>2018-10-21T10:57:24.862Z</time>
      </trkpt>
      <trkpt lat="43.92269" lon="2.14239">
        <ele>175.474307</ele>
        <time>2018-10-21T10:57:25.320Z</time>
      </trkpt>
      <trkpt lat="43.92295" lon="2.14267">
        <ele>175.297416</ele>
        <time>2018-10-21T10:57:31.930Z</time>
      </trkpt>
      <trkpt lat="43.92299" lon="2.14272">
        <ele>175.268286</ele>
        <time>2018-10-21T10:57:33.036Z</time>
      </trkpt>
      <trkpt lat="43.92303" lon="2.14276">
        <ele>175.243049</ele>
        <time>2018-10-21T10:57:33.900Z</time>
      </trkpt>
      <trkpt lat="43.9236" lon="2.14342">
        <ele>175.024581</ele>
        <time>2018-10-21T10:57:49.178Z</time>
      </trkpt>
      <trkpt lat="43.92368" lon="2.14353">
        <ele>175.01401</ele>
        <time>2018-10-21T10:57:51.517Z</time>
      </trkpt>
      <trkpt lat="43.92377" lon="2.14362">
        <ele>175.003224</ele>
        <time>2018-10-21T10:57:53.948Z</time>
      </trkpt>
      <trkpt lat="43.92378" lon="2.14364">
        <ele>175.001828</ele>
        <time>2018-10-21T10:57:54.336Z</time>
      </trkpt>
      <trkpt lat="43.92422" lon="2.14419">
        <ele>174.944211</ele>
        <time>2018-10-21T10:58:07.015Z</time>
      </trkpt>
      <trkpt lat="43.92447" lon="2.14448">
        <ele>174.913054</ele>
        <time>2018-10-21T10:58:14.394Z</time>
      </trkpt>
      <trkpt lat="43.92465" lon="2.1447">
        <ele>174.89927</ele>
        <time>2018-10-21T10:58:20.201Z</time>
      </trkpt>
      <trkpt lat="43.92471" lon="2.14477">
        <ele>174.968524</ele>
        <time>2018-10-21T10:58:22.147Z</time>
      </trkpt>
      <trkpt lat="43.92475" lon="2.14482">
        <ele>175.010173</ele>
        <time>2018-10-21T10:58:23.437Z</time>
      </trkpt>
      <trkpt lat="43.92499" lon="2.14511">
        <ele>175.284773</ele>
        <time>2018-10-21T10:58:31.611Z</time>
      </trkpt>
      <trkpt lat="43.92516" lon="2.1453">
        <ele>175.471738</ele>
        <time>2018-10-21T10:58:37.230Z</time>
      </trkpt>
      <trkpt lat="43.92537" lon="2.14553">
        <ele>175.701666</ele>
        <time>2018-10-21T10:58:44.334Z</time>
      </trkpt>
      <trkpt lat="43.92554" lon="2.14552">
        <ele>175.846373</ele>
        <time>2018-10-21T10:58:48.729Z</time>
      </trkpt>
      <trkpt lat="43.92559" lon="2.14552">
        <ele>175.893399</ele>
        <time>2018-10-21T10:58:50.210Z</time>
      </trkpt>
      <trkpt lat="43.92558" lon="2.14565">
        <ele>175.974515</ele>
        <time>2018-10-21T10:58:53.543Z</time>
      </trkpt>
      <trkpt lat="43.92562" lon="2.14565">
        <ele>176.003609</ele>
        <time>2018-10-21T10:58:54.637Z</time>
      </trkpt>
      <trkpt lat="43.92564" lon="2.14641">
        <ele>176.469367</ele>
        <time>2018-10-21T10:59:13.110Z</time>
      </trkpt>
      <trkpt lat="43.92565" lon="2.14684">
        <ele>176.700607</ele>
        <time>2018-10-21T10:59:23.074Z</time>
      </trkpt>
      <trkpt lat="43.92564" lon="2.14641">
        <ele>176.931847</ele>
        <time>2018-10-21T10:59:33.200Z</time>
      </trkpt>
      <trkpt lat="43.92567" lon="2.14642">
        <ele>176.951386</ele>
        <time>2018-10-21T10:59:36.374Z</time>
      </trkpt>
      <trkpt lat="43.92581" lon="2.14644">
        <ele>177.061022</ele>
        <time>2018-10-21T10:59:40.465Z</time>
      </trkpt>
      <trkpt lat="43.92607" lon="2.14655">
        <ele>177.262736</ele>
        <time>2018-10-21T10:59:47.605Z</time>
      </trkpt>
      <trkpt lat="43.92631" lon="2.14668">
        <ele>177.454668</ele>
        <time>2018-10-21T10:59:54.472Z</time>
      </trkpt>
      <trkpt lat="43.92622" lon="2.1468">
        <ele>177.549267</ele>
        <time>2018-10-21T10:59:57.535Z</time>
      </trkpt>
      <trkpt lat="43.92629" lon="2.14687">
        <ele>177.612276</ele>
        <time>2018-10-21T10:59:59.750Z</time>
      </trkpt>
      <trkpt lat="43.92637" lon="2.14692">
        <ele>177.680012</ele>
        <time>2018-10-21T11:00:02.101Z</time>
      </trkpt>
      <trkpt lat="43.92631" lon="2.1471">
        <ele>177.783684</ele>
        <time>2018-10-21T11:00:05.228Z</time>
      </trkpt>
      <trkpt lat="43.92631" lon="2.1471">
        <ele>177.783684</ele>
        <time>2018-10-21T11:00:05.235Z</time>
      </trkpt>
      <trkpt lat="43.92631" lon="2.1471">
        <ele>177.783684</ele>
        <time>2018-10-21T11:00:05.263Z</time>
      </trkpt>
      <trkpt lat="43.92637" lon="2.14692">
        <ele>177.849026</ele>
        <time>2018-10-21T11:00:08.804Z</time>
      </trkpt>
      <trkpt lat="43.92629" lon="2.14687">
        <ele>177.89065</ele>
        <time>2018-10-21T11:00:11.032Z</time>
      </trkpt>
      <trkpt lat="43.92622" lon="2.1468">
        <ele>177.929369</ele>
        <time>2018-10-21T11:00:12.810Z</time>
      </trkpt>
      <trkpt lat="43.92631" lon="2.14668">
        <ele>177.9875</ele>
        <time>2018-10-21T11:00:15.884Z</time>
      </trkpt>
      <trkpt lat="43.9264" lon="2.14654">
        <ele>178.049777</ele>
        <time>2018-10-21T11:00:19.313Z</time>
      </trkpt>
      <trkpt lat="43.92643" lon="2.14657">
        <ele>178.067654</ele>
        <time>2018-10-21T11:00:20.248Z</time>
      </trkpt>
      <trkpt lat="43.92656" lon="2.14673">
        <ele>178.149089</ele>
        <time>2018-10-21T11:00:24.186Z</time>
      </trkpt>
      <trkpt lat="43.92662" lon="2.14679">
        <ele>178.181174</ele>
        <time>2018-10-21T11:00:25.968Z</time>
      </trkpt>
      <trkpt lat="43.92666" lon="2.14683">
        <ele>178.203187</ele>
        <time>2018-10-21T11:00:27.250Z</time>
      </trkpt>
      <trkpt lat="43.92671" lon="2.14685">
        <ele>178.228383</ele>
        <time>2018-10-21T11:00:28.681Z</time>
      </trkpt>
      <trkpt lat="43.92671" lon="2.14685">
        <ele>178.228383</ele>
        <time>2018-10-21T11:00:28.683Z</time>
      </trkpt>
      <trkpt lat="43.92674" lon="2.14692">
        <ele>178.255112</ele>
        <time>2018-10-21T11:00:29.898Z</time>
      </trkpt>
      <trkpt lat="43.92681" lon="2.14757">
        <ele>178.474284</ele>
        <time>2018-10-21T11:00:42.021Z</time>
      </trkpt>
      <trkpt lat="43.92681" lon="2.14765">
        <ele>178.500548</ele>
        <time>2018-10-21T11:00:43.571Z</time>
      </trkpt>
      <trkpt lat="43.92681" lon="2.14765">
        <ele>178.500548</ele>
        <time>2018-10-21T11:00:43.609Z</time>
      </trkpt>
      <trkpt lat="43.92681" lon="2.14765">
        <ele>178.500548</ele>
        <time>2018-10-21T11:00:43.646Z</time>
      </trkpt>
      <trkpt lat="43.9267" lon="2.14768">
        <ele>178.554389</ele>
        <time>2018-10-21T11:00:51.742Z</time>
      </trkpt>
      <trkpt lat="43.92671" lon="2.14775">
        <ele>178.577166</ele>
        <time>2018-10-21T11:00:55.177Z</time>
      </trkpt>
      <trkpt lat="43.92672" lon="2.14789">
        <ele>178.623101</ele>
        <time>2018-10-21T11:00:58.035Z</time>
      </trkpt>
      <trkpt lat="43.92675" lon="2.14809">
        <ele>178.679539</ele>
        <time>2018-10-21T11:01:02.093Z</time>
      </trkpt>
      <trkpt lat="43.92676" lon="2.14819">
        <ele>178.705888</ele>
        <time>2018-10-21T11:01:04.005Z</time>
      </trkpt>
      <trkpt lat="43.92677" lon="2.14828">
        <ele>178.731202</ele>
        <time>2018-10-21T11:01:05.545Z</time>
      </trkpt>
      <trkpt lat="43.9269" lon="2.14824">
        <ele>178.784033</ele>
        <time>2018-10-21T11:01:08.921Z</time>
      </trkpt>
      <trkpt lat="43.9269" lon="2.14824">
        <ele>178.784033</ele>
        <time>2018-10-21T11:01:08.945Z</time>
      </trkpt>
      <trkpt lat="43.92706" lon="2.14819">
        <ele>178.846298</ele>
        <time>2018-10-21T11:01:12.956Z</time>
      </trkpt>
      <trkpt lat="43.92712" lon="2.14818">
        <ele>178.870957</ele>
        <time>2018-10-21T11:01:14.299Z</time>
      </trkpt>
      <trkpt lat="43.92734" lon="2.14814">
        <ele>178.956004</ele>
        <time>2018-10-21T11:01:19.516Z</time>
      </trkpt>
      <trkpt lat="43.92742" lon="2.14812">
        <ele>178.986873</ele>
        <time>2018-10-21T11:01:21.429Z</time>
      </trkpt>
      <trkpt lat="43.92753" lon="2.14809">
        <ele>179.028902</ele>
        <time>2018-10-21T11:01:23.901Z</time>
      </trkpt>
      <trkpt lat="43.92772" lon="2.14804">
        <ele>179.102781</ele>
        <time>2018-10-21T11:01:28.308Z</time>
      </trkpt>
      <trkpt lat="43.92793" lon="2.14799">
        <ele>179.185011</ele>
        <time>2018-10-21T11:01:33.069Z</time>
      </trkpt>
      <trkpt lat="43.92796" lon="2.14798">
        <ele>179.198337</ele>
        <time>2018-10-21T11:01:33.864Z</time>
      </trkpt>
      <trkpt lat="43.92813" lon="2.14794">
        <ele>179.264214</ele>
        <time>2018-10-21T11:01:37.882Z</time>
      </trkpt>
      <trkpt lat="43.92817" lon="2.14793">
        <ele>179.278251</ele>
        <time>2018-10-21T11:01:38.652Z</time>
      </trkpt>
      <trkpt lat="43.92836" lon="2.14788">
        <ele>179.346231</ele>
        <time>2018-10-21T11:01:43.289Z</time>
      </trkpt>
      <trkpt lat="43.92862" lon="2.14781">
        <ele>179.428938</ele>
        <time>2018-10-21T11:01:49.145Z</time>
      </trkpt>
      <trkpt lat="43.92872" lon="2.14778">
        <ele>179.462049</ele>
        <time>2018-10-21T11:01:51.666Z</time>
      </trkpt>
      <trkpt lat="43.92909" lon="2.14769">
        <ele>179.580875</ele>
        <time>2018-10-21T11:02:00.279Z</time>
      </trkpt>
      <trkpt lat="43.92938" lon="2.14762">
        <ele>179.672886</ele>
        <time>2018-10-21T11:02:06.853Z</time>
      </trkpt>
      <trkpt lat="43.92964" lon="2.14756">
        <ele>179.755001</ele>
        <time>2018-10-21T11:02:12.664Z</time>
      </trkpt>
      <trkpt lat="43.92967" lon="2.14755">
        <ele>179.7655</ele>
        <time>2018-10-21T11:02:13.406Z</time>
      </trkpt>
      <trkpt lat="43.9297" lon="2.14755">
        <ele>179.774089</ele>
        <time>2018-10-21T11:02:14.013Z</time>
      </trkpt>
      <trkpt lat="43.92969" lon="2.14746">
        <ele>179.795876</ele>
        <time>2018-10-21T11:02:15.806Z</time>
      </trkpt>
      <trkpt lat="43.92964" lon="2.14747">
        <ele>179.810153</ele>
        <time>2018-10-21T11:02:16.878Z</time>
      </trkpt>
      <trkpt lat="43.92908" lon="2.14761">
        <ele>180.199693</ele>
        <time>2018-10-21T11:02:31.603Z</time>
      </trkpt>
      <trkpt lat="43.92871" lon="2.1477">
        <ele>180.523294</ele>
        <time>2018-10-21T11:02:41.578Z</time>
      </trkpt>
      <trkpt lat="43.92871" lon="2.14763">
        <ele>180.570842</ele>
        <time>2018-10-21T11:02:43.086Z</time>
      </trkpt>
      <trkpt lat="43.92869" lon="2.14755">
        <ele>180.620506</ele>
        <time>2018-10-21T11:02:44.572Z</time>
      </trkpt>
      <trkpt lat="43.92865" lon="2.14732">
        <ele>180.767257</ele>
        <time>2018-10-21T11:02:49.571Z</time>
      </trkpt>
      <trkpt lat="43.92857" lon="2.1469">
        <ele>181.036467</ele>
        <time>2018-10-21T11:02:58.302Z</time>
      </trkpt>
      <trkpt lat="43.92856" lon="2.14683">
        <ele>181.087558</ele>
        <time>2018-10-21T11:03:00.293Z</time>
      </trkpt>
      <trkpt lat="43.92847" lon="2.1465">
        <ele>181.303872</ele>
        <time>2018-10-21T11:03:06.617Z</time>
      </trkpt>
      <trkpt lat="43.92835" lon="2.14625">
        <ele>181.389738</ele>
        <time>2018-10-21T11:03:12.405Z</time>
      </trkpt>
      <trkpt lat="43.92809" lon="2.14664">
        <ele>181.141016</ele>
        <time>2018-10-21T11:03:21.214Z</time>
      </trkpt>
      <trkpt lat="43.92802" lon="2.14674">
        <ele>181.07921</ele>
        <time>2018-10-21T11:03:23.166Z</time>
      </trkpt>
      <trkpt lat="43.92802" lon="2.14674">
        <ele>181.07921</ele>
        <time>2018-10-21T11:03:23.169Z</time>
      </trkpt>
      <trkpt lat="43.92788" lon="2.14658">
        <ele>180.959785</ele>
        <time>2018-10-21T11:03:27.490Z</time>
      </trkpt>
      <trkpt lat="43.92786" lon="2.14656">
        <ele>180.946778</ele>
        <time>2018-10-21T11:03:27.976Z</time>
      </trkpt>
      <trkpt lat="43.92779" lon="2.14645">
        <ele>180.876026</ele>
        <time>2018-10-21T11:03:30.158Z</time>
      </trkpt>
      <trkpt lat="43.92778" lon="2.14643">
        <ele>180.86683</ele>
        <time>2018-10-21T11:03:30.416Z</time>
      </trkpt>
      <trkpt lat="43.92767" lon="2.14635">
        <ele>180.78418</ele>
        <time>2018-10-21T11:03:33.076Z</time>
      </trkpt>
      <trkpt lat="43.9276" lon="2.14629">
        <ele>180.732551</ele>
        <time>2018-10-21T11:03:34.635Z</time>
      </trkpt>
      <trkpt lat="43.92745" lon="2.14623">
        <ele>180.632072</ele>
        <time>2018-10-21T11:03:37.688Z</time>
      </trkpt>
      <trkpt lat="43.92713" lon="2.14615">
        <ele>180.424881</ele>
        <time>2018-10-21T11:03:43.902Z</time>
      </trkpt>
      <trkpt lat="43.92707" lon="2.14614">
        <ele>180.38069</ele>
        <time>2018-10-21T11:03:45.195Z</time>
      </trkpt>
      <trkpt lat="43.92693" lon="2.14611">
        <ele>180.294224</ele>
        <time>2018-10-21T11:03:47.850Z</time>
      </trkpt>
      <trkpt lat="43.9269" lon="2.1463">
        <ele>180.173726</ele>
        <time>2018-10-21T11:03:50.478Z</time>
      </trkpt>
      <trkpt lat="43.92683" lon="2.14652">
        <ele>180.012314</ele>
        <time>2018-10-21T11:03:53.844Z</time>
      </trkpt>
      <trkpt lat="43.92671" lon="2.14685">
        <ele>179.754007</ele>
        <time>2018-10-21T11:03:59.056Z</time>
      </trkpt>
      <trkpt lat="43.92671" lon="2.14685">
        <ele>179.754007</ele>
        <time>2018-10-21T11:03:59.058Z</time>
      </trkpt>
      <trkpt lat="43.92666" lon="2.14683">
        <ele>179.70228</ele>
        <time>2018-10-21T11:04:00.125Z</time>
      </trkpt>
      <trkpt lat="43.92662" lon="2.14679">
        <ele>179.657087</ele>
        <time>2018-10-21T11:04:01.089Z</time>
      </trkpt>
      <trkpt lat="43.92659" lon="2.14685">
        <ele>179.603907</ele>
        <time>2018-10-21T11:04:02.079Z</time>
      </trkpt>
      <trkpt lat="43.92655" lon="2.14728">
        <ele>179.309067</ele>
        <time>2018-10-21T11:04:08.140Z</time>
      </trkpt>
      <trkpt lat="43.92659" lon="2.14685">
        <ele>179.014227</ele>
        <time>2018-10-21T11:04:14.368Z</time>
      </trkpt>
      <trkpt lat="43.92662" lon="2.14679">
        <ele>178.961047</ele>
        <time>2018-10-21T11:04:15.792Z</time>
      </trkpt>
      <trkpt lat="43.92666" lon="2.14683">
        <ele>178.915855</ele>
        <time>2018-10-21T11:04:16.734Z</time>
      </trkpt>
      <trkpt lat="43.92671" lon="2.14685">
        <ele>178.864127</ele>
        <time>2018-10-21T11:04:17.998Z</time>
      </trkpt>
      <trkpt lat="43.92671" lon="2.14685">
        <ele>178.864127</ele>
        <time>2018-10-21T11:04:17.999Z</time>
      </trkpt>
      <trkpt lat="43.92674" lon="2.14692">
        <ele>178.809253</ele>
        <time>2018-10-21T11:04:19.163Z</time>
      </trkpt>
      <trkpt lat="43.92681" lon="2.14757">
        <ele>178.636983</ele>
        <time>2018-10-21T11:04:30.376Z</time>
      </trkpt>
      <trkpt lat="43.92681" lon="2.14765">
        <ele>178.656333</ele>
        <time>2018-10-21T11:04:31.892Z</time>
      </trkpt>
      <trkpt lat="43.9267" lon="2.14768">
        <ele>178.696001</ele>
        <time>2018-10-21T11:04:39.987Z</time>
      </trkpt>
      <trkpt lat="43.92671" lon="2.14775">
        <ele>178.712783</ele>
        <time>2018-10-21T11:04:43.423Z</time>
      </trkpt>
      <trkpt lat="43.92672" lon="2.14789">
        <ele>178.748584</ele>
        <time>2018-10-21T11:04:46.106Z</time>
      </trkpt>
      <trkpt lat="43.92675" lon="2.14809">
        <ele>178.798437</ele>
        <time>2018-10-21T11:04:50.293Z</time>
      </trkpt>
      <trkpt lat="43.92676" lon="2.14819">
        <ele>178.821713</ele>
        <time>2018-10-21T11:04:52.211Z</time>
      </trkpt>
      <trkpt lat="43.92677" lon="2.14828">
        <ele>178.844074</ele>
        <time>2018-10-21T11:04:53.844Z</time>
      </trkpt>
      <trkpt lat="43.9269" lon="2.14824">
        <ele>178.890742</ele>
        <time>2018-10-21T11:04:57.108Z</time>
      </trkpt>
      <trkpt lat="43.9269" lon="2.14824">
        <ele>178.890742</ele>
        <time>2018-10-21T11:04:57.133Z</time>
      </trkpt>
      <trkpt lat="43.92706" lon="2.14819">
        <ele>178.945745</ele>
        <time>2018-10-21T11:05:01.651Z</time>
      </trkpt>
      <trkpt lat="43.92712" lon="2.14818">
        <ele>178.967527</ele>
        <time>2018-10-21T11:05:03.039Z</time>
      </trkpt>
      <trkpt lat="43.92734" lon="2.14814">
        <ele>179.042653</ele>
        <time>2018-10-21T11:05:08.022Z</time>
      </trkpt>
      <trkpt lat="43.92742" lon="2.14812">
        <ele>179.069921</ele>
        <time>2018-10-21T11:05:10.015Z</time>
      </trkpt>
      <trkpt lat="43.92753" lon="2.14809">
        <ele>179.107048</ele>
        <time>2018-10-21T11:05:12.468Z</time>
      </trkpt>
      <trkpt lat="43.92772" lon="2.14804">
        <ele>179.172308</ele>
        <time>2018-10-21T11:05:16.640Z</time>
      </trkpt>
      <trkpt lat="43.92793" lon="2.14799">
        <ele>179.066999</ele>
        <time>2018-10-21T11:05:21.170Z</time>
      </trkpt>
      <trkpt lat="43.92791" lon="2.14788">
        <ele>179.023455</ele>
        <time>2018-10-21T11:05:26.896Z</time>
      </trkpt>
      <trkpt lat="43.92788" lon="2.14772">
        <ele>178.962223</ele>
        <time>2018-10-21T11:05:34.958Z</time>
      </trkpt>
      <trkpt lat="43.92785" lon="2.14755">
        <ele>178.894432</ele>
        <time>2018-10-21T11:05:43.874Z</time>
      </trkpt>
      <trkpt lat="43.92778" lon="2.14755">
        <ele>178.853584</ele>
        <time>2018-10-21T11:05:49.235Z</time>
      </trkpt>
      <trkpt lat="43.92762" lon="2.14754">
        <ele>178.7706</ele>
        <time>2018-10-21T11:06:00.051Z</time>
      </trkpt>
      <trkpt lat="43.92746" lon="2.1475">
        <ele>178.684826</ele>
        <time>2018-10-21T11:06:11.355Z</time>
      </trkpt>
      <trkpt lat="43.92729" lon="2.14754">
        <ele>178.592011</ele>
        <time>2018-10-21T11:06:23.471Z</time>
      </trkpt>
      <trkpt lat="43.92709" lon="2.14759">
        <ele>178.484912</ele>
        <time>2018-10-21T11:06:37.554Z</time>
      </trkpt>
      <trkpt lat="43.92681" lon="2.14765">
        <ele>178.338198</ele>
        <time>2018-10-21T11:06:56.752Z</time>
      </trkpt>
      <trkpt lat="43.92681" lon="2.14765">
        <ele>178.338198</ele>
        <time>2018-10-21T11:06:56.790Z</time>
      </trkpt>
      <trkpt lat="43.9267" lon="2.14768">
        <ele>178.276393</ele>
        <time>2018-10-21T11:07:04.886Z</time>
      </trkpt>
      <trkpt lat="43.92662" lon="2.14767">
        <ele>178.235525</ele>
        <time>2018-10-21T11:07:06.461Z</time>
      </trkpt>
      <trkpt lat="43.92651" lon="2.14765">
        <ele>178.179157</ele>
        <time>2018-10-21T11:07:08.864Z</time>
      </trkpt>
      <trkpt lat="43.92634" lon="2.1476">
        <ele>178.098774</ele>
        <time>2018-10-21T11:07:12.087Z</time>
      </trkpt>
      <trkpt lat="43.9264" lon="2.14715">
        <ele>177.943718</ele>
        <time>2018-10-21T11:07:18.920Z</time>
      </trkpt>
      <trkpt lat="43.92631" lon="2.1471">
        <ele>177.898337</ele>
        <time>2018-10-21T11:07:21.095Z</time>
      </trkpt>
      <trkpt lat="43.92631" lon="2.1471">
        <ele>177.898337</ele>
        <time>2018-10-21T11:07:21.103Z</time>
      </trkpt>
      <trkpt lat="43.92613" lon="2.14696">
        <ele>177.800337</ele>
        <time>2018-10-21T11:07:25.629Z</time>
      </trkpt>
      <trkpt lat="43.92601" lon="2.14718">
        <ele>177.708622</ele>
        <time>2018-10-21T11:07:30.208Z</time>
      </trkpt>
      <trkpt lat="43.92586" lon="2.14748">
        <ele>177.582365</ele>
        <time>2018-10-21T11:07:36.132Z</time>
      </trkpt>
      <trkpt lat="43.92601" lon="2.14718">
        <ele>177.456109</ele>
        <time>2018-10-21T11:07:42.820Z</time>
      </trkpt>
      <trkpt lat="43.92613" lon="2.14696">
        <ele>177.384931</ele>
        <time>2018-10-21T11:07:47.393Z</time>
      </trkpt>
      <trkpt lat="43.92614" lon="2.14694">
        <ele>177.384931</ele>
        <time>2018-10-21T11:07:47.817Z</time>
      </trkpt>
      <trkpt lat="43.92622" lon="2.1468">
        <ele>177.384931</ele>
        <time>2018-10-21T11:07:50.745Z</time>
      </trkpt>
      <trkpt lat="43.92631" lon="2.14668">
        <ele>177.384931</ele>
        <time>2018-10-21T11:07:53.589Z</time>
      </trkpt>
      <trkpt lat="43.9264" lon="2.14654">
        <ele>177.384931</ele>
        <time>2018-10-21T11:07:56.857Z</time>
      </trkpt>
      <trkpt lat="43.92643" lon="2.14657">
        <ele>177.384931</ele>
        <time>2018-10-21T11:07:57.740Z</time>
      </trkpt>
      <trkpt lat="43.92656" lon="2.14673">
        <ele>177.384931</ele>
        <time>2018-10-21T11:08:01.567Z</time>
      </trkpt>
      <trkpt lat="43.92662" lon="2.14679">
        <ele>177.384931</ele>
        <time>2018-10-21T11:08:03.268Z</time>
      </trkpt>
      <trkpt lat="43.92666" lon="2.14683">
        <ele>177.384931</ele>
        <time>2018-10-21T11:08:04.414Z</time>
      </trkpt>
      <trkpt lat="43.92671" lon="2.14685">
        <ele>177.384931</ele>
        <time>2018-10-21T11:08:05.702Z</time>
      </trkpt>
      <trkpt lat="43.92666" lon="2.14683">
        <ele>177.384931</ele>
        <time>2018-10-21T11:08:06.906Z</time>
      </trkpt>
      <trkpt lat="43.92662" lon="2.14679">
        <ele>177.384931</ele>
        <time>2018-10-21T11:08:08.047Z</time>
      </trkpt>
      <trkpt lat="43.92659" lon="2.14685">
        <ele>177.384931</ele>
        <time>2018-10-21T11:08:09.210Z</time>
      </trkpt>
      <trkpt lat="43.92655" lon="2.14728">
        <ele>177.384931</ele>
        <time>2018-10-21T11:08:16.792Z</time>
      </trkpt>
      <trkpt lat="43.92653" lon="2.14745">
        <ele>177.384931</ele>
        <time>2018-10-21T11:08:19.700Z</time>
      </trkpt>
      <trkpt lat="43.92651" lon="2.14765">
        <ele>177.384931</ele>
        <time>2018-10-21T11:08:23.134Z</time>
      </trkpt>
      <trkpt lat="43.92651" lon="2.14765">
        <ele>177.384931</ele>
        <time>2018-10-21T11:08:23.140Z</time>
      </trkpt>
    </trkseg>
  </trk>
</gpx>